<?xml version="1.0" encoding="UTF-8" standalone="no" ?>
<gpx xmlns="http://www.topografix.com/GPX/1/1" xmlns:xsi="http://www.w3.org/2001/XMLSchema-instance" xsi:schemaLocation="http://www.topografix.com/GPX/1/1 http://www.topografix.com/GPX/1/1/gpx.xsd" version="1.1" creator="VisuGPX - https://www.visugpx.com">
  <metadata>
    <name>Gr20 étape 9 </name>
    <desc><![CDATA[De Vizzavona à Col Verde]]></desc>
  </metadata>
  <trk>
    <name><![CDATA[2015-09-12 17:36:40]]></name>
    <trkseg>
      <trkpt lat="42.12759" lon="9.13302">
        <ele>928.77</ele>
        <time>2015-09-12T05:30:11Z</time>
      </trkpt>
      <trkpt lat="42.12759" lon="9.13302">
        <ele>928.77</ele>
        <time>2015-09-12T05:30:14Z</time>
      </trkpt>
      <trkpt lat="42.12758" lon="9.13303">
        <ele>931.65</ele>
        <time>2015-09-12T05:30:18Z</time>
      </trkpt>
      <trkpt lat="42.12757" lon="9.13285">
        <ele>931.65</ele>
        <time>2015-09-12T05:30:44Z</time>
      </trkpt>
      <trkpt lat="42.12749" lon="9.13257">
        <ele>933.1</ele>
        <time>2015-09-12T05:31:07Z</time>
      </trkpt>
      <trkpt lat="42.12744" lon="9.13241">
        <ele>933.58</ele>
        <time>2015-09-12T05:31:18Z</time>
      </trkpt>
      <trkpt lat="42.12742" lon="9.13233">
        <ele>934.06</ele>
        <time>2015-09-12T05:31:23Z</time>
      </trkpt>
      <trkpt lat="42.12732" lon="9.13231">
        <ele>935.98</ele>
        <time>2015-09-12T05:31:40Z</time>
      </trkpt>
      <trkpt lat="42.12721" lon="9.13248">
        <ele>937.42</ele>
        <time>2015-09-12T05:31:58Z</time>
      </trkpt>
      <trkpt lat="42.12704" lon="9.13276">
        <ele>939.35</ele>
        <time>2015-09-12T05:32:18Z</time>
      </trkpt>
      <trkpt lat="42.12695" lon="9.13301">
        <ele>941.27</ele>
        <time>2015-09-12T05:32:39Z</time>
      </trkpt>
      <trkpt lat="42.12678" lon="9.13319">
        <ele>943.19</ele>
        <time>2015-09-12T05:33:00Z</time>
      </trkpt>
      <trkpt lat="42.12663" lon="9.13339">
        <ele>944.63</ele>
        <time>2015-09-12T05:33:23Z</time>
      </trkpt>
      <trkpt lat="42.12631" lon="9.13362">
        <ele>944.63</ele>
        <time>2015-09-12T05:33:50Z</time>
      </trkpt>
      <trkpt lat="42.1262" lon="9.13382">
        <ele>944.63</ele>
        <time>2015-09-12T05:34:14Z</time>
      </trkpt>
      <trkpt lat="42.12625" lon="9.13403">
        <ele>945.11</ele>
        <time>2015-09-12T05:34:34Z</time>
      </trkpt>
      <trkpt lat="42.12629" lon="9.13445">
        <ele>946.07</ele>
        <time>2015-09-12T05:34:57Z</time>
      </trkpt>
      <trkpt lat="42.12623" lon="9.13454">
        <ele>947.52</ele>
        <time>2015-09-12T05:35:17Z</time>
      </trkpt>
      <trkpt lat="42.12602" lon="9.13451">
        <ele>950.4</ele>
        <time>2015-09-12T05:35:39Z</time>
      </trkpt>
      <trkpt lat="42.1259" lon="9.13455">
        <ele>953.28</ele>
        <time>2015-09-12T05:36:00Z</time>
      </trkpt>
      <trkpt lat="42.12578" lon="9.13461">
        <ele>956.17</ele>
        <time>2015-09-12T05:36:24Z</time>
      </trkpt>
      <trkpt lat="42.12563" lon="9.13464">
        <ele>959.05</ele>
        <time>2015-09-12T05:36:46Z</time>
      </trkpt>
      <trkpt lat="42.12545" lon="9.13464">
        <ele>961.94</ele>
        <time>2015-09-12T05:37:10Z</time>
      </trkpt>
      <trkpt lat="42.12535" lon="9.13466">
        <ele>965.3</ele>
        <time>2015-09-12T05:37:32Z</time>
      </trkpt>
      <trkpt lat="42.12526" lon="9.13474">
        <ele>967.22</ele>
        <time>2015-09-12T05:37:51Z</time>
      </trkpt>
      <trkpt lat="42.12513" lon="9.13476">
        <ele>970.11</ele>
        <time>2015-09-12T05:38:12Z</time>
      </trkpt>
      <trkpt lat="42.12494" lon="9.13483">
        <ele>972.51</ele>
        <time>2015-09-12T05:38:34Z</time>
      </trkpt>
      <trkpt lat="42.12487" lon="9.13492">
        <ele>975.39</ele>
        <time>2015-09-12T05:38:56Z</time>
      </trkpt>
      <trkpt lat="42.1248" lon="9.13501">
        <ele>977.8</ele>
        <time>2015-09-12T05:39:17Z</time>
      </trkpt>
      <trkpt lat="42.12467" lon="9.13507">
        <ele>980.2</ele>
        <time>2015-09-12T05:39:41Z</time>
      </trkpt>
      <trkpt lat="42.1245" lon="9.13516">
        <ele>983.09</ele>
        <time>2015-09-12T05:40:04Z</time>
      </trkpt>
      <trkpt lat="42.1244" lon="9.13525">
        <ele>985.97</ele>
        <time>2015-09-12T05:40:27Z</time>
      </trkpt>
      <trkpt lat="42.1245" lon="9.13545">
        <ele>987.41</ele>
        <time>2015-09-12T05:40:49Z</time>
      </trkpt>
      <trkpt lat="42.12476" lon="9.13544">
        <ele>990.3</ele>
        <time>2015-09-12T05:41:13Z</time>
      </trkpt>
      <trkpt lat="42.12487" lon="9.13546">
        <ele>991.74</ele>
        <time>2015-09-12T05:41:32Z</time>
      </trkpt>
      <trkpt lat="42.12492" lon="9.13558">
        <ele>993.66</ele>
        <time>2015-09-12T05:41:50Z</time>
      </trkpt>
      <trkpt lat="42.12512" lon="9.1357">
        <ele>994.14</ele>
        <time>2015-09-12T05:42:11Z</time>
      </trkpt>
      <trkpt lat="42.12527" lon="9.1358">
        <ele>995.58</ele>
        <time>2015-09-12T05:42:31Z</time>
      </trkpt>
      <trkpt lat="42.12539" lon="9.13589">
        <ele>996.54</ele>
        <time>2015-09-12T05:42:49Z</time>
      </trkpt>
      <trkpt lat="42.12554" lon="9.136">
        <ele>996.54</ele>
        <time>2015-09-12T05:43:07Z</time>
      </trkpt>
      <trkpt lat="42.12571" lon="9.13615">
        <ele>997.51</ele>
        <time>2015-09-12T05:43:27Z</time>
      </trkpt>
      <trkpt lat="42.12588" lon="9.13636">
        <ele>997.99</ele>
        <time>2015-09-12T05:43:52Z</time>
      </trkpt>
      <trkpt lat="42.12583" lon="9.1367">
        <ele>997.99</ele>
        <time>2015-09-12T05:44:13Z</time>
      </trkpt>
      <trkpt lat="42.12592" lon="9.13705">
        <ele>998.95</ele>
        <time>2015-09-12T05:44:36Z</time>
      </trkpt>
      <trkpt lat="42.12609" lon="9.13723">
        <ele>1000.39</ele>
        <time>2015-09-12T05:44:57Z</time>
      </trkpt>
      <trkpt lat="42.12629" lon="9.13735">
        <ele>1002.79</ele>
        <time>2015-09-12T05:45:19Z</time>
      </trkpt>
      <trkpt lat="42.12649" lon="9.13755">
        <ele>1005.68</ele>
        <time>2015-09-12T05:45:42Z</time>
      </trkpt>
      <trkpt lat="42.1266" lon="9.13769">
        <ele>1007.6</ele>
        <time>2015-09-12T05:46:04Z</time>
      </trkpt>
      <trkpt lat="42.12679" lon="9.13784">
        <ele>1010</ele>
        <time>2015-09-12T05:46:28Z</time>
      </trkpt>
      <trkpt lat="42.12684" lon="9.13799">
        <ele>1011.93</ele>
        <time>2015-09-12T05:46:47Z</time>
      </trkpt>
      <trkpt lat="42.12697" lon="9.13812">
        <ele>1014.33</ele>
        <time>2015-09-12T05:47:10Z</time>
      </trkpt>
      <trkpt lat="42.12711" lon="9.13841">
        <ele>1014.81</ele>
        <time>2015-09-12T05:47:34Z</time>
      </trkpt>
      <trkpt lat="42.12713" lon="9.13868">
        <ele>1015.29</ele>
        <time>2015-09-12T05:47:57Z</time>
      </trkpt>
      <trkpt lat="42.12738" lon="9.13874">
        <ele>1016.73</ele>
        <time>2015-09-12T05:48:19Z</time>
      </trkpt>
      <trkpt lat="42.12758" lon="9.13881">
        <ele>1018.65</ele>
        <time>2015-09-12T05:48:37Z</time>
      </trkpt>
      <trkpt lat="42.1277" lon="9.13897">
        <ele>1021.54</ele>
        <time>2015-09-12T05:49:03Z</time>
      </trkpt>
      <trkpt lat="42.12782" lon="9.13925">
        <ele>1022.98</ele>
        <time>2015-09-12T05:49:25Z</time>
      </trkpt>
      <trkpt lat="42.12788" lon="9.13945">
        <ele>1022.98</ele>
        <time>2015-09-12T05:49:44Z</time>
      </trkpt>
      <trkpt lat="42.12797" lon="9.13975">
        <ele>1022.98</ele>
        <time>2015-09-12T05:50:07Z</time>
      </trkpt>
      <trkpt lat="42.12801" lon="9.13972">
        <ele>1022.98</ele>
        <time>2015-09-12T05:50:31Z</time>
      </trkpt>
      <trkpt lat="42.12804" lon="9.13971">
        <ele>1021.06</ele>
        <time>2015-09-12T05:50:34Z</time>
      </trkpt>
      <trkpt lat="42.12807" lon="9.13973">
        <ele>1022.02</ele>
        <time>2015-09-12T05:51:01Z</time>
      </trkpt>
      <trkpt lat="42.12803" lon="9.13972">
        <ele>1022.98</ele>
        <time>2015-09-12T05:51:21Z</time>
      </trkpt>
      <trkpt lat="42.12802" lon="9.13975">
        <ele>1022.98</ele>
        <time>2015-09-12T05:51:49Z</time>
      </trkpt>
      <trkpt lat="42.12804" lon="9.13977">
        <ele>1022.98</ele>
        <time>2015-09-12T05:52:14Z</time>
      </trkpt>
      <trkpt lat="42.12815" lon="9.1397">
        <ele>1022.98</ele>
        <time>2015-09-12T05:52:42Z</time>
      </trkpt>
      <trkpt lat="42.12816" lon="9.13967">
        <ele>1022.98</ele>
        <time>2015-09-12T05:53:09Z</time>
      </trkpt>
      <trkpt lat="42.1282" lon="9.13979">
        <ele>1022.98</ele>
        <time>2015-09-12T05:53:30Z</time>
      </trkpt>
      <trkpt lat="42.12833" lon="9.14004">
        <ele>1023.46</ele>
        <time>2015-09-12T05:53:51Z</time>
      </trkpt>
      <trkpt lat="42.12836" lon="9.14017">
        <ele>1023.94</ele>
        <time>2015-09-12T05:54:02Z</time>
      </trkpt>
      <trkpt lat="42.12844" lon="9.14033">
        <ele>1024.9</ele>
        <time>2015-09-12T05:54:15Z</time>
      </trkpt>
      <trkpt lat="42.12858" lon="9.14068">
        <ele>1024.42</ele>
        <time>2015-09-12T05:54:37Z</time>
      </trkpt>
      <trkpt lat="42.1286" lon="9.14099">
        <ele>1024.42</ele>
        <time>2015-09-12T05:54:59Z</time>
      </trkpt>
      <trkpt lat="42.12884" lon="9.14119">
        <ele>1024.42</ele>
        <time>2015-09-12T05:55:17Z</time>
      </trkpt>
      <trkpt lat="42.12893" lon="9.14141">
        <ele>1024.9</ele>
        <time>2015-09-12T05:55:37Z</time>
      </trkpt>
      <trkpt lat="42.12899" lon="9.14152">
        <ele>1025.38</ele>
        <time>2015-09-12T05:55:46Z</time>
      </trkpt>
      <trkpt lat="42.12919" lon="9.14183">
        <ele>1026.34</ele>
        <time>2015-09-12T05:56:06Z</time>
      </trkpt>
      <trkpt lat="42.12926" lon="9.1421">
        <ele>1026.83</ele>
        <time>2015-09-12T05:56:26Z</time>
      </trkpt>
      <trkpt lat="42.12941" lon="9.14214">
        <ele>1027.79</ele>
        <time>2015-09-12T05:56:47Z</time>
      </trkpt>
      <trkpt lat="42.12947" lon="9.142">
        <ele>1028.27</ele>
        <time>2015-09-12T05:57:03Z</time>
      </trkpt>
      <trkpt lat="42.12963" lon="9.1419">
        <ele>1028.75</ele>
        <time>2015-09-12T05:57:21Z</time>
      </trkpt>
      <trkpt lat="42.12986" lon="9.14189">
        <ele>1029.23</ele>
        <time>2015-09-12T05:57:41Z</time>
      </trkpt>
      <trkpt lat="42.13012" lon="9.14192">
        <ele>1030.19</ele>
        <time>2015-09-12T05:58:01Z</time>
      </trkpt>
      <trkpt lat="42.13028" lon="9.14194">
        <ele>1030.19</ele>
        <time>2015-09-12T05:58:16Z</time>
      </trkpt>
      <trkpt lat="42.13044" lon="9.14185">
        <ele>1031.63</ele>
        <time>2015-09-12T05:58:36Z</time>
      </trkpt>
      <trkpt lat="42.1306" lon="9.14176">
        <ele>1033.07</ele>
        <time>2015-09-12T05:58:53Z</time>
      </trkpt>
      <trkpt lat="42.13082" lon="9.14166">
        <ele>1034.52</ele>
        <time>2015-09-12T05:59:16Z</time>
      </trkpt>
      <trkpt lat="42.13097" lon="9.1416">
        <ele>1035.48</ele>
        <time>2015-09-12T05:59:34Z</time>
      </trkpt>
      <trkpt lat="42.13088" lon="9.14178">
        <ele>1035.96</ele>
        <time>2015-09-12T05:59:51Z</time>
      </trkpt>
      <trkpt lat="42.13087" lon="9.14178">
        <ele>1036.44</ele>
        <time>2015-09-12T05:59:52Z</time>
      </trkpt>
      <trkpt lat="42.13069" lon="9.14185">
        <ele>1037.4</ele>
        <time>2015-09-12T06:00:11Z</time>
      </trkpt>
      <trkpt lat="42.13052" lon="9.142">
        <ele>1038.36</ele>
        <time>2015-09-12T06:00:31Z</time>
      </trkpt>
      <trkpt lat="42.13034" lon="9.14222">
        <ele>1040.28</ele>
        <time>2015-09-12T06:00:53Z</time>
      </trkpt>
      <trkpt lat="42.1301" lon="9.14234">
        <ele>1042.21</ele>
        <time>2015-09-12T06:01:17Z</time>
      </trkpt>
      <trkpt lat="42.12988" lon="9.14229">
        <ele>1043.65</ele>
        <time>2015-09-12T06:01:37Z</time>
      </trkpt>
      <trkpt lat="42.12969" lon="9.14241">
        <ele>1045.57</ele>
        <time>2015-09-12T06:01:58Z</time>
      </trkpt>
      <trkpt lat="42.12973" lon="9.14253">
        <ele>1047.49</ele>
        <time>2015-09-12T06:02:19Z</time>
      </trkpt>
      <trkpt lat="42.12987" lon="9.1424">
        <ele>1049.9</ele>
        <time>2015-09-12T06:02:37Z</time>
      </trkpt>
      <trkpt lat="42.13002" lon="9.14238">
        <ele>1050.38</ele>
        <time>2015-09-12T06:02:55Z</time>
      </trkpt>
      <trkpt lat="42.13017" lon="9.14256">
        <ele>1051.82</ele>
        <time>2015-09-12T06:03:15Z</time>
      </trkpt>
      <trkpt lat="42.13033" lon="9.14265">
        <ele>1053.74</ele>
        <time>2015-09-12T06:03:34Z</time>
      </trkpt>
      <trkpt lat="42.13047" lon="9.1426">
        <ele>1056.15</ele>
        <time>2015-09-12T06:03:53Z</time>
      </trkpt>
      <trkpt lat="42.13061" lon="9.14255">
        <ele>1058.55</ele>
        <time>2015-09-12T06:04:15Z</time>
      </trkpt>
      <trkpt lat="42.13073" lon="9.1425">
        <ele>1060.47</ele>
        <time>2015-09-12T06:04:34Z</time>
      </trkpt>
      <trkpt lat="42.13086" lon="9.14247">
        <ele>1062.87</ele>
        <time>2015-09-12T06:04:54Z</time>
      </trkpt>
      <trkpt lat="42.13101" lon="9.14254">
        <ele>1065.28</ele>
        <time>2015-09-12T06:05:16Z</time>
      </trkpt>
      <trkpt lat="42.13092" lon="9.14268">
        <ele>1068.64</ele>
        <time>2015-09-12T06:05:36Z</time>
      </trkpt>
      <trkpt lat="42.13079" lon="9.14285">
        <ele>1070.57</ele>
        <time>2015-09-12T06:05:59Z</time>
      </trkpt>
      <trkpt lat="42.13069" lon="9.143">
        <ele>1072.97</ele>
        <time>2015-09-12T06:06:18Z</time>
      </trkpt>
      <trkpt lat="42.13057" lon="9.14319">
        <ele>1075.85</ele>
        <time>2015-09-12T06:06:40Z</time>
      </trkpt>
      <trkpt lat="42.13043" lon="9.14325">
        <ele>1077.29</ele>
        <time>2015-09-12T06:06:59Z</time>
      </trkpt>
      <trkpt lat="42.13035" lon="9.14338">
        <ele>1079.7</ele>
        <time>2015-09-12T06:07:18Z</time>
      </trkpt>
      <trkpt lat="42.13028" lon="9.14355">
        <ele>1081.62</ele>
        <time>2015-09-12T06:07:36Z</time>
      </trkpt>
      <trkpt lat="42.13018" lon="9.14365">
        <ele>1084.5</ele>
        <time>2015-09-12T06:07:58Z</time>
      </trkpt>
      <trkpt lat="42.13019" lon="9.14377">
        <ele>1087.39</ele>
        <time>2015-09-12T06:08:18Z</time>
      </trkpt>
      <trkpt lat="42.13001" lon="9.14395">
        <ele>1089.79</ele>
        <time>2015-09-12T06:08:37Z</time>
      </trkpt>
      <trkpt lat="42.12989" lon="9.144">
        <ele>1092.2</ele>
        <time>2015-09-12T06:08:56Z</time>
      </trkpt>
      <trkpt lat="42.12981" lon="9.14414">
        <ele>1094.12</ele>
        <time>2015-09-12T06:09:11Z</time>
      </trkpt>
      <trkpt lat="42.12975" lon="9.1443">
        <ele>1096.52</ele>
        <time>2015-09-12T06:09:31Z</time>
      </trkpt>
      <trkpt lat="42.12964" lon="9.14435">
        <ele>1098.92</ele>
        <time>2015-09-12T06:09:49Z</time>
      </trkpt>
      <trkpt lat="42.1297" lon="9.14439">
        <ele>1102.29</ele>
        <time>2015-09-12T06:10:11Z</time>
      </trkpt>
      <trkpt lat="42.12984" lon="9.14445">
        <ele>1105.17</ele>
        <time>2015-09-12T06:10:32Z</time>
      </trkpt>
      <trkpt lat="42.12993" lon="9.14446">
        <ele>1106.61</ele>
        <time>2015-09-12T06:10:51Z</time>
      </trkpt>
      <trkpt lat="42.13007" lon="9.14445">
        <ele>1109.02</ele>
        <time>2015-09-12T06:11:16Z</time>
      </trkpt>
      <trkpt lat="42.13021" lon="9.14444">
        <ele>1111.42</ele>
        <time>2015-09-12T06:11:37Z</time>
      </trkpt>
      <trkpt lat="42.13035" lon="9.14451">
        <ele>1112.86</ele>
        <time>2015-09-12T06:11:57Z</time>
      </trkpt>
      <trkpt lat="42.13049" lon="9.14452">
        <ele>1114.79</ele>
        <time>2015-09-12T06:12:19Z</time>
      </trkpt>
      <trkpt lat="42.13068" lon="9.14448">
        <ele>1116.23</ele>
        <time>2015-09-12T06:12:38Z</time>
      </trkpt>
      <trkpt lat="42.13083" lon="9.14444">
        <ele>1118.63</ele>
        <time>2015-09-12T06:12:59Z</time>
      </trkpt>
      <trkpt lat="42.13098" lon="9.14443">
        <ele>1121.03</ele>
        <time>2015-09-12T06:13:24Z</time>
      </trkpt>
      <trkpt lat="42.1311" lon="9.14442">
        <ele>1122.96</ele>
        <time>2015-09-12T06:13:42Z</time>
      </trkpt>
      <trkpt lat="42.13125" lon="9.14436">
        <ele>1125.36</ele>
        <time>2015-09-12T06:14:06Z</time>
      </trkpt>
      <trkpt lat="42.13137" lon="9.14435">
        <ele>1126.32</ele>
        <time>2015-09-12T06:14:24Z</time>
      </trkpt>
      <trkpt lat="42.13152" lon="9.14438">
        <ele>1128.24</ele>
        <time>2015-09-12T06:14:44Z</time>
      </trkpt>
      <trkpt lat="42.13167" lon="9.14458">
        <ele>1131.13</ele>
        <time>2015-09-12T06:15:08Z</time>
      </trkpt>
      <trkpt lat="42.1316" lon="9.14472">
        <ele>1134.01</ele>
        <time>2015-09-12T06:15:27Z</time>
      </trkpt>
      <trkpt lat="42.13146" lon="9.1448">
        <ele>1136.42</ele>
        <time>2015-09-12T06:15:48Z</time>
      </trkpt>
      <trkpt lat="42.13148" lon="9.14493">
        <ele>1138.82</ele>
        <time>2015-09-12T06:16:11Z</time>
      </trkpt>
      <trkpt lat="42.13145" lon="9.14506">
        <ele>1141.22</ele>
        <time>2015-09-12T06:16:30Z</time>
      </trkpt>
      <trkpt lat="42.13155" lon="9.14521">
        <ele>1143.63</ele>
        <time>2015-09-12T06:16:55Z</time>
      </trkpt>
      <trkpt lat="42.13147" lon="9.14536">
        <ele>1146.51</ele>
        <time>2015-09-12T06:17:18Z</time>
      </trkpt>
      <trkpt lat="42.13139" lon="9.14546">
        <ele>1148.91</ele>
        <time>2015-09-12T06:17:39Z</time>
      </trkpt>
      <trkpt lat="42.13127" lon="9.14555">
        <ele>1152.28</ele>
        <time>2015-09-12T06:18:03Z</time>
      </trkpt>
      <trkpt lat="42.13117" lon="9.14565">
        <ele>1155.64</ele>
        <time>2015-09-12T06:18:30Z</time>
      </trkpt>
      <trkpt lat="42.1312" lon="9.14575">
        <ele>1159.01</ele>
        <time>2015-09-12T06:18:53Z</time>
      </trkpt>
      <trkpt lat="42.13113" lon="9.1459">
        <ele>1161.89</ele>
        <time>2015-09-12T06:19:18Z</time>
      </trkpt>
      <trkpt lat="42.13111" lon="9.14601">
        <ele>1164.77</ele>
        <time>2015-09-12T06:19:37Z</time>
      </trkpt>
      <trkpt lat="42.13109" lon="9.14615">
        <ele>1167.66</ele>
        <time>2015-09-12T06:19:58Z</time>
      </trkpt>
      <trkpt lat="42.13099" lon="9.14626">
        <ele>1170.54</ele>
        <time>2015-09-12T06:20:21Z</time>
      </trkpt>
      <trkpt lat="42.13092" lon="9.1464">
        <ele>1173.43</ele>
        <time>2015-09-12T06:20:42Z</time>
      </trkpt>
      <trkpt lat="42.13087" lon="9.14654">
        <ele>1175.35</ele>
        <time>2015-09-12T06:21:01Z</time>
      </trkpt>
      <trkpt lat="42.13073" lon="9.14654">
        <ele>1177.75</ele>
        <time>2015-09-12T06:21:23Z</time>
      </trkpt>
      <trkpt lat="42.13062" lon="9.14654">
        <ele>1179.67</ele>
        <time>2015-09-12T06:21:41Z</time>
      </trkpt>
      <trkpt lat="42.13059" lon="9.14664">
        <ele>1182.56</ele>
        <time>2015-09-12T06:21:58Z</time>
      </trkpt>
      <trkpt lat="42.13055" lon="9.14681">
        <ele>1185.44</ele>
        <time>2015-09-12T06:22:20Z</time>
      </trkpt>
      <trkpt lat="42.13038" lon="9.14683">
        <ele>1187.85</ele>
        <time>2015-09-12T06:22:43Z</time>
      </trkpt>
      <trkpt lat="42.13019" lon="9.14684">
        <ele>1190.73</ele>
        <time>2015-09-12T06:23:07Z</time>
      </trkpt>
      <trkpt lat="42.13014" lon="9.14691">
        <ele>1194.09</ele>
        <time>2015-09-12T06:23:27Z</time>
      </trkpt>
      <trkpt lat="42.13014" lon="9.14704">
        <ele>1196.98</ele>
        <time>2015-09-12T06:23:48Z</time>
      </trkpt>
      <trkpt lat="42.13" lon="9.14711">
        <ele>1199.86</ele>
        <time>2015-09-12T06:24:10Z</time>
      </trkpt>
      <trkpt lat="42.12992" lon="9.14726">
        <ele>1202.27</ele>
        <time>2015-09-12T06:24:28Z</time>
      </trkpt>
      <trkpt lat="42.1298" lon="9.14729">
        <ele>1205.15</ele>
        <time>2015-09-12T06:24:50Z</time>
      </trkpt>
      <trkpt lat="42.12963" lon="9.14735">
        <ele>1206.11</ele>
        <time>2015-09-12T06:25:08Z</time>
      </trkpt>
      <trkpt lat="42.12952" lon="9.14743">
        <ele>1207.55</ele>
        <time>2015-09-12T06:25:25Z</time>
      </trkpt>
      <trkpt lat="42.1294" lon="9.14753">
        <ele>1208.51</ele>
        <time>2015-09-12T06:25:42Z</time>
      </trkpt>
      <trkpt lat="42.12933" lon="9.14762">
        <ele>1210.44</ele>
        <time>2015-09-12T06:26:00Z</time>
      </trkpt>
      <trkpt lat="42.1292" lon="9.14773">
        <ele>1211.4</ele>
        <time>2015-09-12T06:26:19Z</time>
      </trkpt>
      <trkpt lat="42.12907" lon="9.14777">
        <ele>1212.84</ele>
        <time>2015-09-12T06:26:37Z</time>
      </trkpt>
      <trkpt lat="42.12894" lon="9.14778">
        <ele>1213.8</ele>
        <time>2015-09-12T06:26:51Z</time>
      </trkpt>
      <trkpt lat="42.12878" lon="9.14782">
        <ele>1215.24</ele>
        <time>2015-09-12T06:27:07Z</time>
      </trkpt>
      <trkpt lat="42.12859" lon="9.14793">
        <ele>1218.13</ele>
        <time>2015-09-12T06:27:29Z</time>
      </trkpt>
      <trkpt lat="42.12847" lon="9.14813">
        <ele>1220.05</ele>
        <time>2015-09-12T06:27:53Z</time>
      </trkpt>
      <trkpt lat="42.12838" lon="9.14828">
        <ele>1222.93</ele>
        <time>2015-09-12T06:28:15Z</time>
      </trkpt>
      <trkpt lat="42.12827" lon="9.14837">
        <ele>1224.86</ele>
        <time>2015-09-12T06:28:33Z</time>
      </trkpt>
      <trkpt lat="42.12814" lon="9.14856">
        <ele>1227.74</ele>
        <time>2015-09-12T06:28:56Z</time>
      </trkpt>
      <trkpt lat="42.128" lon="9.14859">
        <ele>1230.14</ele>
        <time>2015-09-12T06:29:18Z</time>
      </trkpt>
      <trkpt lat="42.12785" lon="9.14848">
        <ele>1233.03</ele>
        <time>2015-09-12T06:29:41Z</time>
      </trkpt>
      <trkpt lat="42.12773" lon="9.14832">
        <ele>1234.95</ele>
        <time>2015-09-12T06:30:01Z</time>
      </trkpt>
      <trkpt lat="42.12768" lon="9.14828">
        <ele>1236.39</ele>
        <time>2015-09-12T06:30:15Z</time>
      </trkpt>
      <trkpt lat="42.12752" lon="9.14817">
        <ele>1238.8</ele>
        <time>2015-09-12T06:30:38Z</time>
      </trkpt>
      <trkpt lat="42.12735" lon="9.148">
        <ele>1240.72</ele>
        <time>2015-09-12T06:31:03Z</time>
      </trkpt>
      <trkpt lat="42.12725" lon="9.14788">
        <ele>1243.6</ele>
        <time>2015-09-12T06:31:25Z</time>
      </trkpt>
      <trkpt lat="42.12715" lon="9.1478">
        <ele>1246.01</ele>
        <time>2015-09-12T06:31:47Z</time>
      </trkpt>
      <trkpt lat="42.12699" lon="9.14768">
        <ele>1248.89</ele>
        <time>2015-09-12T06:32:12Z</time>
      </trkpt>
      <trkpt lat="42.12683" lon="9.1476">
        <ele>1252.25</ele>
        <time>2015-09-12T06:32:37Z</time>
      </trkpt>
      <trkpt lat="42.12674" lon="9.14748">
        <ele>1254.18</ele>
        <time>2015-09-12T06:32:57Z</time>
      </trkpt>
      <trkpt lat="42.12662" lon="9.14735">
        <ele>1256.58</ele>
        <time>2015-09-12T06:33:19Z</time>
      </trkpt>
      <trkpt lat="42.12652" lon="9.14713">
        <ele>1258.98</ele>
        <time>2015-09-12T06:33:44Z</time>
      </trkpt>
      <trkpt lat="42.12638" lon="9.14701">
        <ele>1262.35</ele>
        <time>2015-09-12T06:34:06Z</time>
      </trkpt>
      <trkpt lat="42.12628" lon="9.14682">
        <ele>1264.27</ele>
        <time>2015-09-12T06:34:29Z</time>
      </trkpt>
      <trkpt lat="42.12618" lon="9.14667">
        <ele>1266.67</ele>
        <time>2015-09-12T06:34:48Z</time>
      </trkpt>
      <trkpt lat="42.12614" lon="9.14668">
        <ele>1269.56</ele>
        <time>2015-09-12T06:35:11Z</time>
      </trkpt>
      <trkpt lat="42.12617" lon="9.14697">
        <ele>1271.48</ele>
        <time>2015-09-12T06:35:33Z</time>
      </trkpt>
      <trkpt lat="42.1262" lon="9.14721">
        <ele>1273.4</ele>
        <time>2015-09-12T06:35:54Z</time>
      </trkpt>
      <trkpt lat="42.12618" lon="9.1474">
        <ele>1275.33</ele>
        <time>2015-09-12T06:36:16Z</time>
      </trkpt>
      <trkpt lat="42.12601" lon="9.14765">
        <ele>1277.25</ele>
        <time>2015-09-12T06:36:40Z</time>
      </trkpt>
      <trkpt lat="42.12577" lon="9.14768">
        <ele>1279.65</ele>
        <time>2015-09-12T06:37:04Z</time>
      </trkpt>
      <trkpt lat="42.12569" lon="9.14774">
        <ele>1280.61</ele>
        <time>2015-09-12T06:37:28Z</time>
      </trkpt>
      <trkpt lat="42.12562" lon="9.14788">
        <ele>1283.02</ele>
        <time>2015-09-12T06:37:53Z</time>
      </trkpt>
      <trkpt lat="42.12548" lon="9.14806">
        <ele>1285.42</ele>
        <time>2015-09-12T06:38:18Z</time>
      </trkpt>
      <trkpt lat="42.1254" lon="9.1483">
        <ele>1287.82</ele>
        <time>2015-09-12T06:38:40Z</time>
      </trkpt>
      <trkpt lat="42.12523" lon="9.14856">
        <ele>1289.27</ele>
        <time>2015-09-12T06:39:02Z</time>
      </trkpt>
      <trkpt lat="42.12516" lon="9.14872">
        <ele>1291.19</ele>
        <time>2015-09-12T06:39:23Z</time>
      </trkpt>
      <trkpt lat="42.12514" lon="9.14892">
        <ele>1292.15</ele>
        <time>2015-09-12T06:39:42Z</time>
      </trkpt>
      <trkpt lat="42.1251" lon="9.14921">
        <ele>1293.11</ele>
        <time>2015-09-12T06:40:04Z</time>
      </trkpt>
      <trkpt lat="42.12502" lon="9.14941">
        <ele>1294.07</ele>
        <time>2015-09-12T06:40:25Z</time>
      </trkpt>
      <trkpt lat="42.12486" lon="9.14947">
        <ele>1295.03</ele>
        <time>2015-09-12T06:40:42Z</time>
      </trkpt>
      <trkpt lat="42.12462" lon="9.14955">
        <ele>1296.48</ele>
        <time>2015-09-12T06:41:04Z</time>
      </trkpt>
      <trkpt lat="42.12445" lon="9.14965">
        <ele>1298.88</ele>
        <time>2015-09-12T06:41:27Z</time>
      </trkpt>
      <trkpt lat="42.1243" lon="9.14978">
        <ele>1299.84</ele>
        <time>2015-09-12T06:41:50Z</time>
      </trkpt>
      <trkpt lat="42.12414" lon="9.14987">
        <ele>1301.28</ele>
        <time>2015-09-12T06:42:14Z</time>
      </trkpt>
      <trkpt lat="42.12385" lon="9.14982">
        <ele>1301.76</ele>
        <time>2015-09-12T06:42:37Z</time>
      </trkpt>
      <trkpt lat="42.12365" lon="9.14988">
        <ele>1301.76</ele>
        <time>2015-09-12T06:42:54Z</time>
      </trkpt>
      <trkpt lat="42.12344" lon="9.15">
        <ele>1301.76</ele>
        <time>2015-09-12T06:43:17Z</time>
      </trkpt>
      <trkpt lat="42.1233" lon="9.15004">
        <ele>1300.8</ele>
        <time>2015-09-12T06:43:35Z</time>
      </trkpt>
      <trkpt lat="42.12308" lon="9.15009">
        <ele>1300.32</ele>
        <time>2015-09-12T06:43:58Z</time>
      </trkpt>
      <trkpt lat="42.12292" lon="9.15007">
        <ele>1300.32</ele>
        <time>2015-09-12T06:44:16Z</time>
      </trkpt>
      <trkpt lat="42.12279" lon="9.14999">
        <ele>1301.76</ele>
        <time>2015-09-12T06:44:36Z</time>
      </trkpt>
      <trkpt lat="42.12259" lon="9.15008">
        <ele>1301.76</ele>
        <time>2015-09-12T06:44:54Z</time>
      </trkpt>
      <trkpt lat="42.12241" lon="9.15006">
        <ele>1300.32</ele>
        <time>2015-09-12T06:45:13Z</time>
      </trkpt>
      <trkpt lat="42.12221" lon="9.15009">
        <ele>1299.84</ele>
        <time>2015-09-12T06:45:32Z</time>
      </trkpt>
      <trkpt lat="42.12202" lon="9.15005">
        <ele>1299.36</ele>
        <time>2015-09-12T06:45:55Z</time>
      </trkpt>
      <trkpt lat="42.12189" lon="9.15013">
        <ele>1300.8</ele>
        <time>2015-09-12T06:46:16Z</time>
      </trkpt>
      <trkpt lat="42.12175" lon="9.15022">
        <ele>1302.72</ele>
        <time>2015-09-12T06:46:35Z</time>
      </trkpt>
      <trkpt lat="42.1216" lon="9.15032">
        <ele>1304.17</ele>
        <time>2015-09-12T06:46:55Z</time>
      </trkpt>
      <trkpt lat="42.12142" lon="9.15034">
        <ele>1304.65</ele>
        <time>2015-09-12T06:47:12Z</time>
      </trkpt>
      <trkpt lat="42.12131" lon="9.15024">
        <ele>1304.65</ele>
        <time>2015-09-12T06:47:32Z</time>
      </trkpt>
      <trkpt lat="42.12111" lon="9.15033">
        <ele>1306.57</ele>
        <time>2015-09-12T06:47:56Z</time>
      </trkpt>
      <trkpt lat="42.12094" lon="9.15046">
        <ele>1309.45</ele>
        <time>2015-09-12T06:48:19Z</time>
      </trkpt>
      <trkpt lat="42.12084" lon="9.15056">
        <ele>1311.86</ele>
        <time>2015-09-12T06:48:41Z</time>
      </trkpt>
      <trkpt lat="42.12071" lon="9.15066">
        <ele>1313.78</ele>
        <time>2015-09-12T06:49:02Z</time>
      </trkpt>
      <trkpt lat="42.12058" lon="9.15079">
        <ele>1316.18</ele>
        <time>2015-09-12T06:49:24Z</time>
      </trkpt>
      <trkpt lat="42.12038" lon="9.15082">
        <ele>1318.59</ele>
        <time>2015-09-12T06:49:46Z</time>
      </trkpt>
      <trkpt lat="42.12019" lon="9.15077">
        <ele>1321.47</ele>
        <time>2015-09-12T06:50:11Z</time>
      </trkpt>
      <trkpt lat="42.12006" lon="9.15073">
        <ele>1324.35</ele>
        <time>2015-09-12T06:50:34Z</time>
      </trkpt>
      <trkpt lat="42.12003" lon="9.15069">
        <ele>1327.72</ele>
        <time>2015-09-12T06:50:56Z</time>
      </trkpt>
      <trkpt lat="42.12018" lon="9.1506">
        <ele>1329.64</ele>
        <time>2015-09-12T06:51:18Z</time>
      </trkpt>
      <trkpt lat="42.12028" lon="9.15051">
        <ele>1331.56</ele>
        <time>2015-09-12T06:51:40Z</time>
      </trkpt>
      <trkpt lat="42.12034" lon="9.15035">
        <ele>1333.97</ele>
        <time>2015-09-12T06:52:03Z</time>
      </trkpt>
      <trkpt lat="42.12039" lon="9.15021">
        <ele>1336.37</ele>
        <time>2015-09-12T06:52:22Z</time>
      </trkpt>
      <trkpt lat="42.12041" lon="9.15008">
        <ele>1339.73</ele>
        <time>2015-09-12T06:52:47Z</time>
      </trkpt>
      <trkpt lat="42.12035" lon="9.15016">
        <ele>1342.14</ele>
        <time>2015-09-12T06:53:07Z</time>
      </trkpt>
      <trkpt lat="42.12026" lon="9.15017">
        <ele>1344.54</ele>
        <time>2015-09-12T06:53:31Z</time>
      </trkpt>
      <trkpt lat="42.12011" lon="9.15011">
        <ele>1347.91</ele>
        <time>2015-09-12T06:53:55Z</time>
      </trkpt>
      <trkpt lat="42.11996" lon="9.15011">
        <ele>1350.79</ele>
        <time>2015-09-12T06:54:21Z</time>
      </trkpt>
      <trkpt lat="42.11975" lon="9.15007">
        <ele>1353.19</ele>
        <time>2015-09-12T06:54:44Z</time>
      </trkpt>
      <trkpt lat="42.11962" lon="9.15004">
        <ele>1356.08</ele>
        <time>2015-09-12T06:55:09Z</time>
      </trkpt>
      <trkpt lat="42.11954" lon="9.15004">
        <ele>1358.96</ele>
        <time>2015-09-12T06:55:31Z</time>
      </trkpt>
      <trkpt lat="42.11938" lon="9.15">
        <ele>1361.36</ele>
        <time>2015-09-12T06:55:54Z</time>
      </trkpt>
      <trkpt lat="42.11926" lon="9.1499">
        <ele>1364.25</ele>
        <time>2015-09-12T06:56:19Z</time>
      </trkpt>
      <trkpt lat="42.11912" lon="9.14985">
        <ele>1367.13</ele>
        <time>2015-09-12T06:56:43Z</time>
      </trkpt>
      <trkpt lat="42.11905" lon="9.14984">
        <ele>1370.5</ele>
        <time>2015-09-12T06:57:07Z</time>
      </trkpt>
      <trkpt lat="42.11893" lon="9.14979">
        <ele>1372.42</ele>
        <time>2015-09-12T06:57:27Z</time>
      </trkpt>
      <trkpt lat="42.11873" lon="9.14974">
        <ele>1375.78</ele>
        <time>2015-09-12T06:57:52Z</time>
      </trkpt>
      <trkpt lat="42.11856" lon="9.14966">
        <ele>1377.71</ele>
        <time>2015-09-12T06:58:17Z</time>
      </trkpt>
      <trkpt lat="42.11843" lon="9.14981">
        <ele>1381.07</ele>
        <time>2015-09-12T06:58:41Z</time>
      </trkpt>
      <trkpt lat="42.11835" lon="9.14994">
        <ele>1382.51</ele>
        <time>2015-09-12T06:59:01Z</time>
      </trkpt>
      <trkpt lat="42.11828" lon="9.14985">
        <ele>1385.88</ele>
        <time>2015-09-12T06:59:20Z</time>
      </trkpt>
      <trkpt lat="42.11826" lon="9.14971">
        <ele>1386.84</ele>
        <time>2015-09-12T06:59:36Z</time>
      </trkpt>
      <trkpt lat="42.11828" lon="9.14948">
        <ele>1389.24</ele>
        <time>2015-09-12T06:59:58Z</time>
      </trkpt>
      <trkpt lat="42.11838" lon="9.14936">
        <ele>1391.17</ele>
        <time>2015-09-12T07:00:15Z</time>
      </trkpt>
      <trkpt lat="42.1186" lon="9.14924">
        <ele>1393.09</ele>
        <time>2015-09-12T07:00:38Z</time>
      </trkpt>
      <trkpt lat="42.1188" lon="9.14921">
        <ele>1394.53</ele>
        <time>2015-09-12T07:01:01Z</time>
      </trkpt>
      <trkpt lat="42.11887" lon="9.14916">
        <ele>1396.45</ele>
        <time>2015-09-12T07:01:23Z</time>
      </trkpt>
      <trkpt lat="42.11901" lon="9.14912">
        <ele>1398.37</ele>
        <time>2015-09-12T07:01:45Z</time>
      </trkpt>
      <trkpt lat="42.1191" lon="9.14906">
        <ele>1401.74</ele>
        <time>2015-09-12T07:02:07Z</time>
      </trkpt>
      <trkpt lat="42.11893" lon="9.14907">
        <ele>1403.66</ele>
        <time>2015-09-12T07:02:31Z</time>
      </trkpt>
      <trkpt lat="42.11882" lon="9.14902">
        <ele>1406.07</ele>
        <time>2015-09-12T07:02:52Z</time>
      </trkpt>
      <trkpt lat="42.1187" lon="9.149">
        <ele>1408.47</ele>
        <time>2015-09-12T07:03:14Z</time>
      </trkpt>
      <trkpt lat="42.1185" lon="9.14894">
        <ele>1410.87</ele>
        <time>2015-09-12T07:03:35Z</time>
      </trkpt>
      <trkpt lat="42.11837" lon="9.14894">
        <ele>1412.79</ele>
        <time>2015-09-12T07:03:58Z</time>
      </trkpt>
      <trkpt lat="42.11821" lon="9.14892">
        <ele>1415.2</ele>
        <time>2015-09-12T07:04:22Z</time>
      </trkpt>
      <trkpt lat="42.11811" lon="9.14888">
        <ele>1417.6</ele>
        <time>2015-09-12T07:04:45Z</time>
      </trkpt>
      <trkpt lat="42.11792" lon="9.14898">
        <ele>1420</ele>
        <time>2015-09-12T07:05:09Z</time>
      </trkpt>
      <trkpt lat="42.11786" lon="9.14909">
        <ele>1422.41</ele>
        <time>2015-09-12T07:05:32Z</time>
      </trkpt>
      <trkpt lat="42.11776" lon="9.1492">
        <ele>1424.33</ele>
        <time>2015-09-12T07:05:53Z</time>
      </trkpt>
      <trkpt lat="42.11766" lon="9.14939">
        <ele>1426.25</ele>
        <time>2015-09-12T07:06:14Z</time>
      </trkpt>
      <trkpt lat="42.11754" lon="9.14947">
        <ele>1428.18</ele>
        <time>2015-09-12T07:06:35Z</time>
      </trkpt>
      <trkpt lat="42.11737" lon="9.14964">
        <ele>1429.14</ele>
        <time>2015-09-12T07:06:54Z</time>
      </trkpt>
      <trkpt lat="42.11727" lon="9.14971">
        <ele>1431.06</ele>
        <time>2015-09-12T07:07:15Z</time>
      </trkpt>
      <trkpt lat="42.11717" lon="9.1499">
        <ele>1432.98</ele>
        <time>2015-09-12T07:07:36Z</time>
      </trkpt>
      <trkpt lat="42.11706" lon="9.15006">
        <ele>1434.91</ele>
        <time>2015-09-12T07:07:58Z</time>
      </trkpt>
      <trkpt lat="42.11697" lon="9.15017">
        <ele>1436.83</ele>
        <time>2015-09-12T07:08:17Z</time>
      </trkpt>
      <trkpt lat="42.1169" lon="9.1503">
        <ele>1439.23</ele>
        <time>2015-09-12T07:08:39Z</time>
      </trkpt>
      <trkpt lat="42.11685" lon="9.15047">
        <ele>1440.67</ele>
        <time>2015-09-12T07:09:01Z</time>
      </trkpt>
      <trkpt lat="42.1168" lon="9.15061">
        <ele>1443.08</ele>
        <time>2015-09-12T07:09:19Z</time>
      </trkpt>
      <trkpt lat="42.11671" lon="9.15056">
        <ele>1445.96</ele>
        <time>2015-09-12T07:09:43Z</time>
      </trkpt>
      <trkpt lat="42.11662" lon="9.15039">
        <ele>1447.88</ele>
        <time>2015-09-12T07:10:04Z</time>
      </trkpt>
      <trkpt lat="42.11658" lon="9.15022">
        <ele>1450.29</ele>
        <time>2015-09-12T07:10:27Z</time>
      </trkpt>
      <trkpt lat="42.11666" lon="9.15007">
        <ele>1452.69</ele>
        <time>2015-09-12T07:10:53Z</time>
      </trkpt>
      <trkpt lat="42.11667" lon="9.14989">
        <ele>1455.57</ele>
        <time>2015-09-12T07:11:14Z</time>
      </trkpt>
      <trkpt lat="42.11671" lon="9.14972">
        <ele>1457.5</ele>
        <time>2015-09-12T07:11:36Z</time>
      </trkpt>
      <trkpt lat="42.11679" lon="9.14954">
        <ele>1459.42</ele>
        <time>2015-09-12T07:11:59Z</time>
      </trkpt>
      <trkpt lat="42.11683" lon="9.14938">
        <ele>1461.82</ele>
        <time>2015-09-12T07:12:22Z</time>
      </trkpt>
      <trkpt lat="42.11693" lon="9.14919">
        <ele>1463.74</ele>
        <time>2015-09-12T07:12:43Z</time>
      </trkpt>
      <trkpt lat="42.11705" lon="9.14895">
        <ele>1464.71</ele>
        <time>2015-09-12T07:13:02Z</time>
      </trkpt>
      <trkpt lat="42.11711" lon="9.14884">
        <ele>1465.67</ele>
        <time>2015-09-12T07:13:18Z</time>
      </trkpt>
      <trkpt lat="42.11709" lon="9.1487">
        <ele>1467.59</ele>
        <time>2015-09-12T07:13:39Z</time>
      </trkpt>
      <trkpt lat="42.1171" lon="9.14882">
        <ele>1470.95</ele>
        <time>2015-09-12T07:13:59Z</time>
      </trkpt>
      <trkpt lat="42.11705" lon="9.14894">
        <ele>1473.36</ele>
        <time>2015-09-12T07:14:20Z</time>
      </trkpt>
      <trkpt lat="42.1169" lon="9.14908">
        <ele>1475.28</ele>
        <time>2015-09-12T07:14:40Z</time>
      </trkpt>
      <trkpt lat="42.11677" lon="9.14916">
        <ele>1477.2</ele>
        <time>2015-09-12T07:15:00Z</time>
      </trkpt>
      <trkpt lat="42.11666" lon="9.1493">
        <ele>1479.61</ele>
        <time>2015-09-12T07:15:21Z</time>
      </trkpt>
      <trkpt lat="42.11655" lon="9.1494">
        <ele>1482.01</ele>
        <time>2015-09-12T07:15:41Z</time>
      </trkpt>
      <trkpt lat="42.11645" lon="9.1495">
        <ele>1483.93</ele>
        <time>2015-09-12T07:15:59Z</time>
      </trkpt>
      <trkpt lat="42.11633" lon="9.14964">
        <ele>1485.85</ele>
        <time>2015-09-12T07:16:19Z</time>
      </trkpt>
      <trkpt lat="42.1162" lon="9.14975">
        <ele>1487.3</ele>
        <time>2015-09-12T07:16:42Z</time>
      </trkpt>
      <trkpt lat="42.116" lon="9.14997">
        <ele>1487.3</ele>
        <time>2015-09-12T07:17:00Z</time>
      </trkpt>
      <trkpt lat="42.11595" lon="9.15008">
        <ele>1489.7</ele>
        <time>2015-09-12T07:17:21Z</time>
      </trkpt>
      <trkpt lat="42.11589" lon="9.15014">
        <ele>1493.06</ele>
        <time>2015-09-12T07:17:40Z</time>
      </trkpt>
      <trkpt lat="42.11576" lon="9.15025">
        <ele>1494.51</ele>
        <time>2015-09-12T07:18:02Z</time>
      </trkpt>
      <trkpt lat="42.11564" lon="9.15029">
        <ele>1495.47</ele>
        <time>2015-09-12T07:18:27Z</time>
      </trkpt>
      <trkpt lat="42.11555" lon="9.15047">
        <ele>1496.43</ele>
        <time>2015-09-12T07:18:55Z</time>
      </trkpt>
      <trkpt lat="42.11567" lon="9.15037">
        <ele>1496.43</ele>
        <time>2015-09-12T07:19:27Z</time>
      </trkpt>
      <trkpt lat="42.11578" lon="9.15043">
        <ele>1496.43</ele>
        <time>2015-09-12T07:19:46Z</time>
      </trkpt>
      <trkpt lat="42.11587" lon="9.1505">
        <ele>1496.43</ele>
        <time>2015-09-12T07:20:35Z</time>
      </trkpt>
      <trkpt lat="42.1156" lon="9.15032">
        <ele>1496.43</ele>
        <time>2015-09-12T07:21:11Z</time>
      </trkpt>
      <trkpt lat="42.11576" lon="9.15051">
        <ele>1496.91</ele>
        <time>2015-09-12T07:21:47Z</time>
      </trkpt>
      <trkpt lat="42.11576" lon="9.15044">
        <ele>1497.39</ele>
        <time>2015-09-12T07:22:13Z</time>
      </trkpt>
      <trkpt lat="42.11579" lon="9.15044">
        <ele>1497.39</ele>
        <time>2015-09-12T07:22:44Z</time>
      </trkpt>
      <trkpt lat="42.11573" lon="9.15054">
        <ele>1497.87</ele>
        <time>2015-09-12T07:23:10Z</time>
      </trkpt>
      <trkpt lat="42.1157" lon="9.15056">
        <ele>1497.87</ele>
        <time>2015-09-12T07:23:33Z</time>
      </trkpt>
      <trkpt lat="42.11566" lon="9.15058">
        <ele>1499.79</ele>
        <time>2015-09-12T07:23:58Z</time>
      </trkpt>
      <trkpt lat="42.11554" lon="9.15073">
        <ele>1502.2</ele>
        <time>2015-09-12T07:24:24Z</time>
      </trkpt>
      <trkpt lat="42.11548" lon="9.15086">
        <ele>1504.6</ele>
        <time>2015-09-12T07:24:44Z</time>
      </trkpt>
      <trkpt lat="42.11542" lon="9.15098">
        <ele>1506.52</ele>
        <time>2015-09-12T07:25:04Z</time>
      </trkpt>
      <trkpt lat="42.11531" lon="9.15112">
        <ele>1507.97</ele>
        <time>2015-09-12T07:25:26Z</time>
      </trkpt>
      <trkpt lat="42.11519" lon="9.15123">
        <ele>1509.89</ele>
        <time>2015-09-12T07:25:46Z</time>
      </trkpt>
      <trkpt lat="42.1151" lon="9.15134">
        <ele>1511.33</ele>
        <time>2015-09-12T07:26:06Z</time>
      </trkpt>
      <trkpt lat="42.115" lon="9.15144">
        <ele>1513.25</ele>
        <time>2015-09-12T07:26:22Z</time>
      </trkpt>
      <trkpt lat="42.1149" lon="9.15153">
        <ele>1514.69</ele>
        <time>2015-09-12T07:26:41Z</time>
      </trkpt>
      <trkpt lat="42.11483" lon="9.15164">
        <ele>1516.62</ele>
        <time>2015-09-12T07:27:00Z</time>
      </trkpt>
      <trkpt lat="42.11476" lon="9.15177">
        <ele>1518.54</ele>
        <time>2015-09-12T07:27:18Z</time>
      </trkpt>
      <trkpt lat="42.11471" lon="9.1519">
        <ele>1520.46</ele>
        <time>2015-09-12T07:27:35Z</time>
      </trkpt>
      <trkpt lat="42.11465" lon="9.15203">
        <ele>1521.9</ele>
        <time>2015-09-12T07:27:52Z</time>
      </trkpt>
      <trkpt lat="42.1146" lon="9.15218">
        <ele>1523.35</ele>
        <time>2015-09-12T07:28:10Z</time>
      </trkpt>
      <trkpt lat="42.11456" lon="9.15229">
        <ele>1525.27</ele>
        <time>2015-09-12T07:28:29Z</time>
      </trkpt>
      <trkpt lat="42.11451" lon="9.15244">
        <ele>1527.19</ele>
        <time>2015-09-12T07:28:49Z</time>
      </trkpt>
      <trkpt lat="42.11454" lon="9.15258">
        <ele>1528.63</ele>
        <time>2015-09-12T07:29:05Z</time>
      </trkpt>
      <trkpt lat="42.11457" lon="9.15269">
        <ele>1530.08</ele>
        <time>2015-09-12T07:29:20Z</time>
      </trkpt>
      <trkpt lat="42.11464" lon="9.15286">
        <ele>1531.52</ele>
        <time>2015-09-12T07:29:36Z</time>
      </trkpt>
      <trkpt lat="42.1147" lon="9.15297">
        <ele>1532.96</ele>
        <time>2015-09-12T07:29:52Z</time>
      </trkpt>
      <trkpt lat="42.1147" lon="9.15305">
        <ele>1533.92</ele>
        <time>2015-09-12T07:30:21Z</time>
      </trkpt>
      <trkpt lat="42.11471" lon="9.15306">
        <ele>1534.4</ele>
        <time>2015-09-12T07:30:23Z</time>
      </trkpt>
      <trkpt lat="42.11479" lon="9.1532">
        <ele>1535.84</ele>
        <time>2015-09-12T07:30:39Z</time>
      </trkpt>
      <trkpt lat="42.11487" lon="9.15331">
        <ele>1537.77</ele>
        <time>2015-09-12T07:30:56Z</time>
      </trkpt>
      <trkpt lat="42.11485" lon="9.15341">
        <ele>1540.17</ele>
        <time>2015-09-12T07:31:12Z</time>
      </trkpt>
      <trkpt lat="42.1147" lon="9.15343">
        <ele>1542.57</ele>
        <time>2015-09-12T07:31:35Z</time>
      </trkpt>
      <trkpt lat="42.1146" lon="9.15342">
        <ele>1544.98</ele>
        <time>2015-09-12T07:31:55Z</time>
      </trkpt>
      <trkpt lat="42.11448" lon="9.15338">
        <ele>1546.9</ele>
        <time>2015-09-12T07:32:13Z</time>
      </trkpt>
      <trkpt lat="42.11437" lon="9.1534">
        <ele>1548.82</ele>
        <time>2015-09-12T07:32:31Z</time>
      </trkpt>
      <trkpt lat="42.11428" lon="9.15335">
        <ele>1550.74</ele>
        <time>2015-09-12T07:32:47Z</time>
      </trkpt>
      <trkpt lat="42.1142" lon="9.15331">
        <ele>1552.67</ele>
        <time>2015-09-12T07:33:05Z</time>
      </trkpt>
      <trkpt lat="42.11409" lon="9.15327">
        <ele>1555.07</ele>
        <time>2015-09-12T07:33:27Z</time>
      </trkpt>
      <trkpt lat="42.11407" lon="9.15332">
        <ele>1556.99</ele>
        <time>2015-09-12T07:33:45Z</time>
      </trkpt>
      <trkpt lat="42.11414" lon="9.15343">
        <ele>1557.95</ele>
        <time>2015-09-12T07:34:00Z</time>
      </trkpt>
      <trkpt lat="42.11423" lon="9.15355">
        <ele>1559.4</ele>
        <time>2015-09-12T07:34:18Z</time>
      </trkpt>
      <trkpt lat="42.11427" lon="9.15365">
        <ele>1560.84</ele>
        <time>2015-09-12T07:34:32Z</time>
      </trkpt>
      <trkpt lat="42.11433" lon="9.15374">
        <ele>1561.8</ele>
        <time>2015-09-12T07:34:43Z</time>
      </trkpt>
      <trkpt lat="42.1144" lon="9.15383">
        <ele>1563.24</ele>
        <time>2015-09-12T07:34:57Z</time>
      </trkpt>
      <trkpt lat="42.11445" lon="9.15393">
        <ele>1565.16</ele>
        <time>2015-09-12T07:35:12Z</time>
      </trkpt>
      <trkpt lat="42.11441" lon="9.15401">
        <ele>1568.05</ele>
        <time>2015-09-12T07:35:30Z</time>
      </trkpt>
      <trkpt lat="42.11432" lon="9.154">
        <ele>1569.97</ele>
        <time>2015-09-12T07:35:49Z</time>
      </trkpt>
      <trkpt lat="42.11421" lon="9.15397">
        <ele>1572.37</ele>
        <time>2015-09-12T07:36:07Z</time>
      </trkpt>
      <trkpt lat="42.11412" lon="9.15395">
        <ele>1574.78</ele>
        <time>2015-09-12T07:36:28Z</time>
      </trkpt>
      <trkpt lat="42.11402" lon="9.15396">
        <ele>1577.18</ele>
        <time>2015-09-12T07:36:48Z</time>
      </trkpt>
      <trkpt lat="42.11407" lon="9.15404">
        <ele>1579.1</ele>
        <time>2015-09-12T07:37:07Z</time>
      </trkpt>
      <trkpt lat="42.1141" lon="9.15413">
        <ele>1581.99</ele>
        <time>2015-09-12T07:37:25Z</time>
      </trkpt>
      <trkpt lat="42.11413" lon="9.1542">
        <ele>1583.91</ele>
        <time>2015-09-12T07:37:43Z</time>
      </trkpt>
      <trkpt lat="42.11418" lon="9.1543">
        <ele>1586.31</ele>
        <time>2015-09-12T07:38:02Z</time>
      </trkpt>
      <trkpt lat="42.11419" lon="9.15438">
        <ele>1588.72</ele>
        <time>2015-09-12T07:38:18Z</time>
      </trkpt>
      <trkpt lat="42.11423" lon="9.15445">
        <ele>1589.68</ele>
        <time>2015-09-12T07:38:31Z</time>
      </trkpt>
      <trkpt lat="42.11425" lon="9.15448">
        <ele>1589.68</ele>
        <time>2015-09-12T07:38:35Z</time>
      </trkpt>
      <trkpt lat="42.11435" lon="9.1546">
        <ele>1590.16</ele>
        <time>2015-09-12T07:38:55Z</time>
      </trkpt>
      <trkpt lat="42.1144" lon="9.15472">
        <ele>1590.64</ele>
        <time>2015-09-12T07:39:13Z</time>
      </trkpt>
      <trkpt lat="42.11444" lon="9.15479">
        <ele>1593.52</ele>
        <time>2015-09-12T07:39:29Z</time>
      </trkpt>
      <trkpt lat="42.11446" lon="9.1549">
        <ele>1594.96</ele>
        <time>2015-09-12T07:39:46Z</time>
      </trkpt>
      <trkpt lat="42.1145" lon="9.15501">
        <ele>1596.89</ele>
        <time>2015-09-12T07:40:02Z</time>
      </trkpt>
      <trkpt lat="42.11452" lon="9.15512">
        <ele>1598.81</ele>
        <time>2015-09-12T07:40:21Z</time>
      </trkpt>
      <trkpt lat="42.11455" lon="9.15524">
        <ele>1600.73</ele>
        <time>2015-09-12T07:40:39Z</time>
      </trkpt>
      <trkpt lat="42.11459" lon="9.15537">
        <ele>1602.66</ele>
        <time>2015-09-12T07:40:58Z</time>
      </trkpt>
      <trkpt lat="42.1146" lon="9.15546">
        <ele>1605.06</ele>
        <time>2015-09-12T07:41:14Z</time>
      </trkpt>
      <trkpt lat="42.11464" lon="9.1556">
        <ele>1606.02</ele>
        <time>2015-09-12T07:41:33Z</time>
      </trkpt>
      <trkpt lat="42.11465" lon="9.15575">
        <ele>1607.46</ele>
        <time>2015-09-12T07:41:51Z</time>
      </trkpt>
      <trkpt lat="42.11465" lon="9.15587">
        <ele>1609.86</ele>
        <time>2015-09-12T07:42:08Z</time>
      </trkpt>
      <trkpt lat="42.11462" lon="9.15603">
        <ele>1611.79</ele>
        <time>2015-09-12T07:42:27Z</time>
      </trkpt>
      <trkpt lat="42.11458" lon="9.15616">
        <ele>1614.19</ele>
        <time>2015-09-12T07:42:45Z</time>
      </trkpt>
      <trkpt lat="42.11454" lon="9.1563">
        <ele>1617.07</ele>
        <time>2015-09-12T07:43:05Z</time>
      </trkpt>
      <trkpt lat="42.1145" lon="9.15641">
        <ele>1619</ele>
        <time>2015-09-12T07:43:25Z</time>
      </trkpt>
      <trkpt lat="42.11453" lon="9.15653">
        <ele>1620.92</ele>
        <time>2015-09-12T07:43:41Z</time>
      </trkpt>
      <trkpt lat="42.11447" lon="9.15665">
        <ele>1622.84</ele>
        <time>2015-09-12T07:43:59Z</time>
      </trkpt>
      <trkpt lat="42.11438" lon="9.15675">
        <ele>1625.25</ele>
        <time>2015-09-12T07:44:18Z</time>
      </trkpt>
      <trkpt lat="42.11433" lon="9.15688">
        <ele>1628.13</ele>
        <time>2015-09-12T07:44:34Z</time>
      </trkpt>
      <trkpt lat="42.11422" lon="9.15696">
        <ele>1630.05</ele>
        <time>2015-09-12T07:44:51Z</time>
      </trkpt>
      <trkpt lat="42.11416" lon="9.15706">
        <ele>1631.01</ele>
        <time>2015-09-12T07:45:01Z</time>
      </trkpt>
      <trkpt lat="42.11411" lon="9.1572">
        <ele>1632.46</ele>
        <time>2015-09-12T07:45:17Z</time>
      </trkpt>
      <trkpt lat="42.11405" lon="9.15732">
        <ele>1632.46</ele>
        <time>2015-09-12T07:45:33Z</time>
      </trkpt>
      <trkpt lat="42.11404" lon="9.15736">
        <ele>1632.46</ele>
        <time>2015-09-12T07:45:50Z</time>
      </trkpt>
      <trkpt lat="42.11403" lon="9.15737">
        <ele>1632.94</ele>
        <time>2015-09-12T07:46:16Z</time>
      </trkpt>
      <trkpt lat="42.11404" lon="9.15736">
        <ele>1633.42</ele>
        <time>2015-09-12T07:46:40Z</time>
      </trkpt>
      <trkpt lat="42.11405" lon="9.15736">
        <ele>1633.42</ele>
        <time>2015-09-12T07:47:02Z</time>
      </trkpt>
      <trkpt lat="42.11404" lon="9.15737">
        <ele>1633.42</ele>
        <time>2015-09-12T07:47:24Z</time>
      </trkpt>
      <trkpt lat="42.11403" lon="9.15737">
        <ele>1633.9</ele>
        <time>2015-09-12T07:47:41Z</time>
      </trkpt>
      <trkpt lat="42.11403" lon="9.15738">
        <ele>1633.42</ele>
        <time>2015-09-12T07:48:12Z</time>
      </trkpt>
      <trkpt lat="42.11403" lon="9.15736">
        <ele>1633.9</ele>
        <time>2015-09-12T07:48:45Z</time>
      </trkpt>
      <trkpt lat="42.11404" lon="9.15737">
        <ele>1633.9</ele>
        <time>2015-09-12T07:49:34Z</time>
      </trkpt>
      <trkpt lat="42.11404" lon="9.15737">
        <ele>1634.38</ele>
        <time>2015-09-12T07:50:20Z</time>
      </trkpt>
      <trkpt lat="42.11404" lon="9.15737">
        <ele>1633.42</ele>
        <time>2015-09-12T07:51:11Z</time>
      </trkpt>
      <trkpt lat="42.11403" lon="9.15737">
        <ele>1633.42</ele>
        <time>2015-09-12T07:51:55Z</time>
      </trkpt>
      <trkpt lat="42.11405" lon="9.15735">
        <ele>1633.9</ele>
        <time>2015-09-12T07:52:31Z</time>
      </trkpt>
      <trkpt lat="42.11407" lon="9.15737">
        <ele>1633.9</ele>
        <time>2015-09-12T07:52:52Z</time>
      </trkpt>
      <trkpt lat="42.11405" lon="9.15738">
        <ele>1633.9</ele>
        <time>2015-09-12T07:53:20Z</time>
      </trkpt>
      <trkpt lat="42.11405" lon="9.15741">
        <ele>1633.9</ele>
        <time>2015-09-12T07:53:38Z</time>
      </trkpt>
      <trkpt lat="42.11401" lon="9.15752">
        <ele>1631.98</ele>
        <time>2015-09-12T07:53:52Z</time>
      </trkpt>
      <trkpt lat="42.11396" lon="9.15763">
        <ele>1630.53</ele>
        <time>2015-09-12T07:54:08Z</time>
      </trkpt>
      <trkpt lat="42.1139" lon="9.15767">
        <ele>1628.61</ele>
        <time>2015-09-12T07:54:20Z</time>
      </trkpt>
      <trkpt lat="42.11379" lon="9.15769">
        <ele>1627.17</ele>
        <time>2015-09-12T07:54:37Z</time>
      </trkpt>
      <trkpt lat="42.1137" lon="9.15775">
        <ele>1625.25</ele>
        <time>2015-09-12T07:54:54Z</time>
      </trkpt>
      <trkpt lat="42.11356" lon="9.15777">
        <ele>1622.36</ele>
        <time>2015-09-12T07:55:14Z</time>
      </trkpt>
      <trkpt lat="42.11341" lon="9.15779">
        <ele>1620.44</ele>
        <time>2015-09-12T07:55:32Z</time>
      </trkpt>
      <trkpt lat="42.11332" lon="9.15783">
        <ele>1618.52</ele>
        <time>2015-09-12T07:55:52Z</time>
      </trkpt>
      <trkpt lat="42.11322" lon="9.15785">
        <ele>1617.56</ele>
        <time>2015-09-12T07:56:07Z</time>
      </trkpt>
      <trkpt lat="42.11307" lon="9.15788">
        <ele>1615.15</ele>
        <time>2015-09-12T07:56:28Z</time>
      </trkpt>
      <trkpt lat="42.11294" lon="9.15792">
        <ele>1613.23</ele>
        <time>2015-09-12T07:56:45Z</time>
      </trkpt>
      <trkpt lat="42.11279" lon="9.15799">
        <ele>1610.35</ele>
        <time>2015-09-12T07:57:07Z</time>
      </trkpt>
      <trkpt lat="42.11277" lon="9.15799">
        <ele>1609.86</ele>
        <time>2015-09-12T07:57:11Z</time>
      </trkpt>
      <trkpt lat="42.1127" lon="9.15802">
        <ele>1608.42</ele>
        <time>2015-09-12T07:57:18Z</time>
      </trkpt>
      <trkpt lat="42.11254" lon="9.15803">
        <ele>1606.5</ele>
        <time>2015-09-12T07:57:37Z</time>
      </trkpt>
      <trkpt lat="42.11239" lon="9.15808">
        <ele>1604.1</ele>
        <time>2015-09-12T07:57:54Z</time>
      </trkpt>
      <trkpt lat="42.11224" lon="9.15809">
        <ele>1602.17</ele>
        <time>2015-09-12T07:58:11Z</time>
      </trkpt>
      <trkpt lat="42.11209" lon="9.1581">
        <ele>1599.77</ele>
        <time>2015-09-12T07:58:29Z</time>
      </trkpt>
      <trkpt lat="42.11193" lon="9.15804">
        <ele>1597.85</ele>
        <time>2015-09-12T07:58:48Z</time>
      </trkpt>
      <trkpt lat="42.11181" lon="9.15794">
        <ele>1595.93</ele>
        <time>2015-09-12T07:59:05Z</time>
      </trkpt>
      <trkpt lat="42.11167" lon="9.15786">
        <ele>1592.56</ele>
        <time>2015-09-12T07:59:23Z</time>
      </trkpt>
      <trkpt lat="42.11156" lon="9.15781">
        <ele>1589.68</ele>
        <time>2015-09-12T07:59:41Z</time>
      </trkpt>
      <trkpt lat="42.11145" lon="9.15774">
        <ele>1586.79</ele>
        <time>2015-09-12T08:00:02Z</time>
      </trkpt>
      <trkpt lat="42.11139" lon="9.15774">
        <ele>1584.87</ele>
        <time>2015-09-12T08:00:20Z</time>
      </trkpt>
      <trkpt lat="42.11123" lon="9.15764">
        <ele>1581.99</ele>
        <time>2015-09-12T08:00:43Z</time>
      </trkpt>
      <trkpt lat="42.11113" lon="9.15757">
        <ele>1579.58</ele>
        <time>2015-09-12T08:01:03Z</time>
      </trkpt>
      <trkpt lat="42.11103" lon="9.15755">
        <ele>1576.7</ele>
        <time>2015-09-12T08:01:20Z</time>
      </trkpt>
      <trkpt lat="42.1109" lon="9.15737">
        <ele>1574.78</ele>
        <time>2015-09-12T08:01:41Z</time>
      </trkpt>
      <trkpt lat="42.11082" lon="9.15727">
        <ele>1574.3</ele>
        <time>2015-09-12T08:01:59Z</time>
      </trkpt>
      <trkpt lat="42.11067" lon="9.15715">
        <ele>1572.85</ele>
        <time>2015-09-12T08:02:20Z</time>
      </trkpt>
      <trkpt lat="42.11056" lon="9.1571">
        <ele>1571.89</ele>
        <time>2015-09-12T08:02:36Z</time>
      </trkpt>
      <trkpt lat="42.11037" lon="9.15703">
        <ele>1570.45</ele>
        <time>2015-09-12T08:02:58Z</time>
      </trkpt>
      <trkpt lat="42.11021" lon="9.15696">
        <ele>1569.01</ele>
        <time>2015-09-12T08:03:19Z</time>
      </trkpt>
      <trkpt lat="42.11002" lon="9.1569">
        <ele>1567.57</ele>
        <time>2015-09-12T08:03:38Z</time>
      </trkpt>
      <trkpt lat="42.10992" lon="9.15681">
        <ele>1566.61</ele>
        <time>2015-09-12T08:04:00Z</time>
      </trkpt>
      <trkpt lat="42.10982" lon="9.15681">
        <ele>1565.64</ele>
        <time>2015-09-12T08:04:17Z</time>
      </trkpt>
      <trkpt lat="42.10966" lon="9.15681">
        <ele>1564.2</ele>
        <time>2015-09-12T08:04:39Z</time>
      </trkpt>
      <trkpt lat="42.10956" lon="9.15685">
        <ele>1563.24</ele>
        <time>2015-09-12T08:04:58Z</time>
      </trkpt>
      <trkpt lat="42.10947" lon="9.15699">
        <ele>1561.8</ele>
        <time>2015-09-12T08:05:15Z</time>
      </trkpt>
      <trkpt lat="42.10942" lon="9.15705">
        <ele>1561.32</ele>
        <time>2015-09-12T08:05:23Z</time>
      </trkpt>
      <trkpt lat="42.10938" lon="9.15711">
        <ele>1560.84</ele>
        <time>2015-09-12T08:05:28Z</time>
      </trkpt>
      <trkpt lat="42.10924" lon="9.15726">
        <ele>1558.92</ele>
        <time>2015-09-12T08:05:48Z</time>
      </trkpt>
      <trkpt lat="42.10915" lon="9.15744">
        <ele>1556.99</ele>
        <time>2015-09-12T08:06:07Z</time>
      </trkpt>
      <trkpt lat="42.10911" lon="9.15759">
        <ele>1554.59</ele>
        <time>2015-09-12T08:06:27Z</time>
      </trkpt>
      <trkpt lat="42.10905" lon="9.15777">
        <ele>1552.67</ele>
        <time>2015-09-12T08:06:46Z</time>
      </trkpt>
      <trkpt lat="42.10897" lon="9.15797">
        <ele>1551.22</ele>
        <time>2015-09-12T08:07:06Z</time>
      </trkpt>
      <trkpt lat="42.10878" lon="9.15805">
        <ele>1550.26</ele>
        <time>2015-09-12T08:07:26Z</time>
      </trkpt>
      <trkpt lat="42.10867" lon="9.15805">
        <ele>1548.34</ele>
        <time>2015-09-12T08:07:42Z</time>
      </trkpt>
      <trkpt lat="42.1086" lon="9.15815">
        <ele>1547.86</ele>
        <time>2015-09-12T08:08:04Z</time>
      </trkpt>
      <trkpt lat="42.1086" lon="9.15833">
        <ele>1547.86</ele>
        <time>2015-09-12T08:08:21Z</time>
      </trkpt>
      <trkpt lat="42.10864" lon="9.15849">
        <ele>1547.86</ele>
        <time>2015-09-12T08:08:37Z</time>
      </trkpt>
      <trkpt lat="42.10866" lon="9.15859">
        <ele>1548.82</ele>
        <time>2015-09-12T08:08:47Z</time>
      </trkpt>
      <trkpt lat="42.10863" lon="9.15874">
        <ele>1549.3</ele>
        <time>2015-09-12T08:09:03Z</time>
      </trkpt>
      <trkpt lat="42.1085" lon="9.15888">
        <ele>1550.26</ele>
        <time>2015-09-12T08:09:24Z</time>
      </trkpt>
      <trkpt lat="42.10851" lon="9.15903">
        <ele>1551.22</ele>
        <time>2015-09-12T08:09:36Z</time>
      </trkpt>
      <trkpt lat="42.10853" lon="9.15926">
        <ele>1551.22</ele>
        <time>2015-09-12T08:09:53Z</time>
      </trkpt>
      <trkpt lat="42.10852" lon="9.15947">
        <ele>1551.22</ele>
        <time>2015-09-12T08:10:11Z</time>
      </trkpt>
      <trkpt lat="42.10844" lon="9.15966">
        <ele>1551.22</ele>
        <time>2015-09-12T08:10:29Z</time>
      </trkpt>
      <trkpt lat="42.10841" lon="9.15981">
        <ele>1550.74</ele>
        <time>2015-09-12T08:10:47Z</time>
      </trkpt>
      <trkpt lat="42.10839" lon="9.15999">
        <ele>1551.22</ele>
        <time>2015-09-12T08:11:04Z</time>
      </trkpt>
      <trkpt lat="42.10835" lon="9.16021">
        <ele>1551.71</ele>
        <time>2015-09-12T08:11:27Z</time>
      </trkpt>
      <trkpt lat="42.10834" lon="9.16037">
        <ele>1552.19</ele>
        <time>2015-09-12T08:11:45Z</time>
      </trkpt>
      <trkpt lat="42.10834" lon="9.16054">
        <ele>1552.19</ele>
        <time>2015-09-12T08:12:04Z</time>
      </trkpt>
      <trkpt lat="42.10832" lon="9.16072">
        <ele>1552.19</ele>
        <time>2015-09-12T08:12:21Z</time>
      </trkpt>
      <trkpt lat="42.10833" lon="9.16094">
        <ele>1552.19</ele>
        <time>2015-09-12T08:12:40Z</time>
      </trkpt>
      <trkpt lat="42.10835" lon="9.16112">
        <ele>1552.19</ele>
        <time>2015-09-12T08:12:59Z</time>
      </trkpt>
      <trkpt lat="42.10838" lon="9.16133">
        <ele>1552.67</ele>
        <time>2015-09-12T08:13:18Z</time>
      </trkpt>
      <trkpt lat="42.1084" lon="9.16151">
        <ele>1553.15</ele>
        <time>2015-09-12T08:13:37Z</time>
      </trkpt>
      <trkpt lat="42.10841" lon="9.16167">
        <ele>1554.11</ele>
        <time>2015-09-12T08:13:57Z</time>
      </trkpt>
      <trkpt lat="42.10842" lon="9.16182">
        <ele>1554.11</ele>
        <time>2015-09-12T08:14:16Z</time>
      </trkpt>
      <trkpt lat="42.10844" lon="9.16196">
        <ele>1554.11</ele>
        <time>2015-09-12T08:14:31Z</time>
      </trkpt>
      <trkpt lat="42.10841" lon="9.16216">
        <ele>1554.11</ele>
        <time>2015-09-12T08:14:51Z</time>
      </trkpt>
      <trkpt lat="42.10836" lon="9.16236">
        <ele>1554.11</ele>
        <time>2015-09-12T08:15:10Z</time>
      </trkpt>
      <trkpt lat="42.10839" lon="9.16252">
        <ele>1554.11</ele>
        <time>2015-09-12T08:15:26Z</time>
      </trkpt>
      <trkpt lat="42.10843" lon="9.1626">
        <ele>1554.11</ele>
        <time>2015-09-12T08:15:45Z</time>
      </trkpt>
      <trkpt lat="42.10849" lon="9.16274">
        <ele>1553.15</ele>
        <time>2015-09-12T08:16:06Z</time>
      </trkpt>
      <trkpt lat="42.10863" lon="9.16288">
        <ele>1552.19</ele>
        <time>2015-09-12T08:16:28Z</time>
      </trkpt>
      <trkpt lat="42.1087" lon="9.16311">
        <ele>1552.19</ele>
        <time>2015-09-12T08:16:48Z</time>
      </trkpt>
      <trkpt lat="42.10872" lon="9.1633">
        <ele>1552.19</ele>
        <time>2015-09-12T08:17:06Z</time>
      </trkpt>
      <trkpt lat="42.10873" lon="9.16343">
        <ele>1552.19</ele>
        <time>2015-09-12T08:17:20Z</time>
      </trkpt>
      <trkpt lat="42.10872" lon="9.16348">
        <ele>1552.19</ele>
        <time>2015-09-12T08:17:41Z</time>
      </trkpt>
      <trkpt lat="42.10872" lon="9.16366">
        <ele>1551.71</ele>
        <time>2015-09-12T08:17:58Z</time>
      </trkpt>
      <trkpt lat="42.10874" lon="9.16382">
        <ele>1550.26</ele>
        <time>2015-09-12T08:18:15Z</time>
      </trkpt>
      <trkpt lat="42.10877" lon="9.16399">
        <ele>1548.34</ele>
        <time>2015-09-12T08:18:33Z</time>
      </trkpt>
      <trkpt lat="42.10877" lon="9.16412">
        <ele>1546.42</ele>
        <time>2015-09-12T08:18:51Z</time>
      </trkpt>
      <trkpt lat="42.1088" lon="9.16429">
        <ele>1545.94</ele>
        <time>2015-09-12T08:19:08Z</time>
      </trkpt>
      <trkpt lat="42.10886" lon="9.16445">
        <ele>1544.98</ele>
        <time>2015-09-12T08:19:22Z</time>
      </trkpt>
      <trkpt lat="42.10886" lon="9.16449">
        <ele>1544.98</ele>
        <time>2015-09-12T08:19:48Z</time>
      </trkpt>
      <trkpt lat="42.1089" lon="9.16458">
        <ele>1543.53</ele>
        <time>2015-09-12T08:20:06Z</time>
      </trkpt>
      <trkpt lat="42.10893" lon="9.16471">
        <ele>1542.09</ele>
        <time>2015-09-12T08:20:21Z</time>
      </trkpt>
      <trkpt lat="42.10895" lon="9.16485">
        <ele>1541.13</ele>
        <time>2015-09-12T08:20:37Z</time>
      </trkpt>
      <trkpt lat="42.10894" lon="9.16503">
        <ele>1540.17</ele>
        <time>2015-09-12T08:20:55Z</time>
      </trkpt>
      <trkpt lat="42.10894" lon="9.16522">
        <ele>1539.21</ele>
        <time>2015-09-12T08:21:13Z</time>
      </trkpt>
      <trkpt lat="42.10897" lon="9.16544">
        <ele>1538.73</ele>
        <time>2015-09-12T08:21:32Z</time>
      </trkpt>
      <trkpt lat="42.10904" lon="9.16564">
        <ele>1540.17</ele>
        <time>2015-09-12T08:21:51Z</time>
      </trkpt>
      <trkpt lat="42.10909" lon="9.16579">
        <ele>1541.13</ele>
        <time>2015-09-12T08:22:11Z</time>
      </trkpt>
      <trkpt lat="42.10913" lon="9.166">
        <ele>1541.61</ele>
        <time>2015-09-12T08:22:30Z</time>
      </trkpt>
      <trkpt lat="42.1092" lon="9.16617">
        <ele>1541.61</ele>
        <time>2015-09-12T08:22:50Z</time>
      </trkpt>
      <trkpt lat="42.10924" lon="9.16624">
        <ele>1541.61</ele>
        <time>2015-09-12T08:23:20Z</time>
      </trkpt>
      <trkpt lat="42.10926" lon="9.16639">
        <ele>1541.61</ele>
        <time>2015-09-12T08:23:36Z</time>
      </trkpt>
      <trkpt lat="42.10929" lon="9.16647">
        <ele>1542.09</ele>
        <time>2015-09-12T08:23:43Z</time>
      </trkpt>
      <trkpt lat="42.1093" lon="9.16649">
        <ele>1542.09</ele>
        <time>2015-09-12T08:23:45Z</time>
      </trkpt>
      <trkpt lat="42.10933" lon="9.16667">
        <ele>1543.05</ele>
        <time>2015-09-12T08:24:01Z</time>
      </trkpt>
      <trkpt lat="42.10937" lon="9.16685">
        <ele>1543.53</ele>
        <time>2015-09-12T08:24:17Z</time>
      </trkpt>
      <trkpt lat="42.10938" lon="9.16689">
        <ele>1543.53</ele>
        <time>2015-09-12T08:24:20Z</time>
      </trkpt>
      <trkpt lat="42.1094" lon="9.16704">
        <ele>1543.53</ele>
        <time>2015-09-12T08:24:33Z</time>
      </trkpt>
      <trkpt lat="42.10937" lon="9.16723">
        <ele>1543.53</ele>
        <time>2015-09-12T08:24:47Z</time>
      </trkpt>
      <trkpt lat="42.10935" lon="9.1674">
        <ele>1544.01</ele>
        <time>2015-09-12T08:25:03Z</time>
      </trkpt>
      <trkpt lat="42.10933" lon="9.16763">
        <ele>1544.01</ele>
        <time>2015-09-12T08:25:20Z</time>
      </trkpt>
      <trkpt lat="42.10929" lon="9.16781">
        <ele>1544.01</ele>
        <time>2015-09-12T08:25:37Z</time>
      </trkpt>
      <trkpt lat="42.10926" lon="9.16797">
        <ele>1544.01</ele>
        <time>2015-09-12T08:25:53Z</time>
      </trkpt>
      <trkpt lat="42.10923" lon="9.16809">
        <ele>1544.01</ele>
        <time>2015-09-12T08:26:04Z</time>
      </trkpt>
      <trkpt lat="42.10912" lon="9.16821">
        <ele>1544.01</ele>
        <time>2015-09-12T08:26:21Z</time>
      </trkpt>
      <trkpt lat="42.10905" lon="9.16812">
        <ele>1544.01</ele>
        <time>2015-09-12T08:26:36Z</time>
      </trkpt>
      <trkpt lat="42.10895" lon="9.16805">
        <ele>1544.5</ele>
        <time>2015-09-12T08:26:53Z</time>
      </trkpt>
      <trkpt lat="42.10887" lon="9.16799">
        <ele>1545.94</ele>
        <time>2015-09-12T08:27:12Z</time>
      </trkpt>
      <trkpt lat="42.10876" lon="9.16792">
        <ele>1545.46</ele>
        <time>2015-09-12T08:27:33Z</time>
      </trkpt>
      <trkpt lat="42.10864" lon="9.16779">
        <ele>1543.53</ele>
        <time>2015-09-12T08:27:54Z</time>
      </trkpt>
      <trkpt lat="42.10849" lon="9.16768">
        <ele>1542.57</ele>
        <time>2015-09-12T08:28:13Z</time>
      </trkpt>
      <trkpt lat="42.10835" lon="9.16762">
        <ele>1540.65</ele>
        <time>2015-09-12T08:28:32Z</time>
      </trkpt>
      <trkpt lat="42.10824" lon="9.16754">
        <ele>1540.17</ele>
        <time>2015-09-12T08:28:49Z</time>
      </trkpt>
      <trkpt lat="42.10814" lon="9.16749">
        <ele>1538.73</ele>
        <time>2015-09-12T08:29:06Z</time>
      </trkpt>
      <trkpt lat="42.10805" lon="9.16741">
        <ele>1536.8</ele>
        <time>2015-09-12T08:29:25Z</time>
      </trkpt>
      <trkpt lat="42.10794" lon="9.1673">
        <ele>1535.84</ele>
        <time>2015-09-12T08:29:45Z</time>
      </trkpt>
      <trkpt lat="42.10774" lon="9.16722">
        <ele>1534.88</ele>
        <time>2015-09-12T08:30:05Z</time>
      </trkpt>
      <trkpt lat="42.10757" lon="9.16717">
        <ele>1532.96</ele>
        <time>2015-09-12T08:30:27Z</time>
      </trkpt>
      <trkpt lat="42.10744" lon="9.16729">
        <ele>1530.56</ele>
        <time>2015-09-12T08:30:48Z</time>
      </trkpt>
      <trkpt lat="42.10731" lon="9.16733">
        <ele>1530.08</ele>
        <time>2015-09-12T08:31:07Z</time>
      </trkpt>
      <trkpt lat="42.1072" lon="9.16747">
        <ele>1529.59</ele>
        <time>2015-09-12T08:31:29Z</time>
      </trkpt>
      <trkpt lat="42.10714" lon="9.16756">
        <ele>1526.23</ele>
        <time>2015-09-12T08:31:46Z</time>
      </trkpt>
      <trkpt lat="42.10699" lon="9.16755">
        <ele>1525.75</ele>
        <time>2015-09-12T08:32:05Z</time>
      </trkpt>
      <trkpt lat="42.10689" lon="9.16755">
        <ele>1525.75</ele>
        <time>2015-09-12T08:32:23Z</time>
      </trkpt>
      <trkpt lat="42.10679" lon="9.16754">
        <ele>1524.31</ele>
        <time>2015-09-12T08:32:43Z</time>
      </trkpt>
      <trkpt lat="42.10664" lon="9.16757">
        <ele>1521.9</ele>
        <time>2015-09-12T08:33:08Z</time>
      </trkpt>
      <trkpt lat="42.10651" lon="9.16755">
        <ele>1520.94</ele>
        <time>2015-09-12T08:33:29Z</time>
      </trkpt>
      <trkpt lat="42.10646" lon="9.16758">
        <ele>1520.46</ele>
        <time>2015-09-12T08:33:54Z</time>
      </trkpt>
      <trkpt lat="42.10643" lon="9.16748">
        <ele>1519.98</ele>
        <time>2015-09-12T08:34:22Z</time>
      </trkpt>
      <trkpt lat="42.10644" lon="9.1675">
        <ele>1519.98</ele>
        <time>2015-09-12T08:34:45Z</time>
      </trkpt>
      <trkpt lat="42.10638" lon="9.16752">
        <ele>1519.5</ele>
        <time>2015-09-12T08:35:10Z</time>
      </trkpt>
      <trkpt lat="42.10631" lon="9.16756">
        <ele>1519.02</ele>
        <time>2015-09-12T08:35:23Z</time>
      </trkpt>
      <trkpt lat="42.10628" lon="9.16765">
        <ele>1516.62</ele>
        <time>2015-09-12T08:35:37Z</time>
      </trkpt>
      <trkpt lat="42.10622" lon="9.16783">
        <ele>1515.18</ele>
        <time>2015-09-12T08:35:53Z</time>
      </trkpt>
      <trkpt lat="42.10615" lon="9.16799">
        <ele>1512.77</ele>
        <time>2015-09-12T08:36:12Z</time>
      </trkpt>
      <trkpt lat="42.10608" lon="9.16819">
        <ele>1511.33</ele>
        <time>2015-09-12T08:36:32Z</time>
      </trkpt>
      <trkpt lat="42.10597" lon="9.16832">
        <ele>1510.85</ele>
        <time>2015-09-12T08:36:49Z</time>
      </trkpt>
      <trkpt lat="42.10588" lon="9.16852">
        <ele>1507.48</ele>
        <time>2015-09-12T08:37:07Z</time>
      </trkpt>
      <trkpt lat="42.10582" lon="9.16876">
        <ele>1505.56</ele>
        <time>2015-09-12T08:37:30Z</time>
      </trkpt>
      <trkpt lat="42.1058" lon="9.16895">
        <ele>1504.12</ele>
        <time>2015-09-12T08:37:49Z</time>
      </trkpt>
      <trkpt lat="42.10573" lon="9.16907">
        <ele>1503.16</ele>
        <time>2015-09-12T08:38:06Z</time>
      </trkpt>
      <trkpt lat="42.10563" lon="9.16923">
        <ele>1502.68</ele>
        <time>2015-09-12T08:38:22Z</time>
      </trkpt>
      <trkpt lat="42.10556" lon="9.16938">
        <ele>1503.64</ele>
        <time>2015-09-12T08:38:38Z</time>
      </trkpt>
      <trkpt lat="42.10547" lon="9.16953">
        <ele>1504.6</ele>
        <time>2015-09-12T08:38:58Z</time>
      </trkpt>
      <trkpt lat="42.10536" lon="9.16971">
        <ele>1506.52</ele>
        <time>2015-09-12T08:39:18Z</time>
      </trkpt>
      <trkpt lat="42.10525" lon="9.16991">
        <ele>1507.48</ele>
        <time>2015-09-12T08:39:37Z</time>
      </trkpt>
      <trkpt lat="42.10515" lon="9.17004">
        <ele>1509.89</ele>
        <time>2015-09-12T08:39:57Z</time>
      </trkpt>
      <trkpt lat="42.10505" lon="9.17024">
        <ele>1510.37</ele>
        <time>2015-09-12T08:40:16Z</time>
      </trkpt>
      <trkpt lat="42.10495" lon="9.17036">
        <ele>1511.33</ele>
        <time>2015-09-12T08:40:36Z</time>
      </trkpt>
      <trkpt lat="42.10479" lon="9.17052">
        <ele>1511.81</ele>
        <time>2015-09-12T08:40:57Z</time>
      </trkpt>
      <trkpt lat="42.10463" lon="9.17075">
        <ele>1512.29</ele>
        <time>2015-09-12T08:41:20Z</time>
      </trkpt>
      <trkpt lat="42.10454" lon="9.17092">
        <ele>1512.77</ele>
        <time>2015-09-12T08:41:39Z</time>
      </trkpt>
      <trkpt lat="42.10444" lon="9.17101">
        <ele>1512.77</ele>
        <time>2015-09-12T08:41:49Z</time>
      </trkpt>
      <trkpt lat="42.10428" lon="9.17112">
        <ele>1512.77</ele>
        <time>2015-09-12T08:42:04Z</time>
      </trkpt>
      <trkpt lat="42.10407" lon="9.17124">
        <ele>1512.29</ele>
        <time>2015-09-12T08:42:25Z</time>
      </trkpt>
      <trkpt lat="42.10391" lon="9.17136">
        <ele>1510.85</ele>
        <time>2015-09-12T08:42:48Z</time>
      </trkpt>
      <trkpt lat="42.10373" lon="9.17153">
        <ele>1510.85</ele>
        <time>2015-09-12T08:43:10Z</time>
      </trkpt>
      <trkpt lat="42.10362" lon="9.17165">
        <ele>1509.41</ele>
        <time>2015-09-12T08:43:26Z</time>
      </trkpt>
      <trkpt lat="42.10345" lon="9.17176">
        <ele>1509.41</ele>
        <time>2015-09-12T08:43:43Z</time>
      </trkpt>
      <trkpt lat="42.10331" lon="9.17191">
        <ele>1508.93</ele>
        <time>2015-09-12T08:44:01Z</time>
      </trkpt>
      <trkpt lat="42.10314" lon="9.17213">
        <ele>1508.93</ele>
        <time>2015-09-12T08:44:21Z</time>
      </trkpt>
      <trkpt lat="42.10298" lon="9.17233">
        <ele>1509.89</ele>
        <time>2015-09-12T08:44:41Z</time>
      </trkpt>
      <trkpt lat="42.10285" lon="9.17245">
        <ele>1509.89</ele>
        <time>2015-09-12T08:44:56Z</time>
      </trkpt>
      <trkpt lat="42.10276" lon="9.17251">
        <ele>1509.89</ele>
        <time>2015-09-12T08:45:07Z</time>
      </trkpt>
      <trkpt lat="42.1026" lon="9.17252">
        <ele>1509.89</ele>
        <time>2015-09-12T08:45:26Z</time>
      </trkpt>
      <trkpt lat="42.10261" lon="9.1725">
        <ele>1509.89</ele>
        <time>2015-09-12T08:45:39Z</time>
      </trkpt>
      <trkpt lat="42.10255" lon="9.17229">
        <ele>1509.89</ele>
        <time>2015-09-12T08:45:57Z</time>
      </trkpt>
      <trkpt lat="42.10252" lon="9.17205">
        <ele>1510.37</ele>
        <time>2015-09-12T08:46:15Z</time>
      </trkpt>
      <trkpt lat="42.10252" lon="9.17188">
        <ele>1511.33</ele>
        <time>2015-09-12T08:46:34Z</time>
      </trkpt>
      <trkpt lat="42.10251" lon="9.17169">
        <ele>1512.29</ele>
        <time>2015-09-12T08:46:51Z</time>
      </trkpt>
      <trkpt lat="42.10252" lon="9.17149">
        <ele>1513.25</ele>
        <time>2015-09-12T08:47:10Z</time>
      </trkpt>
      <trkpt lat="42.1025" lon="9.17124">
        <ele>1514.69</ele>
        <time>2015-09-12T08:47:29Z</time>
      </trkpt>
      <trkpt lat="42.10254" lon="9.171">
        <ele>1515.18</ele>
        <time>2015-09-12T08:47:48Z</time>
      </trkpt>
      <trkpt lat="42.1026" lon="9.17079">
        <ele>1516.14</ele>
        <time>2015-09-12T08:48:09Z</time>
      </trkpt>
      <trkpt lat="42.10264" lon="9.17061">
        <ele>1518.06</ele>
        <time>2015-09-12T08:48:28Z</time>
      </trkpt>
      <trkpt lat="42.10271" lon="9.17042">
        <ele>1519.98</ele>
        <time>2015-09-12T08:48:50Z</time>
      </trkpt>
      <trkpt lat="42.10282" lon="9.17017">
        <ele>1521.42</ele>
        <time>2015-09-12T08:49:14Z</time>
      </trkpt>
      <trkpt lat="42.10291" lon="9.16989">
        <ele>1521.42</ele>
        <time>2015-09-12T08:49:35Z</time>
      </trkpt>
      <trkpt lat="42.10294" lon="9.16977">
        <ele>1522.87</ele>
        <time>2015-09-12T08:49:50Z</time>
      </trkpt>
      <trkpt lat="42.10302" lon="9.16969">
        <ele>1523.83</ele>
        <time>2015-09-12T08:50:08Z</time>
      </trkpt>
      <trkpt lat="42.10314" lon="9.16949">
        <ele>1524.79</ele>
        <time>2015-09-12T08:50:30Z</time>
      </trkpt>
      <trkpt lat="42.10316" lon="9.16934">
        <ele>1525.27</ele>
        <time>2015-09-12T08:50:47Z</time>
      </trkpt>
      <trkpt lat="42.10337" lon="9.16915">
        <ele>1526.71</ele>
        <time>2015-09-12T08:51:10Z</time>
      </trkpt>
      <trkpt lat="42.10353" lon="9.16898">
        <ele>1527.67</ele>
        <time>2015-09-12T08:51:29Z</time>
      </trkpt>
      <trkpt lat="42.1036" lon="9.16884">
        <ele>1528.63</ele>
        <time>2015-09-12T08:51:47Z</time>
      </trkpt>
      <trkpt lat="42.1036" lon="9.16859">
        <ele>1528.63</ele>
        <time>2015-09-12T08:52:06Z</time>
      </trkpt>
      <trkpt lat="42.1037" lon="9.16838">
        <ele>1528.63</ele>
        <time>2015-09-12T08:52:27Z</time>
      </trkpt>
      <trkpt lat="42.10378" lon="9.16812">
        <ele>1529.11</ele>
        <time>2015-09-12T08:52:50Z</time>
      </trkpt>
      <trkpt lat="42.10385" lon="9.16781">
        <ele>1530.56</ele>
        <time>2015-09-12T08:53:12Z</time>
      </trkpt>
      <trkpt lat="42.1039" lon="9.16761">
        <ele>1531.52</ele>
        <time>2015-09-12T08:53:34Z</time>
      </trkpt>
      <trkpt lat="42.10399" lon="9.16748">
        <ele>1532</ele>
        <time>2015-09-12T08:53:53Z</time>
      </trkpt>
      <trkpt lat="42.10401" lon="9.16733">
        <ele>1532.96</ele>
        <time>2015-09-12T08:54:05Z</time>
      </trkpt>
      <trkpt lat="42.10402" lon="9.16715">
        <ele>1533.92</ele>
        <time>2015-09-12T08:54:22Z</time>
      </trkpt>
      <trkpt lat="42.1041" lon="9.167">
        <ele>1535.36</ele>
        <time>2015-09-12T08:54:41Z</time>
      </trkpt>
      <trkpt lat="42.10413" lon="9.16675">
        <ele>1536.32</ele>
        <time>2015-09-12T08:55:01Z</time>
      </trkpt>
      <trkpt lat="42.1042" lon="9.16664">
        <ele>1536.32</ele>
        <time>2015-09-12T08:55:19Z</time>
      </trkpt>
      <trkpt lat="42.10423" lon="9.16644">
        <ele>1536.32</ele>
        <time>2015-09-12T08:55:40Z</time>
      </trkpt>
      <trkpt lat="42.10419" lon="9.1663">
        <ele>1535.36</ele>
        <time>2015-09-12T08:55:50Z</time>
      </trkpt>
      <trkpt lat="42.10418" lon="9.16621">
        <ele>1535.36</ele>
        <time>2015-09-12T08:55:55Z</time>
      </trkpt>
      <trkpt lat="42.10405" lon="9.16606">
        <ele>1535.36</ele>
        <time>2015-09-12T08:56:10Z</time>
      </trkpt>
      <trkpt lat="42.10392" lon="9.16598">
        <ele>1534.4</ele>
        <time>2015-09-12T08:56:27Z</time>
      </trkpt>
      <trkpt lat="42.10387" lon="9.16596">
        <ele>1533.92</ele>
        <time>2015-09-12T08:56:31Z</time>
      </trkpt>
      <trkpt lat="42.1038" lon="9.16592">
        <ele>1533.44</ele>
        <time>2015-09-12T08:56:36Z</time>
      </trkpt>
      <trkpt lat="42.10372" lon="9.16587">
        <ele>1533.44</ele>
        <time>2015-09-12T08:56:45Z</time>
      </trkpt>
      <trkpt lat="42.10358" lon="9.1658">
        <ele>1532.96</ele>
        <time>2015-09-12T08:57:02Z</time>
      </trkpt>
      <trkpt lat="42.10346" lon="9.16569">
        <ele>1532</ele>
        <time>2015-09-12T08:57:20Z</time>
      </trkpt>
      <trkpt lat="42.10328" lon="9.16561">
        <ele>1531.04</ele>
        <time>2015-09-12T08:57:39Z</time>
      </trkpt>
      <trkpt lat="42.10315" lon="9.16558">
        <ele>1531.04</ele>
        <time>2015-09-12T08:57:58Z</time>
      </trkpt>
      <trkpt lat="42.103" lon="9.16558">
        <ele>1532.48</ele>
        <time>2015-09-12T08:58:15Z</time>
      </trkpt>
      <trkpt lat="42.1029" lon="9.16561">
        <ele>1533.92</ele>
        <time>2015-09-12T08:58:30Z</time>
      </trkpt>
      <trkpt lat="42.10285" lon="9.16546">
        <ele>1535.84</ele>
        <time>2015-09-12T08:58:47Z</time>
      </trkpt>
      <trkpt lat="42.10283" lon="9.16535">
        <ele>1538.73</ele>
        <time>2015-09-12T08:59:10Z</time>
      </trkpt>
      <trkpt lat="42.1028" lon="9.16525">
        <ele>1541.61</ele>
        <time>2015-09-12T08:59:30Z</time>
      </trkpt>
      <trkpt lat="42.10274" lon="9.16512">
        <ele>1543.05</ele>
        <time>2015-09-12T08:59:49Z</time>
      </trkpt>
      <trkpt lat="42.10272" lon="9.1649">
        <ele>1544.5</ele>
        <time>2015-09-12T09:00:10Z</time>
      </trkpt>
      <trkpt lat="42.10261" lon="9.16462">
        <ele>1544.98</ele>
        <time>2015-09-12T09:00:34Z</time>
      </trkpt>
      <trkpt lat="42.10253" lon="9.16453">
        <ele>1544.98</ele>
        <time>2015-09-12T09:00:48Z</time>
      </trkpt>
      <trkpt lat="42.10249" lon="9.16453">
        <ele>1544.01</ele>
        <time>2015-09-12T09:00:53Z</time>
      </trkpt>
      <trkpt lat="42.1024" lon="9.16441">
        <ele>1543.53</ele>
        <time>2015-09-12T09:01:09Z</time>
      </trkpt>
      <trkpt lat="42.10231" lon="9.16414">
        <ele>1542.09</ele>
        <time>2015-09-12T09:01:27Z</time>
      </trkpt>
      <trkpt lat="42.10229" lon="9.16384">
        <ele>1539.21</ele>
        <time>2015-09-12T09:01:47Z</time>
      </trkpt>
      <trkpt lat="42.10227" lon="9.16351">
        <ele>1537.77</ele>
        <time>2015-09-12T09:02:09Z</time>
      </trkpt>
      <trkpt lat="42.10223" lon="9.16326">
        <ele>1536.8</ele>
        <time>2015-09-12T09:02:33Z</time>
      </trkpt>
      <trkpt lat="42.10227" lon="9.16301">
        <ele>1536.32</ele>
        <time>2015-09-12T09:02:56Z</time>
      </trkpt>
      <trkpt lat="42.10216" lon="9.16285">
        <ele>1535.84</ele>
        <time>2015-09-12T09:03:15Z</time>
      </trkpt>
      <trkpt lat="42.10212" lon="9.16267">
        <ele>1535.84</ele>
        <time>2015-09-12T09:03:31Z</time>
      </trkpt>
      <trkpt lat="42.10206" lon="9.1624">
        <ele>1535.36</ele>
        <time>2015-09-12T09:03:51Z</time>
      </trkpt>
      <trkpt lat="42.1021" lon="9.16223">
        <ele>1533.92</ele>
        <time>2015-09-12T09:04:07Z</time>
      </trkpt>
      <trkpt lat="42.10209" lon="9.16214">
        <ele>1532.96</ele>
        <time>2015-09-12T09:04:25Z</time>
      </trkpt>
      <trkpt lat="42.10205" lon="9.16214">
        <ele>1532.48</ele>
        <time>2015-09-12T09:04:39Z</time>
      </trkpt>
      <trkpt lat="42.10194" lon="9.16212">
        <ele>1532.48</ele>
        <time>2015-09-12T09:04:58Z</time>
      </trkpt>
      <trkpt lat="42.10186" lon="9.162">
        <ele>1532.48</ele>
        <time>2015-09-12T09:05:17Z</time>
      </trkpt>
      <trkpt lat="42.10172" lon="9.16188">
        <ele>1532.48</ele>
        <time>2015-09-12T09:05:33Z</time>
      </trkpt>
      <trkpt lat="42.10148" lon="9.16181">
        <ele>1532</ele>
        <time>2015-09-12T09:05:51Z</time>
      </trkpt>
      <trkpt lat="42.10134" lon="9.16185">
        <ele>1532</ele>
        <time>2015-09-12T09:06:12Z</time>
      </trkpt>
      <trkpt lat="42.10124" lon="9.16192">
        <ele>1532</ele>
        <time>2015-09-12T09:06:33Z</time>
      </trkpt>
      <trkpt lat="42.10113" lon="9.16181">
        <ele>1531.04</ele>
        <time>2015-09-12T09:06:51Z</time>
      </trkpt>
      <trkpt lat="42.10111" lon="9.16177">
        <ele>1531.04</ele>
        <time>2015-09-12T09:06:55Z</time>
      </trkpt>
      <trkpt lat="42.10099" lon="9.16165">
        <ele>1532.96</ele>
        <time>2015-09-12T09:07:12Z</time>
      </trkpt>
      <trkpt lat="42.10096" lon="9.16164">
        <ele>1532</ele>
        <time>2015-09-12T09:07:23Z</time>
      </trkpt>
      <trkpt lat="42.10091" lon="9.16153">
        <ele>1531.52</ele>
        <time>2015-09-12T09:07:31Z</time>
      </trkpt>
      <trkpt lat="42.10085" lon="9.16135">
        <ele>1531.52</ele>
        <time>2015-09-12T09:07:48Z</time>
      </trkpt>
      <trkpt lat="42.10085" lon="9.16097">
        <ele>1531.52</ele>
        <time>2015-09-12T09:08:11Z</time>
      </trkpt>
      <trkpt lat="42.10086" lon="9.16077">
        <ele>1532.48</ele>
        <time>2015-09-12T09:08:31Z</time>
      </trkpt>
      <trkpt lat="42.10085" lon="9.16076">
        <ele>1532.48</ele>
        <time>2015-09-12T09:08:32Z</time>
      </trkpt>
      <trkpt lat="42.10084" lon="9.16049">
        <ele>1532.48</ele>
        <time>2015-09-12T09:08:54Z</time>
      </trkpt>
      <trkpt lat="42.10083" lon="9.16027">
        <ele>1531.52</ele>
        <time>2015-09-12T09:09:14Z</time>
      </trkpt>
      <trkpt lat="42.10076" lon="9.16004">
        <ele>1530.56</ele>
        <time>2015-09-12T09:09:32Z</time>
      </trkpt>
      <trkpt lat="42.1007" lon="9.15985">
        <ele>1530.08</ele>
        <time>2015-09-12T09:09:49Z</time>
      </trkpt>
      <trkpt lat="42.10065" lon="9.15963">
        <ele>1529.59</ele>
        <time>2015-09-12T09:10:10Z</time>
      </trkpt>
      <trkpt lat="42.10068" lon="9.15951">
        <ele>1531.04</ele>
        <time>2015-09-12T09:10:27Z</time>
      </trkpt>
      <trkpt lat="42.10067" lon="9.15939">
        <ele>1531.52</ele>
        <time>2015-09-12T09:10:47Z</time>
      </trkpt>
      <trkpt lat="42.10049" lon="9.1592">
        <ele>1529.59</ele>
        <time>2015-09-12T09:11:05Z</time>
      </trkpt>
      <trkpt lat="42.10038" lon="9.15901">
        <ele>1529.11</ele>
        <time>2015-09-12T09:11:21Z</time>
      </trkpt>
      <trkpt lat="42.10032" lon="9.15887">
        <ele>1528.63</ele>
        <time>2015-09-12T09:11:41Z</time>
      </trkpt>
      <trkpt lat="42.10031" lon="9.15862">
        <ele>1528.63</ele>
        <time>2015-09-12T09:12:00Z</time>
      </trkpt>
      <trkpt lat="42.10024" lon="9.15854">
        <ele>1528.15</ele>
        <time>2015-09-12T09:12:21Z</time>
      </trkpt>
      <trkpt lat="42.10007" lon="9.15848">
        <ele>1530.56</ele>
        <time>2015-09-12T09:12:41Z</time>
      </trkpt>
      <trkpt lat="42.09999" lon="9.15831">
        <ele>1531.04</ele>
        <time>2015-09-12T09:13:01Z</time>
      </trkpt>
      <trkpt lat="42.09982" lon="9.15833">
        <ele>1531.52</ele>
        <time>2015-09-12T09:13:20Z</time>
      </trkpt>
      <trkpt lat="42.09972" lon="9.15826">
        <ele>1532.48</ele>
        <time>2015-09-12T09:13:36Z</time>
      </trkpt>
      <trkpt lat="42.0996" lon="9.15815">
        <ele>1533.92</ele>
        <time>2015-09-12T09:13:56Z</time>
      </trkpt>
      <trkpt lat="42.09948" lon="9.15804">
        <ele>1533.92</ele>
        <time>2015-09-12T09:14:15Z</time>
      </trkpt>
      <trkpt lat="42.09936" lon="9.15782">
        <ele>1535.84</ele>
        <time>2015-09-12T09:14:35Z</time>
      </trkpt>
      <trkpt lat="42.09925" lon="9.15771">
        <ele>1535.84</ele>
        <time>2015-09-12T09:14:55Z</time>
      </trkpt>
      <trkpt lat="42.09915" lon="9.15762">
        <ele>1536.32</ele>
        <time>2015-09-12T09:15:12Z</time>
      </trkpt>
      <trkpt lat="42.09904" lon="9.1575">
        <ele>1536.8</ele>
        <time>2015-09-12T09:15:28Z</time>
      </trkpt>
      <trkpt lat="42.09889" lon="9.15732">
        <ele>1536.8</ele>
        <time>2015-09-12T09:15:46Z</time>
      </trkpt>
      <trkpt lat="42.09885" lon="9.15722">
        <ele>1535.84</ele>
        <time>2015-09-12T09:15:55Z</time>
      </trkpt>
      <trkpt lat="42.09873" lon="9.15713">
        <ele>1535.84</ele>
        <time>2015-09-12T09:16:12Z</time>
      </trkpt>
      <trkpt lat="42.09871" lon="9.15711">
        <ele>1535.84</ele>
        <time>2015-09-12T09:16:14Z</time>
      </trkpt>
      <trkpt lat="42.09857" lon="9.15704">
        <ele>1534.4</ele>
        <time>2015-09-12T09:16:30Z</time>
      </trkpt>
      <trkpt lat="42.09846" lon="9.15693">
        <ele>1533.44</ele>
        <time>2015-09-12T09:16:47Z</time>
      </trkpt>
      <trkpt lat="42.09832" lon="9.15683">
        <ele>1532</ele>
        <time>2015-09-12T09:17:03Z</time>
      </trkpt>
      <trkpt lat="42.09822" lon="9.15664">
        <ele>1531.04</ele>
        <time>2015-09-12T09:17:20Z</time>
      </trkpt>
      <trkpt lat="42.09819" lon="9.15647">
        <ele>1531.04</ele>
        <time>2015-09-12T09:17:32Z</time>
      </trkpt>
      <trkpt lat="42.09819" lon="9.15619">
        <ele>1531.04</ele>
        <time>2015-09-12T09:17:50Z</time>
      </trkpt>
      <trkpt lat="42.09816" lon="9.15603">
        <ele>1531.04</ele>
        <time>2015-09-12T09:18:06Z</time>
      </trkpt>
      <trkpt lat="42.09808" lon="9.15599">
        <ele>1531.04</ele>
        <time>2015-09-12T09:18:22Z</time>
      </trkpt>
      <trkpt lat="42.09798" lon="9.15589">
        <ele>1532.96</ele>
        <time>2015-09-12T09:18:38Z</time>
      </trkpt>
      <trkpt lat="42.09785" lon="9.15585">
        <ele>1533.44</ele>
        <time>2015-09-12T09:18:54Z</time>
      </trkpt>
      <trkpt lat="42.09778" lon="9.1558">
        <ele>1533.92</ele>
        <time>2015-09-12T09:19:10Z</time>
      </trkpt>
      <trkpt lat="42.09776" lon="9.15577">
        <ele>1533.92</ele>
        <time>2015-09-12T09:19:16Z</time>
      </trkpt>
      <trkpt lat="42.09768" lon="9.1557">
        <ele>1534.88</ele>
        <time>2015-09-12T09:19:31Z</time>
      </trkpt>
      <trkpt lat="42.09761" lon="9.15557">
        <ele>1536.32</ele>
        <time>2015-09-12T09:19:47Z</time>
      </trkpt>
      <trkpt lat="42.09753" lon="9.15544">
        <ele>1537.29</ele>
        <time>2015-09-12T09:20:02Z</time>
      </trkpt>
      <trkpt lat="42.09746" lon="9.15529">
        <ele>1537.77</ele>
        <time>2015-09-12T09:20:17Z</time>
      </trkpt>
      <trkpt lat="42.09734" lon="9.15514">
        <ele>1537.77</ele>
        <time>2015-09-12T09:20:35Z</time>
      </trkpt>
      <trkpt lat="42.09726" lon="9.1552">
        <ele>1538.25</ele>
        <time>2015-09-12T09:20:53Z</time>
      </trkpt>
      <trkpt lat="42.09716" lon="9.15526">
        <ele>1539.69</ele>
        <time>2015-09-12T09:21:08Z</time>
      </trkpt>
      <trkpt lat="42.09705" lon="9.15523">
        <ele>1539.69</ele>
        <time>2015-09-12T09:21:22Z</time>
      </trkpt>
      <trkpt lat="42.09696" lon="9.1552">
        <ele>1540.17</ele>
        <time>2015-09-12T09:21:36Z</time>
      </trkpt>
      <trkpt lat="42.09691" lon="9.1552">
        <ele>1540.17</ele>
        <time>2015-09-12T09:21:42Z</time>
      </trkpt>
      <trkpt lat="42.09683" lon="9.15518">
        <ele>1540.65</ele>
        <time>2015-09-12T09:21:57Z</time>
      </trkpt>
      <trkpt lat="42.09673" lon="9.15515">
        <ele>1541.61</ele>
        <time>2015-09-12T09:22:13Z</time>
      </trkpt>
      <trkpt lat="42.09668" lon="9.15511">
        <ele>1543.05</ele>
        <time>2015-09-12T09:22:28Z</time>
      </trkpt>
      <trkpt lat="42.09666" lon="9.15506">
        <ele>1544.01</ele>
        <time>2015-09-12T09:22:46Z</time>
      </trkpt>
      <trkpt lat="42.09665" lon="9.15504">
        <ele>1544.98</ele>
        <time>2015-09-12T09:23:07Z</time>
      </trkpt>
      <trkpt lat="42.09666" lon="9.15502">
        <ele>1544.98</ele>
        <time>2015-09-12T09:23:32Z</time>
      </trkpt>
      <trkpt lat="42.09666" lon="9.15502">
        <ele>1544.98</ele>
        <time>2015-09-12T09:23:59Z</time>
      </trkpt>
      <trkpt lat="42.09668" lon="9.15501">
        <ele>1544.98</ele>
        <time>2015-09-12T09:24:14Z</time>
      </trkpt>
      <trkpt lat="42.09667" lon="9.15501">
        <ele>1544.98</ele>
        <time>2015-09-12T09:24:36Z</time>
      </trkpt>
      <trkpt lat="42.09667" lon="9.15504">
        <ele>1544.98</ele>
        <time>2015-09-12T09:24:59Z</time>
      </trkpt>
      <trkpt lat="42.09669" lon="9.15499">
        <ele>1544.98</ele>
        <time>2015-09-12T09:25:28Z</time>
      </trkpt>
      <trkpt lat="42.09669" lon="9.15502">
        <ele>1544.98</ele>
        <time>2015-09-12T09:25:50Z</time>
      </trkpt>
      <trkpt lat="42.09667" lon="9.15502">
        <ele>1544.98</ele>
        <time>2015-09-12T09:26:24Z</time>
      </trkpt>
      <trkpt lat="42.09667" lon="9.15502">
        <ele>1544.01</ele>
        <time>2015-09-12T09:27:14Z</time>
      </trkpt>
      <trkpt lat="42.09668" lon="9.15502">
        <ele>1544.01</ele>
        <time>2015-09-12T09:27:54Z</time>
      </trkpt>
      <trkpt lat="42.09668" lon="9.15502">
        <ele>1544.01</ele>
        <time>2015-09-12T09:28:40Z</time>
      </trkpt>
      <trkpt lat="42.09668" lon="9.15505">
        <ele>1544.5</ele>
        <time>2015-09-12T09:29:23Z</time>
      </trkpt>
      <trkpt lat="42.09667" lon="9.15502">
        <ele>1544.5</ele>
        <time>2015-09-12T09:30:07Z</time>
      </trkpt>
      <trkpt lat="42.09667" lon="9.15503">
        <ele>1544.5</ele>
        <time>2015-09-12T09:30:46Z</time>
      </trkpt>
      <trkpt lat="42.09667" lon="9.15502">
        <ele>1544.5</ele>
        <time>2015-09-12T09:31:25Z</time>
      </trkpt>
      <trkpt lat="42.09669" lon="9.15502">
        <ele>1544.5</ele>
        <time>2015-09-12T09:31:59Z</time>
      </trkpt>
      <trkpt lat="42.09665" lon="9.15503">
        <ele>1544.5</ele>
        <time>2015-09-12T09:32:33Z</time>
      </trkpt>
      <trkpt lat="42.09663" lon="9.15505">
        <ele>1544.5</ele>
        <time>2015-09-12T09:33:04Z</time>
      </trkpt>
      <trkpt lat="42.09666" lon="9.15503">
        <ele>1544.98</ele>
        <time>2015-09-12T09:33:37Z</time>
      </trkpt>
      <trkpt lat="42.09666" lon="9.15502">
        <ele>1544.98</ele>
        <time>2015-09-12T09:34:12Z</time>
      </trkpt>
      <trkpt lat="42.09667" lon="9.15503">
        <ele>1544.98</ele>
        <time>2015-09-12T09:34:43Z</time>
      </trkpt>
      <trkpt lat="42.09668" lon="9.15502">
        <ele>1544.98</ele>
        <time>2015-09-12T09:35:22Z</time>
      </trkpt>
      <trkpt lat="42.09666" lon="9.15505">
        <ele>1544.5</ele>
        <time>2015-09-12T09:35:59Z</time>
      </trkpt>
      <trkpt lat="42.09666" lon="9.15503">
        <ele>1544.98</ele>
        <time>2015-09-12T09:36:31Z</time>
      </trkpt>
      <trkpt lat="42.09665" lon="9.15503">
        <ele>1544.98</ele>
        <time>2015-09-12T09:37:16Z</time>
      </trkpt>
      <trkpt lat="42.09663" lon="9.15507">
        <ele>1544.98</ele>
        <time>2015-09-12T09:37:58Z</time>
      </trkpt>
      <trkpt lat="42.09665" lon="9.15506">
        <ele>1544.5</ele>
        <time>2015-09-12T09:38:42Z</time>
      </trkpt>
      <trkpt lat="42.09661" lon="9.15508">
        <ele>1544.98</ele>
        <time>2015-09-12T09:39:21Z</time>
      </trkpt>
      <trkpt lat="42.09662" lon="9.15505">
        <ele>1544.98</ele>
        <time>2015-09-12T09:39:52Z</time>
      </trkpt>
      <trkpt lat="42.09661" lon="9.15503">
        <ele>1544.98</ele>
        <time>2015-09-12T09:40:29Z</time>
      </trkpt>
      <trkpt lat="42.09666" lon="9.15503">
        <ele>1545.46</ele>
        <time>2015-09-12T09:41:02Z</time>
      </trkpt>
      <trkpt lat="42.09666" lon="9.15505">
        <ele>1545.46</ele>
        <time>2015-09-12T09:41:40Z</time>
      </trkpt>
      <trkpt lat="42.09667" lon="9.15506">
        <ele>1545.46</ele>
        <time>2015-09-12T09:42:16Z</time>
      </trkpt>
      <trkpt lat="42.09665" lon="9.15505">
        <ele>1545.46</ele>
        <time>2015-09-12T09:42:57Z</time>
      </trkpt>
      <trkpt lat="42.09667" lon="9.15504">
        <ele>1545.46</ele>
        <time>2015-09-12T09:43:31Z</time>
      </trkpt>
      <trkpt lat="42.09665" lon="9.15507">
        <ele>1545.46</ele>
        <time>2015-09-12T09:44:08Z</time>
      </trkpt>
      <trkpt lat="42.09665" lon="9.15505">
        <ele>1547.38</ele>
        <time>2015-09-12T09:44:19Z</time>
      </trkpt>
      <trkpt lat="42.09665" lon="9.15503">
        <ele>1547.38</ele>
        <time>2015-09-12T09:44:53Z</time>
      </trkpt>
      <trkpt lat="42.09668" lon="9.15505">
        <ele>1547.38</ele>
        <time>2015-09-12T09:45:22Z</time>
      </trkpt>
      <trkpt lat="42.09668" lon="9.15503">
        <ele>1547.38</ele>
        <time>2015-09-12T09:45:52Z</time>
      </trkpt>
      <trkpt lat="42.09667" lon="9.15504">
        <ele>1547.38</ele>
        <time>2015-09-12T09:46:21Z</time>
      </trkpt>
      <trkpt lat="42.09666" lon="9.15504">
        <ele>1547.38</ele>
        <time>2015-09-12T09:46:39Z</time>
      </trkpt>
      <trkpt lat="42.09666" lon="9.15504">
        <ele>1547.38</ele>
        <time>2015-09-12T09:47:03Z</time>
      </trkpt>
      <trkpt lat="42.09665" lon="9.15504">
        <ele>1547.38</ele>
        <time>2015-09-12T09:47:34Z</time>
      </trkpt>
      <trkpt lat="42.09668" lon="9.15504">
        <ele>1547.38</ele>
        <time>2015-09-12T09:47:55Z</time>
      </trkpt>
      <trkpt lat="42.09666" lon="9.15505">
        <ele>1547.38</ele>
        <time>2015-09-12T09:48:22Z</time>
      </trkpt>
      <trkpt lat="42.09667" lon="9.15505">
        <ele>1547.38</ele>
        <time>2015-09-12T09:48:40Z</time>
      </trkpt>
      <trkpt lat="42.09668" lon="9.15504">
        <ele>1547.38</ele>
        <time>2015-09-12T09:49:03Z</time>
      </trkpt>
      <trkpt lat="42.09669" lon="9.15505">
        <ele>1547.38</ele>
        <time>2015-09-12T09:49:24Z</time>
      </trkpt>
      <trkpt lat="42.0967" lon="9.15506">
        <ele>1547.38</ele>
        <time>2015-09-12T09:49:53Z</time>
      </trkpt>
      <trkpt lat="42.09668" lon="9.15505">
        <ele>1547.38</ele>
        <time>2015-09-12T09:50:12Z</time>
      </trkpt>
      <trkpt lat="42.09666" lon="9.15505">
        <ele>1547.38</ele>
        <time>2015-09-12T09:50:35Z</time>
      </trkpt>
      <trkpt lat="42.09666" lon="9.15505">
        <ele>1547.38</ele>
        <time>2015-09-12T09:50:51Z</time>
      </trkpt>
      <trkpt lat="42.09666" lon="9.155">
        <ele>1547.38</ele>
        <time>2015-09-12T09:51:16Z</time>
      </trkpt>
      <trkpt lat="42.09665" lon="9.15505">
        <ele>1547.38</ele>
        <time>2015-09-12T09:51:46Z</time>
      </trkpt>
      <trkpt lat="42.09664" lon="9.15505">
        <ele>1547.38</ele>
        <time>2015-09-12T09:52:08Z</time>
      </trkpt>
      <trkpt lat="42.09659" lon="9.15495">
        <ele>1544.98</ele>
        <time>2015-09-12T09:52:26Z</time>
      </trkpt>
      <trkpt lat="42.09656" lon="9.15473">
        <ele>1544.5</ele>
        <time>2015-09-12T09:52:43Z</time>
      </trkpt>
      <trkpt lat="42.09653" lon="9.15455">
        <ele>1545.46</ele>
        <time>2015-09-12T09:52:58Z</time>
      </trkpt>
      <trkpt lat="42.09645" lon="9.15438">
        <ele>1545.94</ele>
        <time>2015-09-12T09:53:17Z</time>
      </trkpt>
      <trkpt lat="42.09637" lon="9.15432">
        <ele>1545.94</ele>
        <time>2015-09-12T09:53:33Z</time>
      </trkpt>
      <trkpt lat="42.09627" lon="9.15428">
        <ele>1545.94</ele>
        <time>2015-09-12T09:53:48Z</time>
      </trkpt>
      <trkpt lat="42.09615" lon="9.15432">
        <ele>1545.94</ele>
        <time>2015-09-12T09:54:05Z</time>
      </trkpt>
      <trkpt lat="42.09595" lon="9.15434">
        <ele>1545.94</ele>
        <time>2015-09-12T09:54:26Z</time>
      </trkpt>
      <trkpt lat="42.09578" lon="9.15427">
        <ele>1546.42</ele>
        <time>2015-09-12T09:54:47Z</time>
      </trkpt>
      <trkpt lat="42.09559" lon="9.1542">
        <ele>1546.9</ele>
        <time>2015-09-12T09:55:07Z</time>
      </trkpt>
      <trkpt lat="42.09545" lon="9.15407">
        <ele>1547.86</ele>
        <time>2015-09-12T09:55:27Z</time>
      </trkpt>
      <trkpt lat="42.09533" lon="9.15393">
        <ele>1548.82</ele>
        <time>2015-09-12T09:55:49Z</time>
      </trkpt>
      <trkpt lat="42.09533" lon="9.15386">
        <ele>1551.71</ele>
        <time>2015-09-12T09:56:05Z</time>
      </trkpt>
      <trkpt lat="42.09529" lon="9.15385">
        <ele>1550.74</ele>
        <time>2015-09-12T09:56:11Z</time>
      </trkpt>
      <trkpt lat="42.09524" lon="9.15391">
        <ele>1549.3</ele>
        <time>2015-09-12T09:56:35Z</time>
      </trkpt>
      <trkpt lat="42.09512" lon="9.15396">
        <ele>1548.34</ele>
        <time>2015-09-12T09:56:55Z</time>
      </trkpt>
      <trkpt lat="42.09509" lon="9.15399">
        <ele>1547.38</ele>
        <time>2015-09-12T09:57:13Z</time>
      </trkpt>
      <trkpt lat="42.09508" lon="9.15408">
        <ele>1546.9</ele>
        <time>2015-09-12T09:57:31Z</time>
      </trkpt>
      <trkpt lat="42.09501" lon="9.15438">
        <ele>1547.38</ele>
        <time>2015-09-12T09:57:58Z</time>
      </trkpt>
      <trkpt lat="42.09492" lon="9.15454">
        <ele>1545.94</ele>
        <time>2015-09-12T09:58:16Z</time>
      </trkpt>
      <trkpt lat="42.09486" lon="9.15468">
        <ele>1543.53</ele>
        <time>2015-09-12T09:58:38Z</time>
      </trkpt>
      <trkpt lat="42.09479" lon="9.1549">
        <ele>1541.61</ele>
        <time>2015-09-12T09:58:59Z</time>
      </trkpt>
      <trkpt lat="42.09469" lon="9.15519">
        <ele>1538.25</ele>
        <time>2015-09-12T09:59:23Z</time>
      </trkpt>
      <trkpt lat="42.09466" lon="9.15541">
        <ele>1536.32</ele>
        <time>2015-09-12T09:59:42Z</time>
      </trkpt>
      <trkpt lat="42.09458" lon="9.15559">
        <ele>1532.96</ele>
        <time>2015-09-12T10:00:03Z</time>
      </trkpt>
      <trkpt lat="42.09447" lon="9.15575">
        <ele>1529.59</ele>
        <time>2015-09-12T10:00:23Z</time>
      </trkpt>
      <trkpt lat="42.09434" lon="9.15597">
        <ele>1526.23</ele>
        <time>2015-09-12T10:00:47Z</time>
      </trkpt>
      <trkpt lat="42.09434" lon="9.15597">
        <ele>1526.23</ele>
        <time>2015-09-12T10:00:48Z</time>
      </trkpt>
      <trkpt lat="42.09425" lon="9.15624">
        <ele>1522.87</ele>
        <time>2015-09-12T10:01:10Z</time>
      </trkpt>
      <trkpt lat="42.09409" lon="9.15646">
        <ele>1520.94</ele>
        <time>2015-09-12T10:01:34Z</time>
      </trkpt>
      <trkpt lat="42.09392" lon="9.15659">
        <ele>1518.54</ele>
        <time>2015-09-12T10:01:55Z</time>
      </trkpt>
      <trkpt lat="42.09377" lon="9.15668">
        <ele>1515.66</ele>
        <time>2015-09-12T10:02:18Z</time>
      </trkpt>
      <trkpt lat="42.09363" lon="9.15681">
        <ele>1512.29</ele>
        <time>2015-09-12T10:02:37Z</time>
      </trkpt>
      <trkpt lat="42.09345" lon="9.15694">
        <ele>1509.41</ele>
        <time>2015-09-12T10:02:58Z</time>
      </trkpt>
      <trkpt lat="42.09335" lon="9.15705">
        <ele>1507</ele>
        <time>2015-09-12T10:03:19Z</time>
      </trkpt>
      <trkpt lat="42.09317" lon="9.15718">
        <ele>1504.12</ele>
        <time>2015-09-12T10:03:41Z</time>
      </trkpt>
      <trkpt lat="42.09297" lon="9.15727">
        <ele>1501.24</ele>
        <time>2015-09-12T10:03:59Z</time>
      </trkpt>
      <trkpt lat="42.09282" lon="9.15739">
        <ele>1498.83</ele>
        <time>2015-09-12T10:04:21Z</time>
      </trkpt>
      <trkpt lat="42.09264" lon="9.15761">
        <ele>1497.39</ele>
        <time>2015-09-12T10:04:47Z</time>
      </trkpt>
      <trkpt lat="42.09254" lon="9.15782">
        <ele>1494.51</ele>
        <time>2015-09-12T10:05:11Z</time>
      </trkpt>
      <trkpt lat="42.09235" lon="9.15799">
        <ele>1492.1</ele>
        <time>2015-09-12T10:05:34Z</time>
      </trkpt>
      <trkpt lat="42.09216" lon="9.15812">
        <ele>1489.22</ele>
        <time>2015-09-12T10:05:57Z</time>
      </trkpt>
      <trkpt lat="42.09191" lon="9.15815">
        <ele>1487.3</ele>
        <time>2015-09-12T10:06:25Z</time>
      </trkpt>
      <trkpt lat="42.09176" lon="9.15816">
        <ele>1485.85</ele>
        <time>2015-09-12T10:06:41Z</time>
      </trkpt>
      <trkpt lat="42.09163" lon="9.15814">
        <ele>1485.37</ele>
        <time>2015-09-12T10:06:59Z</time>
      </trkpt>
      <trkpt lat="42.09148" lon="9.15812">
        <ele>1484.41</ele>
        <time>2015-09-12T10:07:16Z</time>
      </trkpt>
      <trkpt lat="42.09131" lon="9.15804">
        <ele>1484.41</ele>
        <time>2015-09-12T10:07:35Z</time>
      </trkpt>
      <trkpt lat="42.0912" lon="9.15796">
        <ele>1483.93</ele>
        <time>2015-09-12T10:07:49Z</time>
      </trkpt>
      <trkpt lat="42.09111" lon="9.15787">
        <ele>1482.49</ele>
        <time>2015-09-12T10:08:05Z</time>
      </trkpt>
      <trkpt lat="42.09101" lon="9.15777">
        <ele>1480.09</ele>
        <time>2015-09-12T10:08:20Z</time>
      </trkpt>
      <trkpt lat="42.09097" lon="9.15762">
        <ele>1478.65</ele>
        <time>2015-09-12T10:08:37Z</time>
      </trkpt>
      <trkpt lat="42.09091" lon="9.15748">
        <ele>1477.2</ele>
        <time>2015-09-12T10:08:52Z</time>
      </trkpt>
      <trkpt lat="42.09081" lon="9.15728">
        <ele>1475.76</ele>
        <time>2015-09-12T10:09:10Z</time>
      </trkpt>
      <trkpt lat="42.09077" lon="9.15712">
        <ele>1474.8</ele>
        <time>2015-09-12T10:09:25Z</time>
      </trkpt>
      <trkpt lat="42.09074" lon="9.15695">
        <ele>1474.32</ele>
        <time>2015-09-12T10:09:40Z</time>
      </trkpt>
      <trkpt lat="42.0907" lon="9.15677">
        <ele>1474.32</ele>
        <time>2015-09-12T10:09:56Z</time>
      </trkpt>
      <trkpt lat="42.09072" lon="9.15662">
        <ele>1474.32</ele>
        <time>2015-09-12T10:10:11Z</time>
      </trkpt>
      <trkpt lat="42.09074" lon="9.15646">
        <ele>1475.28</ele>
        <time>2015-09-12T10:10:25Z</time>
      </trkpt>
      <trkpt lat="42.09075" lon="9.15629">
        <ele>1475.76</ele>
        <time>2015-09-12T10:10:41Z</time>
      </trkpt>
      <trkpt lat="42.09076" lon="9.15618">
        <ele>1476.24</ele>
        <time>2015-09-12T10:10:55Z</time>
      </trkpt>
      <trkpt lat="42.09079" lon="9.1561">
        <ele>1475.28</ele>
        <time>2015-09-12T10:11:02Z</time>
      </trkpt>
      <trkpt lat="42.09085" lon="9.15594">
        <ele>1473.36</ele>
        <time>2015-09-12T10:11:18Z</time>
      </trkpt>
      <trkpt lat="42.09085" lon="9.15579">
        <ele>1472.88</ele>
        <time>2015-09-12T10:11:28Z</time>
      </trkpt>
      <trkpt lat="42.09088" lon="9.1556">
        <ele>1472.4</ele>
        <time>2015-09-12T10:11:45Z</time>
      </trkpt>
      <trkpt lat="42.09097" lon="9.15545">
        <ele>1471.44</ele>
        <time>2015-09-12T10:12:01Z</time>
      </trkpt>
      <trkpt lat="42.09101" lon="9.15528">
        <ele>1469.51</ele>
        <time>2015-09-12T10:12:20Z</time>
      </trkpt>
      <trkpt lat="42.09099" lon="9.15519">
        <ele>1469.03</ele>
        <time>2015-09-12T10:12:37Z</time>
      </trkpt>
      <trkpt lat="42.091" lon="9.15504">
        <ele>1468.55</ele>
        <time>2015-09-12T10:12:56Z</time>
      </trkpt>
      <trkpt lat="42.09097" lon="9.15484">
        <ele>1466.15</ele>
        <time>2015-09-12T10:13:15Z</time>
      </trkpt>
      <trkpt lat="42.09096" lon="9.15465">
        <ele>1464.71</ele>
        <time>2015-09-12T10:13:36Z</time>
      </trkpt>
      <trkpt lat="42.09093" lon="9.15444">
        <ele>1463.74</ele>
        <time>2015-09-12T10:13:52Z</time>
      </trkpt>
      <trkpt lat="42.09093" lon="9.15424">
        <ele>1462.78</ele>
        <time>2015-09-12T10:14:13Z</time>
      </trkpt>
      <trkpt lat="42.09093" lon="9.15411">
        <ele>1462.3</ele>
        <time>2015-09-12T10:14:29Z</time>
      </trkpt>
      <trkpt lat="42.09084" lon="9.15388">
        <ele>1461.82</ele>
        <time>2015-09-12T10:14:44Z</time>
      </trkpt>
      <trkpt lat="42.09081" lon="9.15372">
        <ele>1459.42</ele>
        <time>2015-09-12T10:15:02Z</time>
      </trkpt>
      <trkpt lat="42.09078" lon="9.15347">
        <ele>1457.5</ele>
        <time>2015-09-12T10:15:20Z</time>
      </trkpt>
      <trkpt lat="42.09077" lon="9.15345">
        <ele>1457.5</ele>
        <time>2015-09-12T10:15:22Z</time>
      </trkpt>
      <trkpt lat="42.09071" lon="9.15332">
        <ele>1457.02</ele>
        <time>2015-09-12T10:15:31Z</time>
      </trkpt>
      <trkpt lat="42.09072" lon="9.15311">
        <ele>1455.57</ele>
        <time>2015-09-12T10:15:50Z</time>
      </trkpt>
      <trkpt lat="42.09065" lon="9.15299">
        <ele>1453.17</ele>
        <time>2015-09-12T10:16:08Z</time>
      </trkpt>
      <trkpt lat="42.09061" lon="9.15303">
        <ele>1451.25</ele>
        <time>2015-09-12T10:16:24Z</time>
      </trkpt>
      <trkpt lat="42.0906" lon="9.15325">
        <ele>1449.32</ele>
        <time>2015-09-12T10:16:45Z</time>
      </trkpt>
      <trkpt lat="42.09058" lon="9.15337">
        <ele>1447.88</ele>
        <time>2015-09-12T10:17:05Z</time>
      </trkpt>
      <trkpt lat="42.09059" lon="9.15344">
        <ele>1447.4</ele>
        <time>2015-09-12T10:17:37Z</time>
      </trkpt>
      <trkpt lat="42.09058" lon="9.15358">
        <ele>1445.48</ele>
        <time>2015-09-12T10:17:57Z</time>
      </trkpt>
      <trkpt lat="42.09055" lon="9.15365">
        <ele>1445</ele>
        <time>2015-09-12T10:18:18Z</time>
      </trkpt>
      <trkpt lat="42.09053" lon="9.15372">
        <ele>1443.56</ele>
        <time>2015-09-12T10:18:40Z</time>
      </trkpt>
      <trkpt lat="42.09043" lon="9.15364">
        <ele>1440.19</ele>
        <time>2015-09-12T10:18:52Z</time>
      </trkpt>
      <trkpt lat="42.0904" lon="9.1535">
        <ele>1438.75</ele>
        <time>2015-09-12T10:19:08Z</time>
      </trkpt>
      <trkpt lat="42.09024" lon="9.15328">
        <ele>1437.31</ele>
        <time>2015-09-12T10:19:29Z</time>
      </trkpt>
      <trkpt lat="42.0902" lon="9.15334">
        <ele>1437.31</ele>
        <time>2015-09-12T10:19:48Z</time>
      </trkpt>
      <trkpt lat="42.09011" lon="9.15347">
        <ele>1439.23</ele>
        <time>2015-09-12T10:20:05Z</time>
      </trkpt>
      <trkpt lat="42.09" lon="9.15358">
        <ele>1439.71</ele>
        <time>2015-09-12T10:20:24Z</time>
      </trkpt>
      <trkpt lat="42.08981" lon="9.15371">
        <ele>1440.19</ele>
        <time>2015-09-12T10:20:44Z</time>
      </trkpt>
      <trkpt lat="42.0898" lon="9.15371">
        <ele>1440.19</ele>
        <time>2015-09-12T10:20:45Z</time>
      </trkpt>
      <trkpt lat="42.08965" lon="9.15375">
        <ele>1441.15</ele>
        <time>2015-09-12T10:21:04Z</time>
      </trkpt>
      <trkpt lat="42.0895" lon="9.15383">
        <ele>1442.11</ele>
        <time>2015-09-12T10:21:22Z</time>
      </trkpt>
      <trkpt lat="42.08936" lon="9.15386">
        <ele>1443.08</ele>
        <time>2015-09-12T10:21:40Z</time>
      </trkpt>
      <trkpt lat="42.08922" lon="9.15391">
        <ele>1443.08</ele>
        <time>2015-09-12T10:21:57Z</time>
      </trkpt>
      <trkpt lat="42.08911" lon="9.154">
        <ele>1443.56</ele>
        <time>2015-09-12T10:22:13Z</time>
      </trkpt>
      <trkpt lat="42.08897" lon="9.15409">
        <ele>1445</ele>
        <time>2015-09-12T10:22:33Z</time>
      </trkpt>
      <trkpt lat="42.08886" lon="9.15413">
        <ele>1445.96</ele>
        <time>2015-09-12T10:22:49Z</time>
      </trkpt>
      <trkpt lat="42.08872" lon="9.15422">
        <ele>1445.96</ele>
        <time>2015-09-12T10:23:06Z</time>
      </trkpt>
      <trkpt lat="42.08857" lon="9.15435">
        <ele>1446.92</ele>
        <time>2015-09-12T10:23:25Z</time>
      </trkpt>
      <trkpt lat="42.08839" lon="9.15449">
        <ele>1447.4</ele>
        <time>2015-09-12T10:23:46Z</time>
      </trkpt>
      <trkpt lat="42.08836" lon="9.15453">
        <ele>1445.96</ele>
        <time>2015-09-12T10:23:50Z</time>
      </trkpt>
      <trkpt lat="42.08825" lon="9.15466">
        <ele>1445</ele>
        <time>2015-09-12T10:24:07Z</time>
      </trkpt>
      <trkpt lat="42.08813" lon="9.15475">
        <ele>1445</ele>
        <time>2015-09-12T10:24:23Z</time>
      </trkpt>
      <trkpt lat="42.08801" lon="9.15487">
        <ele>1445</ele>
        <time>2015-09-12T10:24:41Z</time>
      </trkpt>
      <trkpt lat="42.08787" lon="9.15492">
        <ele>1444.52</ele>
        <time>2015-09-12T10:24:57Z</time>
      </trkpt>
      <trkpt lat="42.08773" lon="9.15503">
        <ele>1444.52</ele>
        <time>2015-09-12T10:25:12Z</time>
      </trkpt>
      <trkpt lat="42.08756" lon="9.15519">
        <ele>1444.52</ele>
        <time>2015-09-12T10:25:31Z</time>
      </trkpt>
      <trkpt lat="42.08746" lon="9.15531">
        <ele>1443.56</ele>
        <time>2015-09-12T10:25:48Z</time>
      </trkpt>
      <trkpt lat="42.08733" lon="9.15547">
        <ele>1443.08</ele>
        <time>2015-09-12T10:26:08Z</time>
      </trkpt>
      <trkpt lat="42.08719" lon="9.15562">
        <ele>1442.11</ele>
        <time>2015-09-12T10:26:28Z</time>
      </trkpt>
      <trkpt lat="42.08715" lon="9.15567">
        <ele>1442.11</ele>
        <time>2015-09-12T10:26:34Z</time>
      </trkpt>
      <trkpt lat="42.08703" lon="9.15577">
        <ele>1441.63</ele>
        <time>2015-09-12T10:26:51Z</time>
      </trkpt>
      <trkpt lat="42.0869" lon="9.15584">
        <ele>1443.08</ele>
        <time>2015-09-12T10:27:09Z</time>
      </trkpt>
      <trkpt lat="42.0868" lon="9.15564">
        <ele>1444.04</ele>
        <time>2015-09-12T10:27:27Z</time>
      </trkpt>
      <trkpt lat="42.0867" lon="9.15542">
        <ele>1444.04</ele>
        <time>2015-09-12T10:27:46Z</time>
      </trkpt>
      <trkpt lat="42.08657" lon="9.15528">
        <ele>1444.52</ele>
        <time>2015-09-12T10:28:05Z</time>
      </trkpt>
      <trkpt lat="42.08646" lon="9.15506">
        <ele>1445</ele>
        <time>2015-09-12T10:28:24Z</time>
      </trkpt>
      <trkpt lat="42.08631" lon="9.15477">
        <ele>1445.96</ele>
        <time>2015-09-12T10:28:47Z</time>
      </trkpt>
      <trkpt lat="42.0862" lon="9.15465">
        <ele>1444.52</ele>
        <time>2015-09-12T10:29:01Z</time>
      </trkpt>
      <trkpt lat="42.0862" lon="9.15464">
        <ele>1444.52</ele>
        <time>2015-09-12T10:29:02Z</time>
      </trkpt>
      <trkpt lat="42.08601" lon="9.15448">
        <ele>1443.08</ele>
        <time>2015-09-12T10:29:20Z</time>
      </trkpt>
      <trkpt lat="42.08594" lon="9.15439">
        <ele>1443.08</ele>
        <time>2015-09-12T10:29:30Z</time>
      </trkpt>
      <trkpt lat="42.08579" lon="9.15434">
        <ele>1443.08</ele>
        <time>2015-09-12T10:29:50Z</time>
      </trkpt>
      <trkpt lat="42.08578" lon="9.15444">
        <ele>1443.08</ele>
        <time>2015-09-12T10:30:05Z</time>
      </trkpt>
      <trkpt lat="42.0858" lon="9.15446">
        <ele>1444.04</ele>
        <time>2015-09-12T10:30:20Z</time>
      </trkpt>
      <trkpt lat="42.08582" lon="9.15438">
        <ele>1444.04</ele>
        <time>2015-09-12T10:30:39Z</time>
      </trkpt>
      <trkpt lat="42.08581" lon="9.15441">
        <ele>1444.04</ele>
        <time>2015-09-12T10:31:02Z</time>
      </trkpt>
      <trkpt lat="42.08579" lon="9.15458">
        <ele>1442.6</ele>
        <time>2015-09-12T10:31:21Z</time>
      </trkpt>
      <trkpt lat="42.08567" lon="9.15474">
        <ele>1441.63</ele>
        <time>2015-09-12T10:31:39Z</time>
      </trkpt>
      <trkpt lat="42.08553" lon="9.15495">
        <ele>1442.6</ele>
        <time>2015-09-12T10:31:57Z</time>
      </trkpt>
      <trkpt lat="42.08542" lon="9.15507">
        <ele>1443.56</ele>
        <time>2015-09-12T10:32:14Z</time>
      </trkpt>
      <trkpt lat="42.08531" lon="9.1552">
        <ele>1444.52</ele>
        <time>2015-09-12T10:32:31Z</time>
      </trkpt>
      <trkpt lat="42.08516" lon="9.15535">
        <ele>1443.08</ele>
        <time>2015-09-12T10:32:48Z</time>
      </trkpt>
      <trkpt lat="42.08505" lon="9.15544">
        <ele>1441.15</ele>
        <time>2015-09-12T10:33:06Z</time>
      </trkpt>
      <trkpt lat="42.08501" lon="9.15561">
        <ele>1440.19</ele>
        <time>2015-09-12T10:33:22Z</time>
      </trkpt>
      <trkpt lat="42.08501" lon="9.1556">
        <ele>1440.67</ele>
        <time>2015-09-12T10:33:43Z</time>
      </trkpt>
      <trkpt lat="42.08502" lon="9.15575">
        <ele>1440.19</ele>
        <time>2015-09-12T10:34:08Z</time>
      </trkpt>
      <trkpt lat="42.08502" lon="9.15584">
        <ele>1439.71</ele>
        <time>2015-09-12T10:34:20Z</time>
      </trkpt>
      <trkpt lat="42.08504" lon="9.15601">
        <ele>1438.27</ele>
        <time>2015-09-12T10:34:37Z</time>
      </trkpt>
      <trkpt lat="42.08497" lon="9.15639">
        <ele>1436.35</ele>
        <time>2015-09-12T10:34:55Z</time>
      </trkpt>
      <trkpt lat="42.08492" lon="9.15662">
        <ele>1434.91</ele>
        <time>2015-09-12T10:35:13Z</time>
      </trkpt>
      <trkpt lat="42.08483" lon="9.15685">
        <ele>1433.94</ele>
        <time>2015-09-12T10:35:31Z</time>
      </trkpt>
      <trkpt lat="42.08475" lon="9.157">
        <ele>1433.46</ele>
        <time>2015-09-12T10:35:44Z</time>
      </trkpt>
      <trkpt lat="42.08466" lon="9.15727">
        <ele>1431.06</ele>
        <time>2015-09-12T10:36:04Z</time>
      </trkpt>
      <trkpt lat="42.08451" lon="9.1575">
        <ele>1429.14</ele>
        <time>2015-09-12T10:36:26Z</time>
      </trkpt>
      <trkpt lat="42.08443" lon="9.1576">
        <ele>1429.62</ele>
        <time>2015-09-12T10:36:46Z</time>
      </trkpt>
      <trkpt lat="42.08436" lon="9.15762">
        <ele>1429.62</ele>
        <time>2015-09-12T10:37:11Z</time>
      </trkpt>
      <trkpt lat="42.08417" lon="9.15774">
        <ele>1429.14</ele>
        <time>2015-09-12T10:37:30Z</time>
      </trkpt>
      <trkpt lat="42.08411" lon="9.15777">
        <ele>1428.66</ele>
        <time>2015-09-12T10:37:38Z</time>
      </trkpt>
      <trkpt lat="42.08394" lon="9.15785">
        <ele>1428.18</ele>
        <time>2015-09-12T10:37:56Z</time>
      </trkpt>
      <trkpt lat="42.08382" lon="9.15789">
        <ele>1428.18</ele>
        <time>2015-09-12T10:38:15Z</time>
      </trkpt>
      <trkpt lat="42.08379" lon="9.15784">
        <ele>1428.18</ele>
        <time>2015-09-12T10:38:38Z</time>
      </trkpt>
      <trkpt lat="42.08385" lon="9.15786">
        <ele>1428.18</ele>
        <time>2015-09-12T10:39:03Z</time>
      </trkpt>
      <trkpt lat="42.08384" lon="9.15781">
        <ele>1427.7</ele>
        <time>2015-09-12T10:39:26Z</time>
      </trkpt>
      <trkpt lat="42.08387" lon="9.15783">
        <ele>1427.7</ele>
        <time>2015-09-12T10:40:01Z</time>
      </trkpt>
      <trkpt lat="42.08382" lon="9.15782">
        <ele>1427.7</ele>
        <time>2015-09-12T10:40:27Z</time>
      </trkpt>
      <trkpt lat="42.08389" lon="9.15786">
        <ele>1428.18</ele>
        <time>2015-09-12T10:41:08Z</time>
      </trkpt>
      <trkpt lat="42.08375" lon="9.15776">
        <ele>1428.18</ele>
        <time>2015-09-12T10:41:45Z</time>
      </trkpt>
      <trkpt lat="42.08374" lon="9.15779">
        <ele>1428.18</ele>
        <time>2015-09-12T10:42:23Z</time>
      </trkpt>
      <trkpt lat="42.0838" lon="9.15791">
        <ele>1428.18</ele>
        <time>2015-09-12T10:42:44Z</time>
      </trkpt>
      <trkpt lat="42.08373" lon="9.15799">
        <ele>1427.7</ele>
        <time>2015-09-12T10:43:12Z</time>
      </trkpt>
      <trkpt lat="42.08381" lon="9.15794">
        <ele>1427.7</ele>
        <time>2015-09-12T10:43:41Z</time>
      </trkpt>
      <trkpt lat="42.08379" lon="9.15783">
        <ele>1428.18</ele>
        <time>2015-09-12T10:44:03Z</time>
      </trkpt>
      <trkpt lat="42.08378" lon="9.15782">
        <ele>1428.18</ele>
        <time>2015-09-12T10:44:28Z</time>
      </trkpt>
      <trkpt lat="42.08372" lon="9.15807">
        <ele>1428.18</ele>
        <time>2015-09-12T10:44:51Z</time>
      </trkpt>
      <trkpt lat="42.08367" lon="9.15815">
        <ele>1429.14</ele>
        <time>2015-09-12T10:44:58Z</time>
      </trkpt>
      <trkpt lat="42.08363" lon="9.15818">
        <ele>1429.14</ele>
        <time>2015-09-12T10:45:02Z</time>
      </trkpt>
      <trkpt lat="42.0835" lon="9.15819">
        <ele>1429.14</ele>
        <time>2015-09-12T10:45:18Z</time>
      </trkpt>
      <trkpt lat="42.08347" lon="9.15828">
        <ele>1429.14</ele>
        <time>2015-09-12T10:45:28Z</time>
      </trkpt>
      <trkpt lat="42.08345" lon="9.15836">
        <ele>1429.14</ele>
        <time>2015-09-12T10:45:34Z</time>
      </trkpt>
      <trkpt lat="42.08343" lon="9.15853">
        <ele>1429.14</ele>
        <time>2015-09-12T10:45:51Z</time>
      </trkpt>
      <trkpt lat="42.08345" lon="9.15879">
        <ele>1427.7</ele>
        <time>2015-09-12T10:46:09Z</time>
      </trkpt>
      <trkpt lat="42.08345" lon="9.15883">
        <ele>1427.7</ele>
        <time>2015-09-12T10:46:11Z</time>
      </trkpt>
      <trkpt lat="42.08344" lon="9.15888">
        <ele>1427.7</ele>
        <time>2015-09-12T10:46:13Z</time>
      </trkpt>
      <trkpt lat="42.08345" lon="9.15896">
        <ele>1427.7</ele>
        <time>2015-09-12T10:46:17Z</time>
      </trkpt>
      <trkpt lat="42.08345" lon="9.159">
        <ele>1427.21</ele>
        <time>2015-09-12T10:46:20Z</time>
      </trkpt>
      <trkpt lat="42.08336" lon="9.15927">
        <ele>1426.73</ele>
        <time>2015-09-12T10:46:38Z</time>
      </trkpt>
      <trkpt lat="42.08323" lon="9.15941">
        <ele>1426.25</ele>
        <time>2015-09-12T10:46:54Z</time>
      </trkpt>
      <trkpt lat="42.0832" lon="9.15948">
        <ele>1426.25</ele>
        <time>2015-09-12T10:47:00Z</time>
      </trkpt>
      <trkpt lat="42.08318" lon="9.15959">
        <ele>1426.25</ele>
        <time>2015-09-12T10:47:08Z</time>
      </trkpt>
      <trkpt lat="42.08315" lon="9.15966">
        <ele>1426.25</ele>
        <time>2015-09-12T10:47:13Z</time>
      </trkpt>
      <trkpt lat="42.08309" lon="9.15983">
        <ele>1427.21</ele>
        <time>2015-09-12T10:47:27Z</time>
      </trkpt>
      <trkpt lat="42.08301" lon="9.15997">
        <ele>1429.14</ele>
        <time>2015-09-12T10:47:44Z</time>
      </trkpt>
      <trkpt lat="42.08293" lon="9.16004">
        <ele>1431.06</ele>
        <time>2015-09-12T10:48:02Z</time>
      </trkpt>
      <trkpt lat="42.08279" lon="9.16015">
        <ele>1432.02</ele>
        <time>2015-09-12T10:48:18Z</time>
      </trkpt>
      <trkpt lat="42.08268" lon="9.16022">
        <ele>1432.98</ele>
        <time>2015-09-12T10:48:34Z</time>
      </trkpt>
      <trkpt lat="42.0826" lon="9.16022">
        <ele>1433.94</ele>
        <time>2015-09-12T10:48:47Z</time>
      </trkpt>
      <trkpt lat="42.08251" lon="9.16029">
        <ele>1434.91</ele>
        <time>2015-09-12T10:48:59Z</time>
      </trkpt>
      <trkpt lat="42.08242" lon="9.16036">
        <ele>1436.83</ele>
        <time>2015-09-12T10:49:13Z</time>
      </trkpt>
      <trkpt lat="42.08236" lon="9.16041">
        <ele>1438.27</ele>
        <time>2015-09-12T10:49:23Z</time>
      </trkpt>
      <trkpt lat="42.08228" lon="9.16053">
        <ele>1438.75</ele>
        <time>2015-09-12T10:49:39Z</time>
      </trkpt>
      <trkpt lat="42.08225" lon="9.16053">
        <ele>1438.75</ele>
        <time>2015-09-12T10:49:43Z</time>
      </trkpt>
      <trkpt lat="42.08216" lon="9.16061">
        <ele>1439.71</ele>
        <time>2015-09-12T10:49:56Z</time>
      </trkpt>
      <trkpt lat="42.08206" lon="9.16082">
        <ele>1439.71</ele>
        <time>2015-09-12T10:50:12Z</time>
      </trkpt>
      <trkpt lat="42.08202" lon="9.16104">
        <ele>1439.71</ele>
        <time>2015-09-12T10:50:31Z</time>
      </trkpt>
      <trkpt lat="42.08198" lon="9.16129">
        <ele>1438.27</ele>
        <time>2015-09-12T10:50:52Z</time>
      </trkpt>
      <trkpt lat="42.08198" lon="9.16142">
        <ele>1438.27</ele>
        <time>2015-09-12T10:51:06Z</time>
      </trkpt>
      <trkpt lat="42.08194" lon="9.16158">
        <ele>1435.39</ele>
        <time>2015-09-12T10:51:23Z</time>
      </trkpt>
      <trkpt lat="42.08184" lon="9.1617">
        <ele>1433.46</ele>
        <time>2015-09-12T10:51:37Z</time>
      </trkpt>
      <trkpt lat="42.08184" lon="9.16172">
        <ele>1432.98</ele>
        <time>2015-09-12T10:51:38Z</time>
      </trkpt>
      <trkpt lat="42.08175" lon="9.16191">
        <ele>1431.54</ele>
        <time>2015-09-12T10:51:56Z</time>
      </trkpt>
      <trkpt lat="42.08169" lon="9.16214">
        <ele>1431.06</ele>
        <time>2015-09-12T10:52:14Z</time>
      </trkpt>
      <trkpt lat="42.0817" lon="9.16218">
        <ele>1431.06</ele>
        <time>2015-09-12T10:52:18Z</time>
      </trkpt>
      <trkpt lat="42.08166" lon="9.16233">
        <ele>1430.1</ele>
        <time>2015-09-12T10:52:29Z</time>
      </trkpt>
      <trkpt lat="42.08158" lon="9.16257">
        <ele>1430.58</ele>
        <time>2015-09-12T10:52:45Z</time>
      </trkpt>
      <trkpt lat="42.08147" lon="9.16276">
        <ele>1430.58</ele>
        <time>2015-09-12T10:53:00Z</time>
      </trkpt>
      <trkpt lat="42.08142" lon="9.16282">
        <ele>1431.54</ele>
        <time>2015-09-12T10:53:05Z</time>
      </trkpt>
      <trkpt lat="42.08134" lon="9.16303">
        <ele>1431.54</ele>
        <time>2015-09-12T10:53:20Z</time>
      </trkpt>
      <trkpt lat="42.08125" lon="9.16324">
        <ele>1431.54</ele>
        <time>2015-09-12T10:53:37Z</time>
      </trkpt>
      <trkpt lat="42.08116" lon="9.1634">
        <ele>1431.54</ele>
        <time>2015-09-12T10:53:52Z</time>
      </trkpt>
      <trkpt lat="42.08115" lon="9.16342">
        <ele>1432.02</ele>
        <time>2015-09-12T10:53:54Z</time>
      </trkpt>
      <trkpt lat="42.08106" lon="9.16358">
        <ele>1434.42</ele>
        <time>2015-09-12T10:54:09Z</time>
      </trkpt>
      <trkpt lat="42.08101" lon="9.16369">
        <ele>1435.87</ele>
        <time>2015-09-12T10:54:25Z</time>
      </trkpt>
      <trkpt lat="42.0809" lon="9.16376">
        <ele>1437.31</ele>
        <time>2015-09-12T10:54:38Z</time>
      </trkpt>
      <trkpt lat="42.08082" lon="9.1639">
        <ele>1439.23</ele>
        <time>2015-09-12T10:54:56Z</time>
      </trkpt>
      <trkpt lat="42.08075" lon="9.16388">
        <ele>1441.63</ele>
        <time>2015-09-12T10:55:13Z</time>
      </trkpt>
      <trkpt lat="42.08069" lon="9.1638">
        <ele>1444.04</ele>
        <time>2015-09-12T10:55:31Z</time>
      </trkpt>
      <trkpt lat="42.08059" lon="9.16372">
        <ele>1444.52</ele>
        <time>2015-09-12T10:55:47Z</time>
      </trkpt>
      <trkpt lat="42.08054" lon="9.16371">
        <ele>1443.08</ele>
        <time>2015-09-12T10:56:05Z</time>
      </trkpt>
      <trkpt lat="42.08052" lon="9.16368">
        <ele>1443.08</ele>
        <time>2015-09-12T10:56:38Z</time>
      </trkpt>
      <trkpt lat="42.08053" lon="9.16367">
        <ele>1443.08</ele>
        <time>2015-09-12T10:57:02Z</time>
      </trkpt>
      <trkpt lat="42.08056" lon="9.16368">
        <ele>1443.08</ele>
        <time>2015-09-12T10:57:27Z</time>
      </trkpt>
      <trkpt lat="42.08054" lon="9.16369">
        <ele>1443.08</ele>
        <time>2015-09-12T10:58:00Z</time>
      </trkpt>
      <trkpt lat="42.08055" lon="9.16375">
        <ele>1443.08</ele>
        <time>2015-09-12T10:58:30Z</time>
      </trkpt>
      <trkpt lat="42.08052" lon="9.16375">
        <ele>1443.08</ele>
        <time>2015-09-12T10:58:49Z</time>
      </trkpt>
      <trkpt lat="42.08052" lon="9.16374">
        <ele>1443.08</ele>
        <time>2015-09-12T10:59:21Z</time>
      </trkpt>
      <trkpt lat="42.08052" lon="9.16377">
        <ele>1443.08</ele>
        <time>2015-09-12T10:59:54Z</time>
      </trkpt>
      <trkpt lat="42.08044" lon="9.16394">
        <ele>1440.67</ele>
        <time>2015-09-12T11:00:07Z</time>
      </trkpt>
      <trkpt lat="42.08036" lon="9.16413">
        <ele>1438.75</ele>
        <time>2015-09-12T11:00:21Z</time>
      </trkpt>
      <trkpt lat="42.08028" lon="9.16425">
        <ele>1437.79</ele>
        <time>2015-09-12T11:00:42Z</time>
      </trkpt>
      <trkpt lat="42.08024" lon="9.16438">
        <ele>1436.35</ele>
        <time>2015-09-12T11:01:09Z</time>
      </trkpt>
      <trkpt lat="42.08018" lon="9.16458">
        <ele>1433.94</ele>
        <time>2015-09-12T11:01:28Z</time>
      </trkpt>
      <trkpt lat="42.0801" lon="9.1648">
        <ele>1431.54</ele>
        <time>2015-09-12T11:01:47Z</time>
      </trkpt>
      <trkpt lat="42.08013" lon="9.1648">
        <ele>1430.58</ele>
        <time>2015-09-12T11:02:12Z</time>
      </trkpt>
      <trkpt lat="42.08017" lon="9.16478">
        <ele>1430.58</ele>
        <time>2015-09-12T11:02:31Z</time>
      </trkpt>
      <trkpt lat="42.08017" lon="9.1648">
        <ele>1430.58</ele>
        <time>2015-09-12T11:02:53Z</time>
      </trkpt>
      <trkpt lat="42.08019" lon="9.16475">
        <ele>1430.58</ele>
        <time>2015-09-12T11:03:17Z</time>
      </trkpt>
      <trkpt lat="42.08024" lon="9.16454">
        <ele>1433.94</ele>
        <time>2015-09-12T11:03:35Z</time>
      </trkpt>
      <trkpt lat="42.0803" lon="9.16437">
        <ele>1435.87</ele>
        <time>2015-09-12T11:03:55Z</time>
      </trkpt>
      <trkpt lat="42.08035" lon="9.1642">
        <ele>1437.79</ele>
        <time>2015-09-12T11:04:14Z</time>
      </trkpt>
      <trkpt lat="42.08044" lon="9.16403">
        <ele>1440.19</ele>
        <time>2015-09-12T11:04:36Z</time>
      </trkpt>
      <trkpt lat="42.0805" lon="9.16384">
        <ele>1441.63</ele>
        <time>2015-09-12T11:04:55Z</time>
      </trkpt>
      <trkpt lat="42.08054" lon="9.16365">
        <ele>1443.08</ele>
        <time>2015-09-12T11:05:15Z</time>
      </trkpt>
      <trkpt lat="42.08052" lon="9.16344">
        <ele>1445.48</ele>
        <time>2015-09-12T11:05:37Z</time>
      </trkpt>
      <trkpt lat="42.08049" lon="9.16334">
        <ele>1446.44</ele>
        <time>2015-09-12T11:05:58Z</time>
      </trkpt>
      <trkpt lat="42.08044" lon="9.16317">
        <ele>1447.88</ele>
        <time>2015-09-12T11:06:16Z</time>
      </trkpt>
      <trkpt lat="42.08041" lon="9.16311">
        <ele>1448.36</ele>
        <time>2015-09-12T11:06:22Z</time>
      </trkpt>
      <trkpt lat="42.08037" lon="9.16293">
        <ele>1449.81</ele>
        <time>2015-09-12T11:06:40Z</time>
      </trkpt>
      <trkpt lat="42.08029" lon="9.16271">
        <ele>1451.25</ele>
        <time>2015-09-12T11:06:58Z</time>
      </trkpt>
      <trkpt lat="42.08016" lon="9.16243">
        <ele>1449.32</ele>
        <time>2015-09-12T11:07:21Z</time>
      </trkpt>
      <trkpt lat="42.08004" lon="9.16221">
        <ele>1447.88</ele>
        <time>2015-09-12T11:07:40Z</time>
      </trkpt>
      <trkpt lat="42.07988" lon="9.1619">
        <ele>1446.92</ele>
        <time>2015-09-12T11:08:01Z</time>
      </trkpt>
      <trkpt lat="42.07978" lon="9.16168">
        <ele>1445</ele>
        <time>2015-09-12T11:08:19Z</time>
      </trkpt>
      <trkpt lat="42.07974" lon="9.16159">
        <ele>1444.04</ele>
        <time>2015-09-12T11:08:26Z</time>
      </trkpt>
      <trkpt lat="42.07959" lon="9.16128">
        <ele>1442.6</ele>
        <time>2015-09-12T11:08:47Z</time>
      </trkpt>
      <trkpt lat="42.07943" lon="9.161">
        <ele>1441.15</ele>
        <time>2015-09-12T11:09:09Z</time>
      </trkpt>
      <trkpt lat="42.07937" lon="9.16078">
        <ele>1440.19</ele>
        <time>2015-09-12T11:09:30Z</time>
      </trkpt>
      <trkpt lat="42.07927" lon="9.1604">
        <ele>1438.75</ele>
        <time>2015-09-12T11:09:52Z</time>
      </trkpt>
      <trkpt lat="42.07913" lon="9.1601">
        <ele>1436.35</ele>
        <time>2015-09-12T11:10:14Z</time>
      </trkpt>
      <trkpt lat="42.07911" lon="9.16004">
        <ele>1436.35</ele>
        <time>2015-09-12T11:10:18Z</time>
      </trkpt>
      <trkpt lat="42.07897" lon="9.15981">
        <ele>1434.42</ele>
        <time>2015-09-12T11:10:38Z</time>
      </trkpt>
      <trkpt lat="42.07873" lon="9.15961">
        <ele>1432.5</ele>
        <time>2015-09-12T11:11:02Z</time>
      </trkpt>
      <trkpt lat="42.07853" lon="9.15943">
        <ele>1432.02</ele>
        <time>2015-09-12T11:11:23Z</time>
      </trkpt>
      <trkpt lat="42.07834" lon="9.15913">
        <ele>1430.58</ele>
        <time>2015-09-12T11:11:47Z</time>
      </trkpt>
      <trkpt lat="42.0781" lon="9.15894">
        <ele>1430.1</ele>
        <time>2015-09-12T11:12:08Z</time>
      </trkpt>
      <trkpt lat="42.07793" lon="9.15884">
        <ele>1429.14</ele>
        <time>2015-09-12T11:12:26Z</time>
      </trkpt>
      <trkpt lat="42.07787" lon="9.15844">
        <ele>1427.7</ele>
        <time>2015-09-12T11:12:52Z</time>
      </trkpt>
      <trkpt lat="42.07785" lon="9.1581">
        <ele>1426.25</ele>
        <time>2015-09-12T11:13:13Z</time>
      </trkpt>
      <trkpt lat="42.07781" lon="9.15773">
        <ele>1425.77</ele>
        <time>2015-09-12T11:13:38Z</time>
      </trkpt>
      <trkpt lat="42.07764" lon="9.15736">
        <ele>1424.33</ele>
        <time>2015-09-12T11:14:03Z</time>
      </trkpt>
      <trkpt lat="42.07743" lon="9.15708">
        <ele>1422.89</ele>
        <time>2015-09-12T11:14:24Z</time>
      </trkpt>
      <trkpt lat="42.07723" lon="9.15675">
        <ele>1420.97</ele>
        <time>2015-09-12T11:14:51Z</time>
      </trkpt>
      <trkpt lat="42.07693" lon="9.15647">
        <ele>1419.52</ele>
        <time>2015-09-12T11:15:15Z</time>
      </trkpt>
      <trkpt lat="42.07677" lon="9.15642">
        <ele>1419.04</ele>
        <time>2015-09-12T11:15:31Z</time>
      </trkpt>
      <trkpt lat="42.07673" lon="9.15646">
        <ele>1419.04</ele>
        <time>2015-09-12T11:15:35Z</time>
      </trkpt>
      <trkpt lat="42.07669" lon="9.15649">
        <ele>1419.04</ele>
        <time>2015-09-12T11:15:40Z</time>
      </trkpt>
      <trkpt lat="42.07655" lon="9.1567">
        <ele>1418.56</ele>
        <time>2015-09-12T11:15:58Z</time>
      </trkpt>
      <trkpt lat="42.07651" lon="9.15681">
        <ele>1417.6</ele>
        <time>2015-09-12T11:16:09Z</time>
      </trkpt>
      <trkpt lat="42.0764" lon="9.15712">
        <ele>1416.64</ele>
        <time>2015-09-12T11:16:28Z</time>
      </trkpt>
      <trkpt lat="42.07636" lon="9.15746">
        <ele>1415.2</ele>
        <time>2015-09-12T11:16:50Z</time>
      </trkpt>
      <trkpt lat="42.0763" lon="9.15771">
        <ele>1414.24</ele>
        <time>2015-09-12T11:17:07Z</time>
      </trkpt>
      <trkpt lat="42.07623" lon="9.15795">
        <ele>1413.28</ele>
        <time>2015-09-12T11:17:25Z</time>
      </trkpt>
      <trkpt lat="42.07614" lon="9.15824">
        <ele>1412.79</ele>
        <time>2015-09-12T11:17:44Z</time>
      </trkpt>
      <trkpt lat="42.07605" lon="9.15856">
        <ele>1410.39</ele>
        <time>2015-09-12T11:18:06Z</time>
      </trkpt>
      <trkpt lat="42.07603" lon="9.15886">
        <ele>1408.95</ele>
        <time>2015-09-12T11:18:25Z</time>
      </trkpt>
      <trkpt lat="42.07596" lon="9.15913">
        <ele>1406.55</ele>
        <time>2015-09-12T11:18:47Z</time>
      </trkpt>
      <trkpt lat="42.07582" lon="9.15934">
        <ele>1405.58</ele>
        <time>2015-09-12T11:19:06Z</time>
      </trkpt>
      <trkpt lat="42.07559" lon="9.15934">
        <ele>1404.14</ele>
        <time>2015-09-12T11:19:30Z</time>
      </trkpt>
      <trkpt lat="42.07541" lon="9.1592">
        <ele>1402.7</ele>
        <time>2015-09-12T11:19:52Z</time>
      </trkpt>
      <trkpt lat="42.0752" lon="9.15904">
        <ele>1401.26</ele>
        <time>2015-09-12T11:20:12Z</time>
      </trkpt>
      <trkpt lat="42.07517" lon="9.15899">
        <ele>1400.78</ele>
        <time>2015-09-12T11:20:16Z</time>
      </trkpt>
      <trkpt lat="42.075" lon="9.15889">
        <ele>1399.82</ele>
        <time>2015-09-12T11:20:32Z</time>
      </trkpt>
      <trkpt lat="42.0749" lon="9.15891">
        <ele>1399.34</ele>
        <time>2015-09-12T11:20:38Z</time>
      </trkpt>
      <trkpt lat="42.07486" lon="9.15898">
        <ele>1399.82</ele>
        <time>2015-09-12T11:20:43Z</time>
      </trkpt>
      <trkpt lat="42.07477" lon="9.15932">
        <ele>1397.89</ele>
        <time>2015-09-12T11:21:06Z</time>
      </trkpt>
      <trkpt lat="42.07472" lon="9.15961">
        <ele>1396.45</ele>
        <time>2015-09-12T11:21:30Z</time>
      </trkpt>
      <trkpt lat="42.0747" lon="9.15989">
        <ele>1395.01</ele>
        <time>2015-09-12T11:21:50Z</time>
      </trkpt>
      <trkpt lat="42.07467" lon="9.15996">
        <ele>1395.01</ele>
        <time>2015-09-12T11:21:56Z</time>
      </trkpt>
      <trkpt lat="42.07449" lon="9.16016">
        <ele>1393.57</ele>
        <time>2015-09-12T11:22:18Z</time>
      </trkpt>
      <trkpt lat="42.07431" lon="9.1603">
        <ele>1391.65</ele>
        <time>2015-09-12T11:22:37Z</time>
      </trkpt>
      <trkpt lat="42.0742" lon="9.16061">
        <ele>1389.24</ele>
        <time>2015-09-12T11:23:01Z</time>
      </trkpt>
      <trkpt lat="42.07412" lon="9.16102">
        <ele>1387.32</ele>
        <time>2015-09-12T11:23:25Z</time>
      </trkpt>
      <trkpt lat="42.07406" lon="9.16128">
        <ele>1386.36</ele>
        <time>2015-09-12T11:23:45Z</time>
      </trkpt>
      <trkpt lat="42.07398" lon="9.16154">
        <ele>1384.92</ele>
        <time>2015-09-12T11:24:05Z</time>
      </trkpt>
      <trkpt lat="42.0739" lon="9.1618">
        <ele>1384.44</ele>
        <time>2015-09-12T11:24:22Z</time>
      </trkpt>
      <trkpt lat="42.07387" lon="9.16209">
        <ele>1383.96</ele>
        <time>2015-09-12T11:24:39Z</time>
      </trkpt>
      <trkpt lat="42.07396" lon="9.16227">
        <ele>1382.03</ele>
        <time>2015-09-12T11:24:58Z</time>
      </trkpt>
      <trkpt lat="42.07407" lon="9.16258">
        <ele>1380.59</ele>
        <time>2015-09-12T11:25:21Z</time>
      </trkpt>
      <trkpt lat="42.07408" lon="9.16264">
        <ele>1380.59</ele>
        <time>2015-09-12T11:25:25Z</time>
      </trkpt>
      <trkpt lat="42.07407" lon="9.16286">
        <ele>1379.63</ele>
        <time>2015-09-12T11:25:42Z</time>
      </trkpt>
      <trkpt lat="42.07405" lon="9.1631">
        <ele>1378.19</ele>
        <time>2015-09-12T11:26:02Z</time>
      </trkpt>
      <trkpt lat="42.07403" lon="9.16336">
        <ele>1376.75</ele>
        <time>2015-09-12T11:26:20Z</time>
      </trkpt>
      <trkpt lat="42.07392" lon="9.16352">
        <ele>1375.78</ele>
        <time>2015-09-12T11:26:38Z</time>
      </trkpt>
      <trkpt lat="42.07371" lon="9.16348">
        <ele>1373.38</ele>
        <time>2015-09-12T11:27:02Z</time>
      </trkpt>
      <trkpt lat="42.07341" lon="9.16326">
        <ele>1372.42</ele>
        <time>2015-09-12T11:27:26Z</time>
      </trkpt>
      <trkpt lat="42.07335" lon="9.16316">
        <ele>1371.94</ele>
        <time>2015-09-12T11:27:36Z</time>
      </trkpt>
      <trkpt lat="42.07324" lon="9.16287">
        <ele>1370.5</ele>
        <time>2015-09-12T11:27:58Z</time>
      </trkpt>
      <trkpt lat="42.0732" lon="9.16254">
        <ele>1370.02</ele>
        <time>2015-09-12T11:28:18Z</time>
      </trkpt>
      <trkpt lat="42.0732" lon="9.1622">
        <ele>1368.57</ele>
        <time>2015-09-12T11:28:41Z</time>
      </trkpt>
      <trkpt lat="42.0732" lon="9.16191">
        <ele>1366.65</ele>
        <time>2015-09-12T11:29:00Z</time>
      </trkpt>
      <trkpt lat="42.07319" lon="9.16155">
        <ele>1364.73</ele>
        <time>2015-09-12T11:29:21Z</time>
      </trkpt>
      <trkpt lat="42.07307" lon="9.16129">
        <ele>1363.77</ele>
        <time>2015-09-12T11:29:40Z</time>
      </trkpt>
      <trkpt lat="42.07286" lon="9.16114">
        <ele>1362.81</ele>
        <time>2015-09-12T11:30:01Z</time>
      </trkpt>
      <trkpt lat="42.07279" lon="9.1609">
        <ele>1361.84</ele>
        <time>2015-09-12T11:30:21Z</time>
      </trkpt>
      <trkpt lat="42.07265" lon="9.16049">
        <ele>1360.4</ele>
        <time>2015-09-12T11:30:43Z</time>
      </trkpt>
      <trkpt lat="42.07251" lon="9.16023">
        <ele>1359.92</ele>
        <time>2015-09-12T11:31:05Z</time>
      </trkpt>
      <trkpt lat="42.07243" lon="9.16004">
        <ele>1358.96</ele>
        <time>2015-09-12T11:31:24Z</time>
      </trkpt>
      <trkpt lat="42.07224" lon="9.15973">
        <ele>1357.52</ele>
        <time>2015-09-12T11:31:44Z</time>
      </trkpt>
      <trkpt lat="42.07207" lon="9.15946">
        <ele>1356.08</ele>
        <time>2015-09-12T11:32:07Z</time>
      </trkpt>
      <trkpt lat="42.0719" lon="9.15918">
        <ele>1353.19</ele>
        <time>2015-09-12T11:32:29Z</time>
      </trkpt>
      <trkpt lat="42.07174" lon="9.159">
        <ele>1351.27</ele>
        <time>2015-09-12T11:32:54Z</time>
      </trkpt>
      <trkpt lat="42.07157" lon="9.15885">
        <ele>1350.31</ele>
        <time>2015-09-12T11:33:11Z</time>
      </trkpt>
      <trkpt lat="42.07139" lon="9.15874">
        <ele>1349.35</ele>
        <time>2015-09-12T11:33:28Z</time>
      </trkpt>
      <trkpt lat="42.07116" lon="9.15864">
        <ele>1348.39</ele>
        <time>2015-09-12T11:33:48Z</time>
      </trkpt>
      <trkpt lat="42.07107" lon="9.15867">
        <ele>1348.39</ele>
        <time>2015-09-12T11:34:05Z</time>
      </trkpt>
      <trkpt lat="42.07102" lon="9.15873">
        <ele>1348.39</ele>
        <time>2015-09-12T11:34:28Z</time>
      </trkpt>
      <trkpt lat="42.07102" lon="9.15872">
        <ele>1347.91</ele>
        <time>2015-09-12T11:34:43Z</time>
      </trkpt>
      <trkpt lat="42.07103" lon="9.15872">
        <ele>1347.43</ele>
        <time>2015-09-12T11:35:06Z</time>
      </trkpt>
      <trkpt lat="42.07104" lon="9.15872">
        <ele>1347.43</ele>
        <time>2015-09-12T11:35:36Z</time>
      </trkpt>
      <trkpt lat="42.07104" lon="9.15873">
        <ele>1347.43</ele>
        <time>2015-09-12T11:36:01Z</time>
      </trkpt>
      <trkpt lat="42.07102" lon="9.15875">
        <ele>1347.43</ele>
        <time>2015-09-12T11:36:22Z</time>
      </trkpt>
      <trkpt lat="42.07099" lon="9.15877">
        <ele>1346.94</ele>
        <time>2015-09-12T11:36:44Z</time>
      </trkpt>
      <trkpt lat="42.07093" lon="9.15884">
        <ele>1346.94</ele>
        <time>2015-09-12T11:36:53Z</time>
      </trkpt>
      <trkpt lat="42.0708" lon="9.15901">
        <ele>1345.98</ele>
        <time>2015-09-12T11:37:13Z</time>
      </trkpt>
      <trkpt lat="42.0707" lon="9.15918">
        <ele>1344.54</ele>
        <time>2015-09-12T11:37:30Z</time>
      </trkpt>
      <trkpt lat="42.07059" lon="9.15929">
        <ele>1343.58</ele>
        <time>2015-09-12T11:37:47Z</time>
      </trkpt>
      <trkpt lat="42.07046" lon="9.15944">
        <ele>1345.02</ele>
        <time>2015-09-12T11:38:06Z</time>
      </trkpt>
      <trkpt lat="42.07033" lon="9.15961">
        <ele>1344.06</ele>
        <time>2015-09-12T11:38:28Z</time>
      </trkpt>
      <trkpt lat="42.07022" lon="9.15989">
        <ele>1343.58</ele>
        <time>2015-09-12T11:38:46Z</time>
      </trkpt>
      <trkpt lat="42.0701" lon="9.16009">
        <ele>1341.18</ele>
        <time>2015-09-12T11:39:08Z</time>
      </trkpt>
      <trkpt lat="42.06999" lon="9.16033">
        <ele>1339.73</ele>
        <time>2015-09-12T11:39:28Z</time>
      </trkpt>
      <trkpt lat="42.06997" lon="9.16051">
        <ele>1339.25</ele>
        <time>2015-09-12T11:39:47Z</time>
      </trkpt>
      <trkpt lat="42.06987" lon="9.16075">
        <ele>1336.37</ele>
        <time>2015-09-12T11:40:11Z</time>
      </trkpt>
      <trkpt lat="42.06979" lon="9.16102">
        <ele>1336.37</ele>
        <time>2015-09-12T11:40:31Z</time>
      </trkpt>
      <trkpt lat="42.06976" lon="9.16111">
        <ele>1335.89</ele>
        <time>2015-09-12T11:40:51Z</time>
      </trkpt>
      <trkpt lat="42.0697" lon="9.16131">
        <ele>1335.89</ele>
        <time>2015-09-12T11:41:21Z</time>
      </trkpt>
      <trkpt lat="42.0696" lon="9.16153">
        <ele>1335.89</ele>
        <time>2015-09-12T11:41:39Z</time>
      </trkpt>
      <trkpt lat="42.06948" lon="9.16177">
        <ele>1335.41</ele>
        <time>2015-09-12T11:42:00Z</time>
      </trkpt>
      <trkpt lat="42.06937" lon="9.162">
        <ele>1335.41</ele>
        <time>2015-09-12T11:42:20Z</time>
      </trkpt>
      <trkpt lat="42.06924" lon="9.16213">
        <ele>1334.93</ele>
        <time>2015-09-12T11:42:41Z</time>
      </trkpt>
      <trkpt lat="42.06912" lon="9.16214">
        <ele>1336.37</ele>
        <time>2015-09-12T11:43:00Z</time>
      </trkpt>
      <trkpt lat="42.06912" lon="9.16213">
        <ele>1336.37</ele>
        <time>2015-09-12T11:43:01Z</time>
      </trkpt>
      <trkpt lat="42.06892" lon="9.1621">
        <ele>1338.29</ele>
        <time>2015-09-12T11:43:25Z</time>
      </trkpt>
      <trkpt lat="42.06876" lon="9.16213">
        <ele>1340.22</ele>
        <time>2015-09-12T11:43:46Z</time>
      </trkpt>
      <trkpt lat="42.0687" lon="9.16224">
        <ele>1342.62</ele>
        <time>2015-09-12T11:44:07Z</time>
      </trkpt>
      <trkpt lat="42.0687" lon="9.16245">
        <ele>1344.54</ele>
        <time>2015-09-12T11:44:31Z</time>
      </trkpt>
      <trkpt lat="42.06868" lon="9.16262">
        <ele>1345.5</ele>
        <time>2015-09-12T11:44:50Z</time>
      </trkpt>
      <trkpt lat="42.06865" lon="9.16277">
        <ele>1347.43</ele>
        <time>2015-09-12T11:45:06Z</time>
      </trkpt>
      <trkpt lat="42.06859" lon="9.16292">
        <ele>1348.39</ele>
        <time>2015-09-12T11:45:24Z</time>
      </trkpt>
      <trkpt lat="42.06851" lon="9.1631">
        <ele>1347.43</ele>
        <time>2015-09-12T11:45:44Z</time>
      </trkpt>
      <trkpt lat="42.06849" lon="9.16313">
        <ele>1347.43</ele>
        <time>2015-09-12T11:45:47Z</time>
      </trkpt>
      <trkpt lat="42.06833" lon="9.16335">
        <ele>1348.39</ele>
        <time>2015-09-12T11:46:07Z</time>
      </trkpt>
      <trkpt lat="42.06821" lon="9.16347">
        <ele>1348.39</ele>
        <time>2015-09-12T11:46:25Z</time>
      </trkpt>
      <trkpt lat="42.06805" lon="9.16356">
        <ele>1348.87</ele>
        <time>2015-09-12T11:46:42Z</time>
      </trkpt>
      <trkpt lat="42.06792" lon="9.16371">
        <ele>1348.87</ele>
        <time>2015-09-12T11:47:04Z</time>
      </trkpt>
      <trkpt lat="42.06791" lon="9.16373">
        <ele>1347.43</ele>
        <time>2015-09-12T11:47:07Z</time>
      </trkpt>
      <trkpt lat="42.06769" lon="9.16399">
        <ele>1346.46</ele>
        <time>2015-09-12T11:47:29Z</time>
      </trkpt>
      <trkpt lat="42.06764" lon="9.16414">
        <ele>1344.06</ele>
        <time>2015-09-12T11:47:48Z</time>
      </trkpt>
      <trkpt lat="42.06755" lon="9.16432">
        <ele>1342.62</ele>
        <time>2015-09-12T11:48:08Z</time>
      </trkpt>
      <trkpt lat="42.0675" lon="9.16452">
        <ele>1340.22</ele>
        <time>2015-09-12T11:48:26Z</time>
      </trkpt>
      <trkpt lat="42.06747" lon="9.16467">
        <ele>1339.25</ele>
        <time>2015-09-12T11:48:44Z</time>
      </trkpt>
      <trkpt lat="42.06753" lon="9.16488">
        <ele>1338.77</ele>
        <time>2015-09-12T11:49:06Z</time>
      </trkpt>
      <trkpt lat="42.06765" lon="9.16508">
        <ele>1338.29</ele>
        <time>2015-09-12T11:49:25Z</time>
      </trkpt>
      <trkpt lat="42.06763" lon="9.16534">
        <ele>1337.81</ele>
        <time>2015-09-12T11:49:46Z</time>
      </trkpt>
      <trkpt lat="42.06761" lon="9.16553">
        <ele>1339.73</ele>
        <time>2015-09-12T11:50:06Z</time>
      </trkpt>
      <trkpt lat="42.06754" lon="9.16564">
        <ele>1342.14</ele>
        <time>2015-09-12T11:50:23Z</time>
      </trkpt>
      <trkpt lat="42.06745" lon="9.16576">
        <ele>1344.54</ele>
        <time>2015-09-12T11:50:46Z</time>
      </trkpt>
      <trkpt lat="42.06734" lon="9.16584">
        <ele>1345.98</ele>
        <time>2015-09-12T11:51:04Z</time>
      </trkpt>
      <trkpt lat="42.06721" lon="9.16603">
        <ele>1346.94</ele>
        <time>2015-09-12T11:51:26Z</time>
      </trkpt>
      <trkpt lat="42.06719" lon="9.16614">
        <ele>1345.5</ele>
        <time>2015-09-12T11:51:32Z</time>
      </trkpt>
      <trkpt lat="42.06715" lon="9.16633">
        <ele>1343.1</ele>
        <time>2015-09-12T11:51:53Z</time>
      </trkpt>
      <trkpt lat="42.06706" lon="9.16655">
        <ele>1342.14</ele>
        <time>2015-09-12T11:52:10Z</time>
      </trkpt>
      <trkpt lat="42.06699" lon="9.16671">
        <ele>1340.7</ele>
        <time>2015-09-12T11:52:27Z</time>
      </trkpt>
      <trkpt lat="42.06681" lon="9.1669">
        <ele>1337.81</ele>
        <time>2015-09-12T11:52:49Z</time>
      </trkpt>
      <trkpt lat="42.06661" lon="9.16697">
        <ele>1334.45</ele>
        <time>2015-09-12T11:53:05Z</time>
      </trkpt>
      <trkpt lat="42.06643" lon="9.16691">
        <ele>1333.01</ele>
        <time>2015-09-12T11:53:23Z</time>
      </trkpt>
      <trkpt lat="42.06622" lon="9.16679">
        <ele>1331.56</ele>
        <time>2015-09-12T11:53:47Z</time>
      </trkpt>
      <trkpt lat="42.06606" lon="9.16685">
        <ele>1331.56</ele>
        <time>2015-09-12T11:54:07Z</time>
      </trkpt>
      <trkpt lat="42.06593" lon="9.16691">
        <ele>1333.01</ele>
        <time>2015-09-12T11:54:24Z</time>
      </trkpt>
      <trkpt lat="42.06578" lon="9.16704">
        <ele>1333.49</ele>
        <time>2015-09-12T11:54:43Z</time>
      </trkpt>
      <trkpt lat="42.0656" lon="9.16713">
        <ele>1333.49</ele>
        <time>2015-09-12T11:55:02Z</time>
      </trkpt>
      <trkpt lat="42.06544" lon="9.16712">
        <ele>1333.01</ele>
        <time>2015-09-12T11:55:19Z</time>
      </trkpt>
      <trkpt lat="42.06517" lon="9.16704">
        <ele>1330.12</ele>
        <time>2015-09-12T11:55:47Z</time>
      </trkpt>
      <trkpt lat="42.06499" lon="9.16695">
        <ele>1328.2</ele>
        <time>2015-09-12T11:56:08Z</time>
      </trkpt>
      <trkpt lat="42.06486" lon="9.16694">
        <ele>1327.72</ele>
        <time>2015-09-12T11:56:27Z</time>
      </trkpt>
      <trkpt lat="42.06466" lon="9.16691">
        <ele>1329.16</ele>
        <time>2015-09-12T11:56:49Z</time>
      </trkpt>
      <trkpt lat="42.06451" lon="9.16684">
        <ele>1330.12</ele>
        <time>2015-09-12T11:57:09Z</time>
      </trkpt>
      <trkpt lat="42.06429" lon="9.16683">
        <ele>1332.04</ele>
        <time>2015-09-12T11:57:30Z</time>
      </trkpt>
      <trkpt lat="42.06406" lon="9.16689">
        <ele>1333.49</ele>
        <time>2015-09-12T11:57:57Z</time>
      </trkpt>
      <trkpt lat="42.06403" lon="9.16689">
        <ele>1332.04</ele>
        <time>2015-09-12T11:58:01Z</time>
      </trkpt>
      <trkpt lat="42.06399" lon="9.16688">
        <ele>1333.49</ele>
        <time>2015-09-12T11:58:08Z</time>
      </trkpt>
      <trkpt lat="42.06388" lon="9.1668">
        <ele>1334.45</ele>
        <time>2015-09-12T11:58:25Z</time>
      </trkpt>
      <trkpt lat="42.06388" lon="9.16667">
        <ele>1336.85</ele>
        <time>2015-09-12T11:58:42Z</time>
      </trkpt>
      <trkpt lat="42.06384" lon="9.16666">
        <ele>1337.81</ele>
        <time>2015-09-12T11:59:02Z</time>
      </trkpt>
      <trkpt lat="42.06379" lon="9.16661">
        <ele>1340.22</ele>
        <time>2015-09-12T11:59:20Z</time>
      </trkpt>
      <trkpt lat="42.06371" lon="9.16655">
        <ele>1338.77</ele>
        <time>2015-09-12T11:59:36Z</time>
      </trkpt>
      <trkpt lat="42.06365" lon="9.16656">
        <ele>1338.77</ele>
        <time>2015-09-12T11:59:52Z</time>
      </trkpt>
      <trkpt lat="42.06351" lon="9.16667">
        <ele>1338.29</ele>
        <time>2015-09-12T12:00:12Z</time>
      </trkpt>
      <trkpt lat="42.06334" lon="9.16672">
        <ele>1340.22</ele>
        <time>2015-09-12T12:00:33Z</time>
      </trkpt>
      <trkpt lat="42.06319" lon="9.16675">
        <ele>1342.62</ele>
        <time>2015-09-12T12:00:55Z</time>
      </trkpt>
      <trkpt lat="42.06301" lon="9.16673">
        <ele>1345.02</ele>
        <time>2015-09-12T12:01:16Z</time>
      </trkpt>
      <trkpt lat="42.06294" lon="9.16666">
        <ele>1346.46</ele>
        <time>2015-09-12T12:01:35Z</time>
      </trkpt>
      <trkpt lat="42.06289" lon="9.16662">
        <ele>1347.43</ele>
        <time>2015-09-12T12:01:56Z</time>
      </trkpt>
      <trkpt lat="42.06278" lon="9.16676">
        <ele>1347.43</ele>
        <time>2015-09-12T12:02:16Z</time>
      </trkpt>
      <trkpt lat="42.06263" lon="9.16683">
        <ele>1347.91</ele>
        <time>2015-09-12T12:02:33Z</time>
      </trkpt>
      <trkpt lat="42.06249" lon="9.16691">
        <ele>1348.87</ele>
        <time>2015-09-12T12:02:52Z</time>
      </trkpt>
      <trkpt lat="42.06246" lon="9.16699">
        <ele>1347.43</ele>
        <time>2015-09-12T12:03:05Z</time>
      </trkpt>
      <trkpt lat="42.06238" lon="9.1671">
        <ele>1348.39</ele>
        <time>2015-09-12T12:03:20Z</time>
      </trkpt>
      <trkpt lat="42.06223" lon="9.16729">
        <ele>1349.83</ele>
        <time>2015-09-12T12:03:42Z</time>
      </trkpt>
      <trkpt lat="42.06214" lon="9.16759">
        <ele>1351.27</ele>
        <time>2015-09-12T12:04:06Z</time>
      </trkpt>
      <trkpt lat="42.06191" lon="9.16755">
        <ele>1351.75</ele>
        <time>2015-09-12T12:04:28Z</time>
      </trkpt>
      <trkpt lat="42.06177" lon="9.16737">
        <ele>1354.63</ele>
        <time>2015-09-12T12:04:53Z</time>
      </trkpt>
      <trkpt lat="42.06161" lon="9.1673">
        <ele>1356.56</ele>
        <time>2015-09-12T12:05:15Z</time>
      </trkpt>
      <trkpt lat="42.06148" lon="9.16721">
        <ele>1358.48</ele>
        <time>2015-09-12T12:05:39Z</time>
      </trkpt>
      <trkpt lat="42.06131" lon="9.16713">
        <ele>1360.4</ele>
        <time>2015-09-12T12:06:02Z</time>
      </trkpt>
      <trkpt lat="42.06118" lon="9.16693">
        <ele>1360.88</ele>
        <time>2015-09-12T12:06:23Z</time>
      </trkpt>
      <trkpt lat="42.06108" lon="9.16681">
        <ele>1362.33</ele>
        <time>2015-09-12T12:06:42Z</time>
      </trkpt>
      <trkpt lat="42.06097" lon="9.16689">
        <ele>1362.33</ele>
        <time>2015-09-12T12:07:02Z</time>
      </trkpt>
      <trkpt lat="42.06084" lon="9.1671">
        <ele>1360.4</ele>
        <time>2015-09-12T12:07:15Z</time>
      </trkpt>
      <trkpt lat="42.06068" lon="9.16729">
        <ele>1357.52</ele>
        <time>2015-09-12T12:07:38Z</time>
      </trkpt>
      <trkpt lat="42.06052" lon="9.16719">
        <ele>1356.56</ele>
        <time>2015-09-12T12:08:02Z</time>
      </trkpt>
      <trkpt lat="42.06035" lon="9.1671">
        <ele>1357.52</ele>
        <time>2015-09-12T12:08:19Z</time>
      </trkpt>
      <trkpt lat="42.06027" lon="9.16716">
        <ele>1358.96</ele>
        <time>2015-09-12T12:08:38Z</time>
      </trkpt>
      <trkpt lat="42.06025" lon="9.16736">
        <ele>1360.4</ele>
        <time>2015-09-12T12:08:57Z</time>
      </trkpt>
      <trkpt lat="42.06019" lon="9.16759">
        <ele>1362.81</ele>
        <time>2015-09-12T12:09:19Z</time>
      </trkpt>
      <trkpt lat="42.06011" lon="9.16776">
        <ele>1364.73</ele>
        <time>2015-09-12T12:09:38Z</time>
      </trkpt>
      <trkpt lat="42.06009" lon="9.16797">
        <ele>1366.17</ele>
        <time>2015-09-12T12:10:01Z</time>
      </trkpt>
      <trkpt lat="42.05996" lon="9.16817">
        <ele>1367.13</ele>
        <time>2015-09-12T12:10:23Z</time>
      </trkpt>
      <trkpt lat="42.05989" lon="9.16829">
        <ele>1368.09</ele>
        <time>2015-09-12T12:10:41Z</time>
      </trkpt>
      <trkpt lat="42.05982" lon="9.16844">
        <ele>1370.02</ele>
        <time>2015-09-12T12:11:03Z</time>
      </trkpt>
      <trkpt lat="42.05977" lon="9.1683">
        <ele>1372.9</ele>
        <time>2015-09-12T12:11:28Z</time>
      </trkpt>
      <trkpt lat="42.05968" lon="9.16815">
        <ele>1375.3</ele>
        <time>2015-09-12T12:11:52Z</time>
      </trkpt>
      <trkpt lat="42.05964" lon="9.16792">
        <ele>1376.26</ele>
        <time>2015-09-12T12:12:14Z</time>
      </trkpt>
      <trkpt lat="42.05956" lon="9.1677">
        <ele>1378.19</ele>
        <time>2015-09-12T12:12:38Z</time>
      </trkpt>
      <trkpt lat="42.05955" lon="9.16752">
        <ele>1381.07</ele>
        <time>2015-09-12T12:13:01Z</time>
      </trkpt>
      <trkpt lat="42.05949" lon="9.16734">
        <ele>1383.47</ele>
        <time>2015-09-12T12:13:25Z</time>
      </trkpt>
      <trkpt lat="42.05949" lon="9.16721">
        <ele>1386.36</ele>
        <time>2015-09-12T12:13:52Z</time>
      </trkpt>
      <trkpt lat="42.05939" lon="9.16701">
        <ele>1389.24</ele>
        <time>2015-09-12T12:14:16Z</time>
      </trkpt>
      <trkpt lat="42.05936" lon="9.16681">
        <ele>1391.17</ele>
        <time>2015-09-12T12:14:37Z</time>
      </trkpt>
      <trkpt lat="42.05921" lon="9.16667">
        <ele>1393.09</ele>
        <time>2015-09-12T12:14:58Z</time>
      </trkpt>
      <trkpt lat="42.05912" lon="9.16654">
        <ele>1395.01</ele>
        <time>2015-09-12T12:15:18Z</time>
      </trkpt>
      <trkpt lat="42.05897" lon="9.16638">
        <ele>1396.45</ele>
        <time>2015-09-12T12:15:39Z</time>
      </trkpt>
      <trkpt lat="42.05895" lon="9.16634">
        <ele>1398.37</ele>
        <time>2015-09-12T12:16:01Z</time>
      </trkpt>
      <trkpt lat="42.05887" lon="9.1661">
        <ele>1399.34</ele>
        <time>2015-09-12T12:16:22Z</time>
      </trkpt>
      <trkpt lat="42.0588" lon="9.16595">
        <ele>1402.22</ele>
        <time>2015-09-12T12:16:45Z</time>
      </trkpt>
      <trkpt lat="42.05877" lon="9.16583">
        <ele>1403.66</ele>
        <time>2015-09-12T12:17:02Z</time>
      </trkpt>
      <trkpt lat="42.05871" lon="9.1657">
        <ele>1407.03</ele>
        <time>2015-09-12T12:17:24Z</time>
      </trkpt>
      <trkpt lat="42.05863" lon="9.16548">
        <ele>1409.43</ele>
        <time>2015-09-12T12:17:47Z</time>
      </trkpt>
      <trkpt lat="42.0586" lon="9.16536">
        <ele>1411.35</ele>
        <time>2015-09-12T12:18:09Z</time>
      </trkpt>
      <trkpt lat="42.05851" lon="9.16507">
        <ele>1412.31</ele>
        <time>2015-09-12T12:18:33Z</time>
      </trkpt>
      <trkpt lat="42.05841" lon="9.16476">
        <ele>1413.76</ele>
        <time>2015-09-12T12:19:00Z</time>
      </trkpt>
      <trkpt lat="42.05839" lon="9.16472">
        <ele>1412.79</ele>
        <time>2015-09-12T12:19:20Z</time>
      </trkpt>
      <trkpt lat="42.05821" lon="9.16472">
        <ele>1414.72</ele>
        <time>2015-09-12T12:19:42Z</time>
      </trkpt>
      <trkpt lat="42.05811" lon="9.16461">
        <ele>1417.12</ele>
        <time>2015-09-12T12:20:06Z</time>
      </trkpt>
      <trkpt lat="42.05804" lon="9.16436">
        <ele>1419.52</ele>
        <time>2015-09-12T12:20:28Z</time>
      </trkpt>
      <trkpt lat="42.058" lon="9.16416">
        <ele>1421.45</ele>
        <time>2015-09-12T12:20:51Z</time>
      </trkpt>
      <trkpt lat="42.05796" lon="9.16394">
        <ele>1423.85</ele>
        <time>2015-09-12T12:21:14Z</time>
      </trkpt>
      <trkpt lat="42.05791" lon="9.16372">
        <ele>1426.25</ele>
        <time>2015-09-12T12:21:37Z</time>
      </trkpt>
      <trkpt lat="42.05781" lon="9.16356">
        <ele>1427.7</ele>
        <time>2015-09-12T12:22:03Z</time>
      </trkpt>
      <trkpt lat="42.05771" lon="9.16325">
        <ele>1429.62</ele>
        <time>2015-09-12T12:22:26Z</time>
      </trkpt>
      <trkpt lat="42.05757" lon="9.1632">
        <ele>1430.58</ele>
        <time>2015-09-12T12:22:44Z</time>
      </trkpt>
      <trkpt lat="42.05752" lon="9.16318">
        <ele>1432.5</ele>
        <time>2015-09-12T12:23:05Z</time>
      </trkpt>
      <trkpt lat="42.05751" lon="9.16308">
        <ele>1434.42</ele>
        <time>2015-09-12T12:23:25Z</time>
      </trkpt>
      <trkpt lat="42.05742" lon="9.16292">
        <ele>1435.87</ele>
        <time>2015-09-12T12:23:44Z</time>
      </trkpt>
      <trkpt lat="42.05739" lon="9.16279">
        <ele>1437.31</ele>
        <time>2015-09-12T12:24:04Z</time>
      </trkpt>
      <trkpt lat="42.0573" lon="9.16273">
        <ele>1438.75</ele>
        <time>2015-09-12T12:24:21Z</time>
      </trkpt>
      <trkpt lat="42.05722" lon="9.16252">
        <ele>1441.15</ele>
        <time>2015-09-12T12:24:45Z</time>
      </trkpt>
      <trkpt lat="42.05719" lon="9.16235">
        <ele>1442.6</ele>
        <time>2015-09-12T12:25:05Z</time>
      </trkpt>
      <trkpt lat="42.05715" lon="9.1622">
        <ele>1443.08</ele>
        <time>2015-09-12T12:25:23Z</time>
      </trkpt>
      <trkpt lat="42.05707" lon="9.16207">
        <ele>1444.52</ele>
        <time>2015-09-12T12:25:45Z</time>
      </trkpt>
      <trkpt lat="42.05696" lon="9.16205">
        <ele>1445.48</ele>
        <time>2015-09-12T12:26:03Z</time>
      </trkpt>
      <trkpt lat="42.05688" lon="9.16191">
        <ele>1446.44</ele>
        <time>2015-09-12T12:26:22Z</time>
      </trkpt>
      <trkpt lat="42.05683" lon="9.16176">
        <ele>1448.36</ele>
        <time>2015-09-12T12:26:42Z</time>
      </trkpt>
      <trkpt lat="42.05676" lon="9.16164">
        <ele>1450.29</ele>
        <time>2015-09-12T12:27:01Z</time>
      </trkpt>
      <trkpt lat="42.05673" lon="9.1615">
        <ele>1451.73</ele>
        <time>2015-09-12T12:27:20Z</time>
      </trkpt>
      <trkpt lat="42.05663" lon="9.16142">
        <ele>1451.73</ele>
        <time>2015-09-12T12:27:38Z</time>
      </trkpt>
      <trkpt lat="42.0565" lon="9.16122">
        <ele>1449.81</ele>
        <time>2015-09-12T12:28:01Z</time>
      </trkpt>
      <trkpt lat="42.0564" lon="9.16106">
        <ele>1449.81</ele>
        <time>2015-09-12T12:28:25Z</time>
      </trkpt>
      <trkpt lat="42.05638" lon="9.16109">
        <ele>1449.32</ele>
        <time>2015-09-12T12:28:52Z</time>
      </trkpt>
      <trkpt lat="42.05634" lon="9.16114">
        <ele>1449.32</ele>
        <time>2015-09-12T12:29:27Z</time>
      </trkpt>
      <trkpt lat="42.05632" lon="9.16119">
        <ele>1448.36</ele>
        <time>2015-09-12T12:29:47Z</time>
      </trkpt>
      <trkpt lat="42.05633" lon="9.16121">
        <ele>1448.36</ele>
        <time>2015-09-12T12:30:11Z</time>
      </trkpt>
      <trkpt lat="42.05634" lon="9.16118">
        <ele>1448.84</ele>
        <time>2015-09-12T12:30:36Z</time>
      </trkpt>
      <trkpt lat="42.05641" lon="9.16113">
        <ele>1448.84</ele>
        <time>2015-09-12T12:31:03Z</time>
      </trkpt>
      <trkpt lat="42.05637" lon="9.16114">
        <ele>1448.84</ele>
        <time>2015-09-12T12:31:32Z</time>
      </trkpt>
      <trkpt lat="42.05633" lon="9.1611">
        <ele>1448.84</ele>
        <time>2015-09-12T12:32:01Z</time>
      </trkpt>
      <trkpt lat="42.05635" lon="9.1611">
        <ele>1448.84</ele>
        <time>2015-09-12T12:32:35Z</time>
      </trkpt>
      <trkpt lat="42.05633" lon="9.16122">
        <ele>1449.32</ele>
        <time>2015-09-12T12:33:05Z</time>
      </trkpt>
      <trkpt lat="42.05638" lon="9.16112">
        <ele>1449.32</ele>
        <time>2015-09-12T12:33:37Z</time>
      </trkpt>
      <trkpt lat="42.05635" lon="9.1611">
        <ele>1449.32</ele>
        <time>2015-09-12T12:34:10Z</time>
      </trkpt>
      <trkpt lat="42.05641" lon="9.16106">
        <ele>1449.81</ele>
        <time>2015-09-12T12:34:37Z</time>
      </trkpt>
      <trkpt lat="42.05632" lon="9.16116">
        <ele>1450.29</ele>
        <time>2015-09-12T12:35:09Z</time>
      </trkpt>
      <trkpt lat="42.05634" lon="9.16119">
        <ele>1450.29</ele>
        <time>2015-09-12T12:35:39Z</time>
      </trkpt>
      <trkpt lat="42.05636" lon="9.16119">
        <ele>1450.29</ele>
        <time>2015-09-12T12:36:12Z</time>
      </trkpt>
      <trkpt lat="42.05633" lon="9.16124">
        <ele>1451.73</ele>
        <time>2015-09-12T12:36:37Z</time>
      </trkpt>
      <trkpt lat="42.05631" lon="9.16129">
        <ele>1452.69</ele>
        <time>2015-09-12T12:37:09Z</time>
      </trkpt>
      <trkpt lat="42.05632" lon="9.16115">
        <ele>1452.69</ele>
        <time>2015-09-12T12:37:35Z</time>
      </trkpt>
      <trkpt lat="42.0563" lon="9.16132">
        <ele>1453.17</ele>
        <time>2015-09-12T12:37:51Z</time>
      </trkpt>
      <trkpt lat="42.05632" lon="9.16144">
        <ele>1453.17</ele>
        <time>2015-09-12T12:38:10Z</time>
      </trkpt>
      <trkpt lat="42.05617" lon="9.16154">
        <ele>1451.73</ele>
        <time>2015-09-12T12:38:29Z</time>
      </trkpt>
      <trkpt lat="42.05603" lon="9.16163">
        <ele>1451.25</ele>
        <time>2015-09-12T12:38:48Z</time>
      </trkpt>
      <trkpt lat="42.05588" lon="9.16163">
        <ele>1449.32</ele>
        <time>2015-09-12T12:39:07Z</time>
      </trkpt>
      <trkpt lat="42.05592" lon="9.16176">
        <ele>1449.32</ele>
        <time>2015-09-12T12:39:24Z</time>
      </trkpt>
      <trkpt lat="42.05595" lon="9.16196">
        <ele>1448.84</ele>
        <time>2015-09-12T12:39:44Z</time>
      </trkpt>
      <trkpt lat="42.05591" lon="9.1621">
        <ele>1451.25</ele>
        <time>2015-09-12T12:40:03Z</time>
      </trkpt>
      <trkpt lat="42.05586" lon="9.16228">
        <ele>1451.73</ele>
        <time>2015-09-12T12:40:21Z</time>
      </trkpt>
      <trkpt lat="42.05578" lon="9.16247">
        <ele>1453.65</ele>
        <time>2015-09-12T12:40:44Z</time>
      </trkpt>
      <trkpt lat="42.05578" lon="9.16265">
        <ele>1454.61</ele>
        <time>2015-09-12T12:41:01Z</time>
      </trkpt>
      <trkpt lat="42.05576" lon="9.16279">
        <ele>1456.05</ele>
        <time>2015-09-12T12:41:16Z</time>
      </trkpt>
      <trkpt lat="42.05571" lon="9.16301">
        <ele>1457.02</ele>
        <time>2015-09-12T12:41:37Z</time>
      </trkpt>
      <trkpt lat="42.05567" lon="9.16317">
        <ele>1457.98</ele>
        <time>2015-09-12T12:41:53Z</time>
      </trkpt>
      <trkpt lat="42.05563" lon="9.16327">
        <ele>1458.46</ele>
        <time>2015-09-12T12:42:06Z</time>
      </trkpt>
      <trkpt lat="42.0556" lon="9.16345">
        <ele>1460.86</ele>
        <time>2015-09-12T12:42:25Z</time>
      </trkpt>
      <trkpt lat="42.05552" lon="9.16359">
        <ele>1462.3</ele>
        <time>2015-09-12T12:42:45Z</time>
      </trkpt>
      <trkpt lat="42.05543" lon="9.16377">
        <ele>1464.23</ele>
        <time>2015-09-12T12:43:03Z</time>
      </trkpt>
      <trkpt lat="42.05536" lon="9.16396">
        <ele>1464.23</ele>
        <time>2015-09-12T12:43:24Z</time>
      </trkpt>
      <trkpt lat="42.05526" lon="9.16407">
        <ele>1466.63</ele>
        <time>2015-09-12T12:43:40Z</time>
      </trkpt>
      <trkpt lat="42.05528" lon="9.16425">
        <ele>1466.63</ele>
        <time>2015-09-12T12:43:59Z</time>
      </trkpt>
      <trkpt lat="42.05527" lon="9.16446">
        <ele>1468.07</ele>
        <time>2015-09-12T12:44:17Z</time>
      </trkpt>
      <trkpt lat="42.05521" lon="9.16461">
        <ele>1469.51</ele>
        <time>2015-09-12T12:44:35Z</time>
      </trkpt>
      <trkpt lat="42.05522" lon="9.16472">
        <ele>1470.47</ele>
        <time>2015-09-12T12:44:52Z</time>
      </trkpt>
      <trkpt lat="42.05515" lon="9.16488">
        <ele>1471.92</ele>
        <time>2015-09-12T12:45:14Z</time>
      </trkpt>
      <trkpt lat="42.0551" lon="9.16506">
        <ele>1472.88</ele>
        <time>2015-09-12T12:45:32Z</time>
      </trkpt>
      <trkpt lat="42.05494" lon="9.16526">
        <ele>1474.32</ele>
        <time>2015-09-12T12:45:54Z</time>
      </trkpt>
      <trkpt lat="42.05491" lon="9.16549">
        <ele>1474.8</ele>
        <time>2015-09-12T12:46:14Z</time>
      </trkpt>
      <trkpt lat="42.05479" lon="9.16563">
        <ele>1476.72</ele>
        <time>2015-09-12T12:46:33Z</time>
      </trkpt>
      <trkpt lat="42.05471" lon="9.1658">
        <ele>1478.16</ele>
        <time>2015-09-12T12:46:53Z</time>
      </trkpt>
      <trkpt lat="42.05459" lon="9.16591">
        <ele>1479.61</ele>
        <time>2015-09-12T12:47:11Z</time>
      </trkpt>
      <trkpt lat="42.05444" lon="9.16607">
        <ele>1482.49</ele>
        <time>2015-09-12T12:47:32Z</time>
      </trkpt>
      <trkpt lat="42.05431" lon="9.16612">
        <ele>1483.93</ele>
        <time>2015-09-12T12:47:54Z</time>
      </trkpt>
      <trkpt lat="42.05417" lon="9.16616">
        <ele>1485.85</ele>
        <time>2015-09-12T12:48:15Z</time>
      </trkpt>
      <trkpt lat="42.05397" lon="9.1662">
        <ele>1487.78</ele>
        <time>2015-09-12T12:48:35Z</time>
      </trkpt>
      <trkpt lat="42.05382" lon="9.16619">
        <ele>1489.22</ele>
        <time>2015-09-12T12:48:55Z</time>
      </trkpt>
      <trkpt lat="42.05364" lon="9.16622">
        <ele>1490.66</ele>
        <time>2015-09-12T12:49:15Z</time>
      </trkpt>
      <trkpt lat="42.05353" lon="9.16634">
        <ele>1492.1</ele>
        <time>2015-09-12T12:49:36Z</time>
      </trkpt>
      <trkpt lat="42.05337" lon="9.16645">
        <ele>1493.06</ele>
        <time>2015-09-12T12:49:58Z</time>
      </trkpt>
      <trkpt lat="42.0533" lon="9.16656">
        <ele>1493.06</ele>
        <time>2015-09-12T12:50:18Z</time>
      </trkpt>
      <trkpt lat="42.0533" lon="9.16678">
        <ele>1491.62</ele>
        <time>2015-09-12T12:50:39Z</time>
      </trkpt>
      <trkpt lat="42.05323" lon="9.167">
        <ele>1491.14</ele>
        <time>2015-09-12T12:50:57Z</time>
      </trkpt>
      <trkpt lat="42.05308" lon="9.16715">
        <ele>1490.66</ele>
        <time>2015-09-12T12:51:15Z</time>
      </trkpt>
      <trkpt lat="42.05291" lon="9.16723">
        <ele>1490.18</ele>
        <time>2015-09-12T12:51:34Z</time>
      </trkpt>
      <trkpt lat="42.05279" lon="9.16712">
        <ele>1491.14</ele>
        <time>2015-09-12T12:51:49Z</time>
      </trkpt>
      <trkpt lat="42.05265" lon="9.16698">
        <ele>1492.1</ele>
        <time>2015-09-12T12:52:10Z</time>
      </trkpt>
      <trkpt lat="42.05251" lon="9.16686">
        <ele>1494.03</ele>
        <time>2015-09-12T12:52:31Z</time>
      </trkpt>
      <trkpt lat="42.05242" lon="9.16685">
        <ele>1494.99</ele>
        <time>2015-09-12T12:52:50Z</time>
      </trkpt>
      <trkpt lat="42.05231" lon="9.16704">
        <ele>1495.47</ele>
        <time>2015-09-12T12:53:07Z</time>
      </trkpt>
      <trkpt lat="42.05221" lon="9.16703">
        <ele>1496.43</ele>
        <time>2015-09-12T12:53:27Z</time>
      </trkpt>
      <trkpt lat="42.05221" lon="9.16723">
        <ele>1497.39</ele>
        <time>2015-09-12T12:53:46Z</time>
      </trkpt>
      <trkpt lat="42.05212" lon="9.1673">
        <ele>1498.35</ele>
        <time>2015-09-12T12:54:05Z</time>
      </trkpt>
      <trkpt lat="42.05197" lon="9.16731">
        <ele>1499.31</ele>
        <time>2015-09-12T12:54:27Z</time>
      </trkpt>
      <trkpt lat="42.0519" lon="9.16755">
        <ele>1500.76</ele>
        <time>2015-09-12T12:54:50Z</time>
      </trkpt>
      <trkpt lat="42.05185" lon="9.16767">
        <ele>1501.24</ele>
        <time>2015-09-12T12:55:11Z</time>
      </trkpt>
      <trkpt lat="42.05176" lon="9.16782">
        <ele>1501.72</ele>
        <time>2015-09-12T12:55:32Z</time>
      </trkpt>
      <trkpt lat="42.05179" lon="9.16795">
        <ele>1502.2</ele>
        <time>2015-09-12T12:55:51Z</time>
      </trkpt>
      <trkpt lat="42.05177" lon="9.16813">
        <ele>1502.68</ele>
        <time>2015-09-12T12:56:07Z</time>
      </trkpt>
      <trkpt lat="42.05173" lon="9.16837">
        <ele>1503.16</ele>
        <time>2015-09-12T12:56:26Z</time>
      </trkpt>
      <trkpt lat="42.05167" lon="9.16856">
        <ele>1504.12</ele>
        <time>2015-09-12T12:56:44Z</time>
      </trkpt>
      <trkpt lat="42.05161" lon="9.16873">
        <ele>1504.12</ele>
        <time>2015-09-12T12:57:04Z</time>
      </trkpt>
      <trkpt lat="42.05155" lon="9.16883">
        <ele>1504.12</ele>
        <time>2015-09-12T12:57:22Z</time>
      </trkpt>
      <trkpt lat="42.05139" lon="9.16902">
        <ele>1504.6</ele>
        <time>2015-09-12T12:57:42Z</time>
      </trkpt>
      <trkpt lat="42.05124" lon="9.16915">
        <ele>1505.56</ele>
        <time>2015-09-12T12:58:05Z</time>
      </trkpt>
      <trkpt lat="42.05106" lon="9.16934">
        <ele>1506.04</ele>
        <time>2015-09-12T12:58:24Z</time>
      </trkpt>
      <trkpt lat="42.05088" lon="9.16965">
        <ele>1506.04</ele>
        <time>2015-09-12T12:58:47Z</time>
      </trkpt>
      <trkpt lat="42.05083" lon="9.1699">
        <ele>1507</ele>
        <time>2015-09-12T12:59:09Z</time>
      </trkpt>
      <trkpt lat="42.05075" lon="9.17006">
        <ele>1507.97</ele>
        <time>2015-09-12T12:59:28Z</time>
      </trkpt>
      <trkpt lat="42.05071" lon="9.17023">
        <ele>1508.93</ele>
        <time>2015-09-12T12:59:47Z</time>
      </trkpt>
      <trkpt lat="42.0507" lon="9.17038">
        <ele>1508.93</ele>
        <time>2015-09-12T13:00:04Z</time>
      </trkpt>
      <trkpt lat="42.05064" lon="9.17057">
        <ele>1509.89</ele>
        <time>2015-09-12T13:00:26Z</time>
      </trkpt>
      <trkpt lat="42.05049" lon="9.1706">
        <ele>1510.37</ele>
        <time>2015-09-12T13:00:48Z</time>
      </trkpt>
      <trkpt lat="42.05036" lon="9.17052">
        <ele>1511.81</ele>
        <time>2015-09-12T13:01:10Z</time>
      </trkpt>
      <trkpt lat="42.05017" lon="9.17038">
        <ele>1512.29</ele>
        <time>2015-09-12T13:01:32Z</time>
      </trkpt>
      <trkpt lat="42.05007" lon="9.1703">
        <ele>1512.77</ele>
        <time>2015-09-12T13:01:49Z</time>
      </trkpt>
      <trkpt lat="42.04994" lon="9.17018">
        <ele>1513.73</ele>
        <time>2015-09-12T13:02:10Z</time>
      </trkpt>
      <trkpt lat="42.04977" lon="9.17009">
        <ele>1514.21</ele>
        <time>2015-09-12T13:02:28Z</time>
      </trkpt>
      <trkpt lat="42.04963" lon="9.17004">
        <ele>1514.69</ele>
        <time>2015-09-12T13:02:46Z</time>
      </trkpt>
      <trkpt lat="42.04951" lon="9.16999">
        <ele>1515.66</ele>
        <time>2015-09-12T13:03:02Z</time>
      </trkpt>
      <trkpt lat="42.04936" lon="9.16998">
        <ele>1515.66</ele>
        <time>2015-09-12T13:03:18Z</time>
      </trkpt>
      <trkpt lat="42.04925" lon="9.1699">
        <ele>1516.62</ele>
        <time>2015-09-12T13:03:33Z</time>
      </trkpt>
      <trkpt lat="42.04908" lon="9.16984">
        <ele>1517.1</ele>
        <time>2015-09-12T13:03:52Z</time>
      </trkpt>
      <trkpt lat="42.04893" lon="9.16976">
        <ele>1519.02</ele>
        <time>2015-09-12T13:04:12Z</time>
      </trkpt>
      <trkpt lat="42.04878" lon="9.16978">
        <ele>1519.02</ele>
        <time>2015-09-12T13:04:18Z</time>
      </trkpt>
      <trkpt lat="42.0487" lon="9.16968">
        <ele>1519.98</ele>
        <time>2015-09-12T13:04:35Z</time>
      </trkpt>
      <trkpt lat="42.04866" lon="9.1696">
        <ele>1521.9</ele>
        <time>2015-09-12T13:04:53Z</time>
      </trkpt>
      <trkpt lat="42.04862" lon="9.16943">
        <ele>1523.35</ele>
        <time>2015-09-12T13:05:13Z</time>
      </trkpt>
      <trkpt lat="42.04853" lon="9.16932">
        <ele>1524.79</ele>
        <time>2015-09-12T13:05:34Z</time>
      </trkpt>
      <trkpt lat="42.04842" lon="9.16913">
        <ele>1525.75</ele>
        <time>2015-09-12T13:05:57Z</time>
      </trkpt>
      <trkpt lat="42.04829" lon="9.16891">
        <ele>1526.71</ele>
        <time>2015-09-12T13:06:18Z</time>
      </trkpt>
      <trkpt lat="42.04816" lon="9.16866">
        <ele>1525.75</ele>
        <time>2015-09-12T13:06:42Z</time>
      </trkpt>
      <trkpt lat="42.04799" lon="9.16859">
        <ele>1524.79</ele>
        <time>2015-09-12T13:07:03Z</time>
      </trkpt>
      <trkpt lat="42.04783" lon="9.16853">
        <ele>1522.87</ele>
        <time>2015-09-12T13:07:26Z</time>
      </trkpt>
      <trkpt lat="42.04763" lon="9.16841">
        <ele>1522.87</ele>
        <time>2015-09-12T13:07:50Z</time>
      </trkpt>
      <trkpt lat="42.04747" lon="9.1683">
        <ele>1522.39</ele>
        <time>2015-09-12T13:08:11Z</time>
      </trkpt>
      <trkpt lat="42.04733" lon="9.1682">
        <ele>1522.39</ele>
        <time>2015-09-12T13:08:30Z</time>
      </trkpt>
      <trkpt lat="42.04718" lon="9.16806">
        <ele>1523.83</ele>
        <time>2015-09-12T13:08:50Z</time>
      </trkpt>
      <trkpt lat="42.04703" lon="9.16804">
        <ele>1522.39</ele>
        <time>2015-09-12T13:09:10Z</time>
      </trkpt>
      <trkpt lat="42.04688" lon="9.16808">
        <ele>1522.39</ele>
        <time>2015-09-12T13:09:27Z</time>
      </trkpt>
      <trkpt lat="42.04678" lon="9.16811">
        <ele>1522.39</ele>
        <time>2015-09-12T13:09:39Z</time>
      </trkpt>
      <trkpt lat="42.04663" lon="9.16813">
        <ele>1522.39</ele>
        <time>2015-09-12T13:09:59Z</time>
      </trkpt>
      <trkpt lat="42.04646" lon="9.16805">
        <ele>1522.39</ele>
        <time>2015-09-12T13:10:21Z</time>
      </trkpt>
      <trkpt lat="42.04636" lon="9.16794">
        <ele>1524.31</ele>
        <time>2015-09-12T13:10:37Z</time>
      </trkpt>
      <trkpt lat="42.04617" lon="9.16781">
        <ele>1524.79</ele>
        <time>2015-09-12T13:11:02Z</time>
      </trkpt>
      <trkpt lat="42.04612" lon="9.16775">
        <ele>1525.27</ele>
        <time>2015-09-12T13:11:09Z</time>
      </trkpt>
      <trkpt lat="42.04593" lon="9.16764">
        <ele>1525.75</ele>
        <time>2015-09-12T13:11:27Z</time>
      </trkpt>
      <trkpt lat="42.0459" lon="9.16761">
        <ele>1527.19</ele>
        <time>2015-09-12T13:11:33Z</time>
      </trkpt>
      <trkpt lat="42.04574" lon="9.16759">
        <ele>1528.15</ele>
        <time>2015-09-12T13:11:54Z</time>
      </trkpt>
      <trkpt lat="42.04565" lon="9.16751">
        <ele>1528.63</ele>
        <time>2015-09-12T13:12:09Z</time>
      </trkpt>
      <trkpt lat="42.04558" lon="9.16738">
        <ele>1529.59</ele>
        <time>2015-09-12T13:12:27Z</time>
      </trkpt>
      <trkpt lat="42.04546" lon="9.16723">
        <ele>1531.52</ele>
        <time>2015-09-12T13:12:53Z</time>
      </trkpt>
      <trkpt lat="42.0453" lon="9.16708">
        <ele>1531.52</ele>
        <time>2015-09-12T13:13:19Z</time>
      </trkpt>
      <trkpt lat="42.04517" lon="9.16707">
        <ele>1531.04</ele>
        <time>2015-09-12T13:13:38Z</time>
      </trkpt>
      <trkpt lat="42.04509" lon="9.1671">
        <ele>1532.96</ele>
        <time>2015-09-12T13:13:58Z</time>
      </trkpt>
      <trkpt lat="42.04504" lon="9.16699">
        <ele>1534.4</ele>
        <time>2015-09-12T13:14:16Z</time>
      </trkpt>
      <trkpt lat="42.04501" lon="9.1669">
        <ele>1535.84</ele>
        <time>2015-09-12T13:14:33Z</time>
      </trkpt>
      <trkpt lat="42.04494" lon="9.16679">
        <ele>1536.32</ele>
        <time>2015-09-12T13:14:51Z</time>
      </trkpt>
      <trkpt lat="42.04483" lon="9.16672">
        <ele>1537.77</ele>
        <time>2015-09-12T13:15:09Z</time>
      </trkpt>
      <trkpt lat="42.04469" lon="9.16666">
        <ele>1537.77</ele>
        <time>2015-09-12T13:15:28Z</time>
      </trkpt>
      <trkpt lat="42.04467" lon="9.16667">
        <ele>1537.77</ele>
        <time>2015-09-12T13:15:51Z</time>
      </trkpt>
      <trkpt lat="42.04458" lon="9.16673">
        <ele>1538.25</ele>
        <time>2015-09-12T13:16:08Z</time>
      </trkpt>
      <trkpt lat="42.04448" lon="9.16674">
        <ele>1539.21</ele>
        <time>2015-09-12T13:16:31Z</time>
      </trkpt>
      <trkpt lat="42.04438" lon="9.16668">
        <ele>1540.17</ele>
        <time>2015-09-12T13:16:51Z</time>
      </trkpt>
      <trkpt lat="42.04426" lon="9.16667">
        <ele>1541.13</ele>
        <time>2015-09-12T13:17:11Z</time>
      </trkpt>
      <trkpt lat="42.04416" lon="9.16683">
        <ele>1541.61</ele>
        <time>2015-09-12T13:17:29Z</time>
      </trkpt>
      <trkpt lat="42.04409" lon="9.16696">
        <ele>1541.61</ele>
        <time>2015-09-12T13:17:47Z</time>
      </trkpt>
      <trkpt lat="42.04404" lon="9.16709">
        <ele>1542.57</ele>
        <time>2015-09-12T13:18:06Z</time>
      </trkpt>
      <trkpt lat="42.04395" lon="9.16724">
        <ele>1543.05</ele>
        <time>2015-09-12T13:18:24Z</time>
      </trkpt>
      <trkpt lat="42.04385" lon="9.16738">
        <ele>1543.05</ele>
        <time>2015-09-12T13:18:42Z</time>
      </trkpt>
      <trkpt lat="42.04374" lon="9.16741">
        <ele>1543.05</ele>
        <time>2015-09-12T13:19:01Z</time>
      </trkpt>
      <trkpt lat="42.04358" lon="9.1674">
        <ele>1542.57</ele>
        <time>2015-09-12T13:19:22Z</time>
      </trkpt>
      <trkpt lat="42.04343" lon="9.16749">
        <ele>1543.53</ele>
        <time>2015-09-12T13:19:40Z</time>
      </trkpt>
      <trkpt lat="42.04327" lon="9.16766">
        <ele>1544.01</ele>
        <time>2015-09-12T13:20:01Z</time>
      </trkpt>
      <trkpt lat="42.04314" lon="9.16777">
        <ele>1544.01</ele>
        <time>2015-09-12T13:20:22Z</time>
      </trkpt>
      <trkpt lat="42.04303" lon="9.16777">
        <ele>1544.01</ele>
        <time>2015-09-12T13:20:40Z</time>
      </trkpt>
      <trkpt lat="42.04292" lon="9.16771">
        <ele>1545.46</ele>
        <time>2015-09-12T13:20:56Z</time>
      </trkpt>
      <trkpt lat="42.04289" lon="9.16769">
        <ele>1545.46</ele>
        <time>2015-09-12T13:20:59Z</time>
      </trkpt>
      <trkpt lat="42.04276" lon="9.16761">
        <ele>1544.98</ele>
        <time>2015-09-12T13:21:17Z</time>
      </trkpt>
      <trkpt lat="42.04258" lon="9.16752">
        <ele>1544.98</ele>
        <time>2015-09-12T13:21:38Z</time>
      </trkpt>
      <trkpt lat="42.0424" lon="9.16743">
        <ele>1544.98</ele>
        <time>2015-09-12T13:21:58Z</time>
      </trkpt>
      <trkpt lat="42.04226" lon="9.16735">
        <ele>1544.01</ele>
        <time>2015-09-12T13:22:14Z</time>
      </trkpt>
      <trkpt lat="42.04209" lon="9.16733">
        <ele>1544.01</ele>
        <time>2015-09-12T13:22:34Z</time>
      </trkpt>
      <trkpt lat="42.04194" lon="9.1674">
        <ele>1544.01</ele>
        <time>2015-09-12T13:22:52Z</time>
      </trkpt>
      <trkpt lat="42.0418" lon="9.16748">
        <ele>1543.53</ele>
        <time>2015-09-12T13:23:14Z</time>
      </trkpt>
      <trkpt lat="42.0417" lon="9.16756">
        <ele>1543.05</ele>
        <time>2015-09-12T13:23:35Z</time>
      </trkpt>
      <trkpt lat="42.04163" lon="9.16774">
        <ele>1541.61</ele>
        <time>2015-09-12T13:23:55Z</time>
      </trkpt>
      <trkpt lat="42.04154" lon="9.1679">
        <ele>1541.61</ele>
        <time>2015-09-12T13:24:14Z</time>
      </trkpt>
      <trkpt lat="42.04147" lon="9.16809">
        <ele>1541.13</ele>
        <time>2015-09-12T13:24:33Z</time>
      </trkpt>
      <trkpt lat="42.04141" lon="9.16824">
        <ele>1540.65</ele>
        <time>2015-09-12T13:24:50Z</time>
      </trkpt>
      <trkpt lat="42.04134" lon="9.16843">
        <ele>1540.65</ele>
        <time>2015-09-12T13:25:09Z</time>
      </trkpt>
      <trkpt lat="42.04126" lon="9.16861">
        <ele>1539.21</ele>
        <time>2015-09-12T13:25:28Z</time>
      </trkpt>
      <trkpt lat="42.04116" lon="9.16876">
        <ele>1540.17</ele>
        <time>2015-09-12T13:25:46Z</time>
      </trkpt>
      <trkpt lat="42.04112" lon="9.16889">
        <ele>1540.65</ele>
        <time>2015-09-12T13:26:03Z</time>
      </trkpt>
      <trkpt lat="42.04112" lon="9.16917">
        <ele>1540.65</ele>
        <time>2015-09-12T13:26:22Z</time>
      </trkpt>
      <trkpt lat="42.04112" lon="9.16939">
        <ele>1540.65</ele>
        <time>2015-09-12T13:26:39Z</time>
      </trkpt>
      <trkpt lat="42.04111" lon="9.16961">
        <ele>1540.65</ele>
        <time>2015-09-12T13:27:00Z</time>
      </trkpt>
      <trkpt lat="42.04101" lon="9.1698">
        <ele>1541.13</ele>
        <time>2015-09-12T13:27:18Z</time>
      </trkpt>
      <trkpt lat="42.04094" lon="9.17001">
        <ele>1541.13</ele>
        <time>2015-09-12T13:27:39Z</time>
      </trkpt>
      <trkpt lat="42.04085" lon="9.17019">
        <ele>1542.57</ele>
        <time>2015-09-12T13:28:00Z</time>
      </trkpt>
      <trkpt lat="42.04072" lon="9.17033">
        <ele>1542.57</ele>
        <time>2015-09-12T13:28:19Z</time>
      </trkpt>
      <trkpt lat="42.04059" lon="9.17047">
        <ele>1542.57</ele>
        <time>2015-09-12T13:28:40Z</time>
      </trkpt>
      <trkpt lat="42.04045" lon="9.17061">
        <ele>1543.53</ele>
        <time>2015-09-12T13:29:02Z</time>
      </trkpt>
      <trkpt lat="42.04026" lon="9.17076">
        <ele>1543.05</ele>
        <time>2015-09-12T13:29:26Z</time>
      </trkpt>
      <trkpt lat="42.04016" lon="9.17091">
        <ele>1543.05</ele>
        <time>2015-09-12T13:29:43Z</time>
      </trkpt>
      <trkpt lat="42.04015" lon="9.17113">
        <ele>1543.05</ele>
        <time>2015-09-12T13:30:01Z</time>
      </trkpt>
      <trkpt lat="42.04014" lon="9.17117">
        <ele>1541.61</ele>
        <time>2015-09-12T13:30:04Z</time>
      </trkpt>
      <trkpt lat="42.04009" lon="9.1713">
        <ele>1542.57</ele>
        <time>2015-09-12T13:30:21Z</time>
      </trkpt>
      <trkpt lat="42.04006" lon="9.17139">
        <ele>1542.57</ele>
        <time>2015-09-12T13:30:47Z</time>
      </trkpt>
      <trkpt lat="42.04008" lon="9.17146">
        <ele>1542.57</ele>
        <time>2015-09-12T13:31:15Z</time>
      </trkpt>
      <trkpt lat="42.04007" lon="9.17146">
        <ele>1542.09</ele>
        <time>2015-09-12T13:31:38Z</time>
      </trkpt>
      <trkpt lat="42.04005" lon="9.17154">
        <ele>1542.09</ele>
        <time>2015-09-12T13:32:10Z</time>
      </trkpt>
      <trkpt lat="42.04009" lon="9.17154">
        <ele>1542.09</ele>
        <time>2015-09-12T13:32:41Z</time>
      </trkpt>
      <trkpt lat="42.04009" lon="9.17156">
        <ele>1542.57</ele>
        <time>2015-09-12T13:33:08Z</time>
      </trkpt>
      <trkpt lat="42.0401" lon="9.17154">
        <ele>1542.57</ele>
        <time>2015-09-12T13:33:29Z</time>
      </trkpt>
      <trkpt lat="42.04009" lon="9.17152">
        <ele>1542.57</ele>
        <time>2015-09-12T13:33:54Z</time>
      </trkpt>
      <trkpt lat="42.04008" lon="9.17147">
        <ele>1542.57</ele>
        <time>2015-09-12T13:34:24Z</time>
      </trkpt>
      <trkpt lat="42.04009" lon="9.17158">
        <ele>1543.05</ele>
        <time>2015-09-12T13:34:49Z</time>
      </trkpt>
      <trkpt lat="42.04005" lon="9.17158">
        <ele>1543.05</ele>
        <time>2015-09-12T13:35:20Z</time>
      </trkpt>
      <trkpt lat="42.04004" lon="9.1715">
        <ele>1543.05</ele>
        <time>2015-09-12T13:35:40Z</time>
      </trkpt>
      <trkpt lat="42.0401" lon="9.17154">
        <ele>1543.05</ele>
        <time>2015-09-12T13:36:01Z</time>
      </trkpt>
      <trkpt lat="42.04012" lon="9.17155">
        <ele>1543.05</ele>
        <time>2015-09-12T13:36:26Z</time>
      </trkpt>
      <trkpt lat="42.04008" lon="9.17152">
        <ele>1543.53</ele>
        <time>2015-09-12T13:36:52Z</time>
      </trkpt>
      <trkpt lat="42.04006" lon="9.17161">
        <ele>1543.53</ele>
        <time>2015-09-12T13:37:19Z</time>
      </trkpt>
      <trkpt lat="42.04" lon="9.17183">
        <ele>1544.5</ele>
        <time>2015-09-12T13:37:41Z</time>
      </trkpt>
      <trkpt lat="42.03993" lon="9.17195">
        <ele>1545.94</ele>
        <time>2015-09-12T13:37:59Z</time>
      </trkpt>
      <trkpt lat="42.03986" lon="9.17213">
        <ele>1547.86</ele>
        <time>2015-09-12T13:38:20Z</time>
      </trkpt>
      <trkpt lat="42.03977" lon="9.17232">
        <ele>1549.78</ele>
        <time>2015-09-12T13:38:43Z</time>
      </trkpt>
      <trkpt lat="42.03965" lon="9.1725">
        <ele>1551.22</ele>
        <time>2015-09-12T13:39:07Z</time>
      </trkpt>
      <trkpt lat="42.03951" lon="9.1724">
        <ele>1554.11</ele>
        <time>2015-09-12T13:39:31Z</time>
      </trkpt>
      <trkpt lat="42.03943" lon="9.17233">
        <ele>1556.51</ele>
        <time>2015-09-12T13:39:52Z</time>
      </trkpt>
      <trkpt lat="42.0393" lon="9.17237">
        <ele>1557.95</ele>
        <time>2015-09-12T13:40:15Z</time>
      </trkpt>
      <trkpt lat="42.03916" lon="9.17237">
        <ele>1559.88</ele>
        <time>2015-09-12T13:40:40Z</time>
      </trkpt>
      <trkpt lat="42.03903" lon="9.1722">
        <ele>1561.32</ele>
        <time>2015-09-12T13:41:03Z</time>
      </trkpt>
      <trkpt lat="42.03887" lon="9.17219">
        <ele>1563.72</ele>
        <time>2015-09-12T13:41:29Z</time>
      </trkpt>
      <trkpt lat="42.03868" lon="9.17221">
        <ele>1564.68</ele>
        <time>2015-09-12T13:41:51Z</time>
      </trkpt>
      <trkpt lat="42.03849" lon="9.17206">
        <ele>1565.64</ele>
        <time>2015-09-12T13:42:17Z</time>
      </trkpt>
      <trkpt lat="42.03836" lon="9.17194">
        <ele>1566.61</ele>
        <time>2015-09-12T13:42:40Z</time>
      </trkpt>
      <trkpt lat="42.0382" lon="9.1718">
        <ele>1568.05</ele>
        <time>2015-09-12T13:43:06Z</time>
      </trkpt>
      <trkpt lat="42.03815" lon="9.17163">
        <ele>1569.49</ele>
        <time>2015-09-12T13:43:27Z</time>
      </trkpt>
      <trkpt lat="42.03806" lon="9.17141">
        <ele>1571.89</ele>
        <time>2015-09-12T13:43:52Z</time>
      </trkpt>
      <trkpt lat="42.03799" lon="9.17119">
        <ele>1573.82</ele>
        <time>2015-09-12T13:44:17Z</time>
      </trkpt>
      <trkpt lat="42.03793" lon="9.17098">
        <ele>1575.26</ele>
        <time>2015-09-12T13:44:39Z</time>
      </trkpt>
      <trkpt lat="42.03789" lon="9.17081">
        <ele>1575.74</ele>
        <time>2015-09-12T13:44:58Z</time>
      </trkpt>
      <trkpt lat="42.03781" lon="9.17061">
        <ele>1576.7</ele>
        <time>2015-09-12T13:45:22Z</time>
      </trkpt>
      <trkpt lat="42.03772" lon="9.17039">
        <ele>1578.14</ele>
        <time>2015-09-12T13:45:43Z</time>
      </trkpt>
      <trkpt lat="42.03755" lon="9.17016">
        <ele>1578.14</ele>
        <time>2015-09-12T13:46:03Z</time>
      </trkpt>
      <trkpt lat="42.03738" lon="9.17011">
        <ele>1579.58</ele>
        <time>2015-09-12T13:46:26Z</time>
      </trkpt>
      <trkpt lat="42.03715" lon="9.17009">
        <ele>1579.58</ele>
        <time>2015-09-12T13:46:51Z</time>
      </trkpt>
      <trkpt lat="42.03696" lon="9.16998">
        <ele>1579.58</ele>
        <time>2015-09-12T13:47:14Z</time>
      </trkpt>
      <trkpt lat="42.03687" lon="9.16976">
        <ele>1579.58</ele>
        <time>2015-09-12T13:47:38Z</time>
      </trkpt>
      <trkpt lat="42.03666" lon="9.16967">
        <ele>1580.06</ele>
        <time>2015-09-12T13:48:02Z</time>
      </trkpt>
      <trkpt lat="42.03646" lon="9.16959">
        <ele>1580.06</ele>
        <time>2015-09-12T13:48:26Z</time>
      </trkpt>
      <trkpt lat="42.03628" lon="9.16951">
        <ele>1580.06</ele>
        <time>2015-09-12T13:48:46Z</time>
      </trkpt>
      <trkpt lat="42.03608" lon="9.16937">
        <ele>1580.06</ele>
        <time>2015-09-12T13:49:05Z</time>
      </trkpt>
      <trkpt lat="42.0359" lon="9.16925">
        <ele>1580.06</ele>
        <time>2015-09-12T13:49:24Z</time>
      </trkpt>
      <trkpt lat="42.0357" lon="9.16916">
        <ele>1580.54</ele>
        <time>2015-09-12T13:49:47Z</time>
      </trkpt>
      <trkpt lat="42.03552" lon="9.16906">
        <ele>1581.51</ele>
        <time>2015-09-12T13:50:09Z</time>
      </trkpt>
      <trkpt lat="42.03531" lon="9.16895">
        <ele>1581.99</ele>
        <time>2015-09-12T13:50:30Z</time>
      </trkpt>
      <trkpt lat="42.03512" lon="9.16883">
        <ele>1581.99</ele>
        <time>2015-09-12T13:50:51Z</time>
      </trkpt>
      <trkpt lat="42.03499" lon="9.16868">
        <ele>1581.03</ele>
        <time>2015-09-12T13:51:09Z</time>
      </trkpt>
      <trkpt lat="42.03493" lon="9.16844">
        <ele>1580.54</ele>
        <time>2015-09-12T13:51:28Z</time>
      </trkpt>
      <trkpt lat="42.03493" lon="9.16822">
        <ele>1579.58</ele>
        <time>2015-09-12T13:51:45Z</time>
      </trkpt>
      <trkpt lat="42.0348" lon="9.16818">
        <ele>1579.58</ele>
        <time>2015-09-12T13:52:00Z</time>
      </trkpt>
      <trkpt lat="42.03462" lon="9.16812">
        <ele>1579.58</ele>
        <time>2015-09-12T13:52:22Z</time>
      </trkpt>
      <trkpt lat="42.03444" lon="9.16798">
        <ele>1579.1</ele>
        <time>2015-09-12T13:52:43Z</time>
      </trkpt>
      <trkpt lat="42.03433" lon="9.16786">
        <ele>1577.66</ele>
        <time>2015-09-12T13:53:00Z</time>
      </trkpt>
      <trkpt lat="42.03425" lon="9.16774">
        <ele>1575.74</ele>
        <time>2015-09-12T13:53:16Z</time>
      </trkpt>
      <trkpt lat="42.03414" lon="9.16755">
        <ele>1574.3</ele>
        <time>2015-09-12T13:53:38Z</time>
      </trkpt>
      <trkpt lat="42.03402" lon="9.16736">
        <ele>1572.85</ele>
        <time>2015-09-12T13:53:57Z</time>
      </trkpt>
      <trkpt lat="42.03388" lon="9.1671">
        <ele>1571.89</ele>
        <time>2015-09-12T13:54:19Z</time>
      </trkpt>
      <trkpt lat="42.03378" lon="9.16692">
        <ele>1569.97</ele>
        <time>2015-09-12T13:54:37Z</time>
      </trkpt>
      <trkpt lat="42.03368" lon="9.16675">
        <ele>1569.01</ele>
        <time>2015-09-12T13:54:54Z</time>
      </trkpt>
      <trkpt lat="42.03356" lon="9.16656">
        <ele>1567.09</ele>
        <time>2015-09-12T13:55:17Z</time>
      </trkpt>
      <trkpt lat="42.03347" lon="9.16631">
        <ele>1565.16</ele>
        <time>2015-09-12T13:55:37Z</time>
      </trkpt>
      <trkpt lat="42.03338" lon="9.16607">
        <ele>1563.24</ele>
        <time>2015-09-12T13:55:59Z</time>
      </trkpt>
      <trkpt lat="42.03336" lon="9.16591">
        <ele>1562.28</ele>
        <time>2015-09-12T13:56:18Z</time>
      </trkpt>
      <trkpt lat="42.03332" lon="9.16576">
        <ele>1561.32</ele>
        <time>2015-09-12T13:56:38Z</time>
      </trkpt>
      <trkpt lat="42.03321" lon="9.16564">
        <ele>1561.32</ele>
        <time>2015-09-12T13:56:57Z</time>
      </trkpt>
      <trkpt lat="42.03308" lon="9.16574">
        <ele>1561.32</ele>
        <time>2015-09-12T13:57:17Z</time>
      </trkpt>
      <trkpt lat="42.033" lon="9.16586">
        <ele>1560.84</ele>
        <time>2015-09-12T13:57:37Z</time>
      </trkpt>
      <trkpt lat="42.03298" lon="9.16603">
        <ele>1559.88</ele>
        <time>2015-09-12T13:57:56Z</time>
      </trkpt>
      <trkpt lat="42.03299" lon="9.16619">
        <ele>1557.95</ele>
        <time>2015-09-12T13:58:17Z</time>
      </trkpt>
      <trkpt lat="42.03299" lon="9.16631">
        <ele>1557.95</ele>
        <time>2015-09-12T13:58:39Z</time>
      </trkpt>
      <trkpt lat="42.03296" lon="9.16636">
        <ele>1557.95</ele>
        <time>2015-09-12T13:59:01Z</time>
      </trkpt>
      <trkpt lat="42.03296" lon="9.16625">
        <ele>1556.99</ele>
        <time>2015-09-12T13:59:25Z</time>
      </trkpt>
      <trkpt lat="42.03292" lon="9.16616">
        <ele>1558.43</ele>
        <time>2015-09-12T13:59:42Z</time>
      </trkpt>
      <trkpt lat="42.03286" lon="9.16606">
        <ele>1560.36</ele>
        <time>2015-09-12T14:00:01Z</time>
      </trkpt>
      <trkpt lat="42.03275" lon="9.16601">
        <ele>1560.84</ele>
        <time>2015-09-12T14:00:22Z</time>
      </trkpt>
      <trkpt lat="42.03275" lon="9.16603">
        <ele>1559.4</ele>
        <time>2015-09-12T14:00:25Z</time>
      </trkpt>
      <trkpt lat="42.03268" lon="9.16607">
        <ele>1557.95</ele>
        <time>2015-09-12T14:00:36Z</time>
      </trkpt>
      <trkpt lat="42.0325" lon="9.16608">
        <ele>1556.03</ele>
        <time>2015-09-12T14:00:55Z</time>
      </trkpt>
      <trkpt lat="42.03245" lon="9.16609">
        <ele>1555.55</ele>
        <time>2015-09-12T14:01:00Z</time>
      </trkpt>
      <trkpt lat="42.03232" lon="9.166">
        <ele>1553.63</ele>
        <time>2015-09-12T14:01:20Z</time>
      </trkpt>
      <trkpt lat="42.03225" lon="9.1659">
        <ele>1552.19</ele>
        <time>2015-09-12T14:01:33Z</time>
      </trkpt>
      <trkpt lat="42.03208" lon="9.1658">
        <ele>1550.74</ele>
        <time>2015-09-12T14:01:53Z</time>
      </trkpt>
      <trkpt lat="42.03192" lon="9.16582">
        <ele>1549.3</ele>
        <time>2015-09-12T14:02:13Z</time>
      </trkpt>
      <trkpt lat="42.03179" lon="9.16582">
        <ele>1546.9</ele>
        <time>2015-09-12T14:02:32Z</time>
      </trkpt>
      <trkpt lat="42.03173" lon="9.16574">
        <ele>1544.98</ele>
        <time>2015-09-12T14:02:49Z</time>
      </trkpt>
      <trkpt lat="42.03164" lon="9.16556">
        <ele>1543.53</ele>
        <time>2015-09-12T14:03:09Z</time>
      </trkpt>
      <trkpt lat="42.03154" lon="9.16533">
        <ele>1540.65</ele>
        <time>2015-09-12T14:03:29Z</time>
      </trkpt>
      <trkpt lat="42.03151" lon="9.16515">
        <ele>1539.21</ele>
        <time>2015-09-12T14:03:49Z</time>
      </trkpt>
      <trkpt lat="42.03151" lon="9.16511">
        <ele>1538.25</ele>
        <time>2015-09-12T14:04:12Z</time>
      </trkpt>
      <trkpt lat="42.03145" lon="9.16514">
        <ele>1536.8</ele>
        <time>2015-09-12T14:04:35Z</time>
      </trkpt>
      <trkpt lat="42.03147" lon="9.16525">
        <ele>1534.88</ele>
        <time>2015-09-12T14:04:54Z</time>
      </trkpt>
      <trkpt lat="42.03145" lon="9.16548">
        <ele>1531.52</ele>
        <time>2015-09-12T14:05:13Z</time>
      </trkpt>
      <trkpt lat="42.03147" lon="9.16569">
        <ele>1528.15</ele>
        <time>2015-09-12T14:05:31Z</time>
      </trkpt>
      <trkpt lat="42.03145" lon="9.16598">
        <ele>1524.79</ele>
        <time>2015-09-12T14:05:50Z</time>
      </trkpt>
      <trkpt lat="42.03142" lon="9.16625">
        <ele>1522.39</ele>
        <time>2015-09-12T14:06:10Z</time>
      </trkpt>
      <trkpt lat="42.03138" lon="9.16625">
        <ele>1518.54</ele>
        <time>2015-09-12T14:06:25Z</time>
      </trkpt>
      <trkpt lat="42.03134" lon="9.16615">
        <ele>1515.18</ele>
        <time>2015-09-12T14:06:39Z</time>
      </trkpt>
      <trkpt lat="42.03124" lon="9.16592">
        <ele>1512.29</ele>
        <time>2015-09-12T14:07:01Z</time>
      </trkpt>
      <trkpt lat="42.03115" lon="9.16575">
        <ele>1509.89</ele>
        <time>2015-09-12T14:07:26Z</time>
      </trkpt>
      <trkpt lat="42.03107" lon="9.16562">
        <ele>1507.48</ele>
        <time>2015-09-12T14:07:49Z</time>
      </trkpt>
      <trkpt lat="42.03092" lon="9.16539">
        <ele>1504.12</ele>
        <time>2015-09-12T14:08:11Z</time>
      </trkpt>
      <trkpt lat="42.03083" lon="9.16522">
        <ele>1501.24</ele>
        <time>2015-09-12T14:08:33Z</time>
      </trkpt>
      <trkpt lat="42.03075" lon="9.16498">
        <ele>1498.83</ele>
        <time>2015-09-12T14:08:56Z</time>
      </trkpt>
      <trkpt lat="42.03069" lon="9.16483">
        <ele>1496.91</ele>
        <time>2015-09-12T14:09:17Z</time>
      </trkpt>
      <trkpt lat="42.03067" lon="9.16467">
        <ele>1495.47</ele>
        <time>2015-09-12T14:09:38Z</time>
      </trkpt>
      <trkpt lat="42.03066" lon="9.16449">
        <ele>1492.1</ele>
        <time>2015-09-12T14:10:00Z</time>
      </trkpt>
      <trkpt lat="42.03062" lon="9.16444">
        <ele>1489.7</ele>
        <time>2015-09-12T14:10:12Z</time>
      </trkpt>
      <trkpt lat="42.03056" lon="9.16459">
        <ele>1486.34</ele>
        <time>2015-09-12T14:10:34Z</time>
      </trkpt>
      <trkpt lat="42.0305" lon="9.16475">
        <ele>1483.45</ele>
        <time>2015-09-12T14:10:50Z</time>
      </trkpt>
      <trkpt lat="42.03044" lon="9.16488">
        <ele>1481.05</ele>
        <time>2015-09-12T14:11:09Z</time>
      </trkpt>
      <trkpt lat="42.03043" lon="9.16507">
        <ele>1477.68</ele>
        <time>2015-09-12T14:11:29Z</time>
      </trkpt>
      <trkpt lat="42.03038" lon="9.16527">
        <ele>1474.8</ele>
        <time>2015-09-12T14:11:49Z</time>
      </trkpt>
      <trkpt lat="42.03042" lon="9.16544">
        <ele>1472.88</ele>
        <time>2015-09-12T14:12:03Z</time>
      </trkpt>
      <trkpt lat="42.03045" lon="9.1656">
        <ele>1469.99</ele>
        <time>2015-09-12T14:12:20Z</time>
      </trkpt>
      <trkpt lat="42.03043" lon="9.16573">
        <ele>1468.07</ele>
        <time>2015-09-12T14:12:36Z</time>
      </trkpt>
      <trkpt lat="42.0304" lon="9.16593">
        <ele>1465.67</ele>
        <time>2015-09-12T14:12:59Z</time>
      </trkpt>
      <trkpt lat="42.03048" lon="9.16624">
        <ele>1462.78</ele>
        <time>2015-09-12T14:13:20Z</time>
      </trkpt>
      <trkpt lat="42.03044" lon="9.16636">
        <ele>1460.38</ele>
        <time>2015-09-12T14:13:43Z</time>
      </trkpt>
      <trkpt lat="42.03042" lon="9.16655">
        <ele>1458.94</ele>
        <time>2015-09-12T14:14:03Z</time>
      </trkpt>
      <trkpt lat="42.03039" lon="9.16655">
        <ele>1456.05</ele>
        <time>2015-09-12T14:14:17Z</time>
      </trkpt>
      <trkpt lat="42.03032" lon="9.16639">
        <ele>1453.65</ele>
        <time>2015-09-12T14:14:38Z</time>
      </trkpt>
      <trkpt lat="42.0303" lon="9.1662">
        <ele>1451.25</ele>
        <time>2015-09-12T14:15:03Z</time>
      </trkpt>
      <trkpt lat="42.03019" lon="9.16606">
        <ele>1448.36</ele>
        <time>2015-09-12T14:15:22Z</time>
      </trkpt>
      <trkpt lat="42.03013" lon="9.16595">
        <ele>1446.92</ele>
        <time>2015-09-12T14:15:44Z</time>
      </trkpt>
      <trkpt lat="42.03007" lon="9.16573">
        <ele>1444.52</ele>
        <time>2015-09-12T14:16:04Z</time>
      </trkpt>
      <trkpt lat="42.03004" lon="9.16551">
        <ele>1443.56</ele>
        <time>2015-09-12T14:16:22Z</time>
      </trkpt>
      <trkpt lat="42.02996" lon="9.16532">
        <ele>1440.67</ele>
        <time>2015-09-12T14:16:45Z</time>
      </trkpt>
      <trkpt lat="42.0299" lon="9.16515">
        <ele>1438.27</ele>
        <time>2015-09-12T14:17:05Z</time>
      </trkpt>
      <trkpt lat="42.02987" lon="9.16499">
        <ele>1436.35</ele>
        <time>2015-09-12T14:17:22Z</time>
      </trkpt>
      <trkpt lat="42.02978" lon="9.16473">
        <ele>1432.98</ele>
        <time>2015-09-12T14:17:42Z</time>
      </trkpt>
      <trkpt lat="42.02972" lon="9.1645">
        <ele>1431.06</ele>
        <time>2015-09-12T14:18:00Z</time>
      </trkpt>
      <trkpt lat="42.02966" lon="9.16426">
        <ele>1428.66</ele>
        <time>2015-09-12T14:18:19Z</time>
      </trkpt>
      <trkpt lat="42.02965" lon="9.16409">
        <ele>1426.25</ele>
        <time>2015-09-12T14:18:42Z</time>
      </trkpt>
      <trkpt lat="42.02963" lon="9.1638">
        <ele>1424.81</ele>
        <time>2015-09-12T14:19:02Z</time>
      </trkpt>
      <trkpt lat="42.02971" lon="9.16363">
        <ele>1423.85</ele>
        <time>2015-09-12T14:19:21Z</time>
      </trkpt>
      <trkpt lat="42.0298" lon="9.16346">
        <ele>1422.89</ele>
        <time>2015-09-12T14:19:38Z</time>
      </trkpt>
      <trkpt lat="42.0297" lon="9.16333">
        <ele>1420.97</ele>
        <time>2015-09-12T14:19:59Z</time>
      </trkpt>
      <trkpt lat="42.02955" lon="9.16323">
        <ele>1418.56</ele>
        <time>2015-09-12T14:20:18Z</time>
      </trkpt>
      <trkpt lat="42.02939" lon="9.16309">
        <ele>1417.6</ele>
        <time>2015-09-12T14:20:38Z</time>
      </trkpt>
      <trkpt lat="42.0293" lon="9.1629">
        <ele>1416.64</ele>
        <time>2015-09-12T14:20:57Z</time>
      </trkpt>
      <trkpt lat="42.02924" lon="9.1627">
        <ele>1414.72</ele>
        <time>2015-09-12T14:21:17Z</time>
      </trkpt>
      <trkpt lat="42.02917" lon="9.16248">
        <ele>1413.28</ele>
        <time>2015-09-12T14:21:36Z</time>
      </trkpt>
      <trkpt lat="42.02911" lon="9.16233">
        <ele>1411.35</ele>
        <time>2015-09-12T14:21:53Z</time>
      </trkpt>
      <trkpt lat="42.02904" lon="9.16223">
        <ele>1410.39</ele>
        <time>2015-09-12T14:22:12Z</time>
      </trkpt>
      <trkpt lat="42.02894" lon="9.16215">
        <ele>1407.51</ele>
        <time>2015-09-12T14:22:28Z</time>
      </trkpt>
      <trkpt lat="42.02884" lon="9.16202">
        <ele>1406.07</ele>
        <time>2015-09-12T14:22:45Z</time>
      </trkpt>
      <trkpt lat="42.0287" lon="9.1619">
        <ele>1404.14</ele>
        <time>2015-09-12T14:23:05Z</time>
      </trkpt>
      <trkpt lat="42.02861" lon="9.16174">
        <ele>1405.1</ele>
        <time>2015-09-12T14:23:27Z</time>
      </trkpt>
      <trkpt lat="42.02861" lon="9.16172">
        <ele>1405.1</ele>
        <time>2015-09-12T14:23:28Z</time>
      </trkpt>
      <trkpt lat="42.02859" lon="9.16154">
        <ele>1407.03</ele>
        <time>2015-09-12T14:23:46Z</time>
      </trkpt>
      <trkpt lat="42.02854" lon="9.16138">
        <ele>1409.43</ele>
        <time>2015-09-12T14:24:06Z</time>
      </trkpt>
      <trkpt lat="42.02852" lon="9.16124">
        <ele>1410.87</ele>
        <time>2015-09-12T14:24:21Z</time>
      </trkpt>
      <trkpt lat="42.02846" lon="9.1611">
        <ele>1412.31</ele>
        <time>2015-09-12T14:24:41Z</time>
      </trkpt>
      <trkpt lat="42.0284" lon="9.16098">
        <ele>1414.24</ele>
        <time>2015-09-12T14:25:01Z</time>
      </trkpt>
      <trkpt lat="42.02837" lon="9.16081">
        <ele>1414.72</ele>
        <time>2015-09-12T14:25:20Z</time>
      </trkpt>
      <trkpt lat="42.02829" lon="9.16072">
        <ele>1416.16</ele>
        <time>2015-09-12T14:25:39Z</time>
      </trkpt>
      <trkpt lat="42.02827" lon="9.16062">
        <ele>1419.04</ele>
        <time>2015-09-12T14:25:58Z</time>
      </trkpt>
      <trkpt lat="42.02827" lon="9.16052">
        <ele>1420.97</ele>
        <time>2015-09-12T14:26:20Z</time>
      </trkpt>
      <trkpt lat="42.02824" lon="9.16039">
        <ele>1423.37</ele>
        <time>2015-09-12T14:26:41Z</time>
      </trkpt>
      <trkpt lat="42.02815" lon="9.16028">
        <ele>1424.81</ele>
        <time>2015-09-12T14:27:06Z</time>
      </trkpt>
      <trkpt lat="42.02817" lon="9.16019">
        <ele>1425.77</ele>
        <time>2015-09-12T14:27:28Z</time>
      </trkpt>
      <trkpt lat="42.02814" lon="9.16007">
        <ele>1427.21</ele>
        <time>2015-09-12T14:27:49Z</time>
      </trkpt>
      <trkpt lat="42.02811" lon="9.15993">
        <ele>1427.21</ele>
        <time>2015-09-12T14:28:13Z</time>
      </trkpt>
      <trkpt lat="42.02808" lon="9.15984">
        <ele>1429.14</ele>
        <time>2015-09-12T14:28:36Z</time>
      </trkpt>
      <trkpt lat="42.02807" lon="9.15974">
        <ele>1429.62</ele>
        <time>2015-09-12T14:28:56Z</time>
      </trkpt>
      <trkpt lat="42.02807" lon="9.15973">
        <ele>1429.62</ele>
        <time>2015-09-12T14:29:15Z</time>
      </trkpt>
      <trkpt lat="42.02792" lon="9.15956">
        <ele>1430.58</ele>
        <time>2015-09-12T14:29:39Z</time>
      </trkpt>
      <trkpt lat="42.02782" lon="9.15948">
        <ele>1430.58</ele>
        <time>2015-09-12T14:29:57Z</time>
      </trkpt>
      <trkpt lat="42.0278" lon="9.15946">
        <ele>1429.62</ele>
        <time>2015-09-12T14:30:02Z</time>
      </trkpt>
      <trkpt lat="42.02767" lon="9.15939">
        <ele>1429.62</ele>
        <time>2015-09-12T14:30:27Z</time>
      </trkpt>
      <trkpt lat="42.02757" lon="9.15937">
        <ele>1428.66</ele>
        <time>2015-09-12T14:30:45Z</time>
      </trkpt>
      <trkpt lat="42.02748" lon="9.1594">
        <ele>1428.66</ele>
        <time>2015-09-12T14:31:05Z</time>
      </trkpt>
      <trkpt lat="42.02743" lon="9.1595">
        <ele>1426.73</ele>
        <time>2015-09-12T14:31:26Z</time>
      </trkpt>
      <trkpt lat="42.02731" lon="9.15948">
        <ele>1424.33</ele>
        <time>2015-09-12T14:31:45Z</time>
      </trkpt>
      <trkpt lat="42.02718" lon="9.15952">
        <ele>1421.93</ele>
        <time>2015-09-12T14:32:06Z</time>
      </trkpt>
      <trkpt lat="42.02711" lon="9.15967">
        <ele>1420</ele>
        <time>2015-09-12T14:32:29Z</time>
      </trkpt>
      <trkpt lat="42.02702" lon="9.15977">
        <ele>1418.08</ele>
        <time>2015-09-12T14:32:51Z</time>
      </trkpt>
      <trkpt lat="42.02696" lon="9.15989">
        <ele>1415.68</ele>
        <time>2015-09-12T14:33:10Z</time>
      </trkpt>
      <trkpt lat="42.02687" lon="9.1598">
        <ele>1412.31</ele>
        <time>2015-09-12T14:33:28Z</time>
      </trkpt>
      <trkpt lat="42.0268" lon="9.15975">
        <ele>1408.47</ele>
        <time>2015-09-12T14:33:43Z</time>
      </trkpt>
      <trkpt lat="42.02663" lon="9.15987">
        <ele>1409.91</ele>
        <time>2015-09-12T14:34:00Z</time>
      </trkpt>
      <trkpt lat="42.02656" lon="9.15997">
        <ele>1412.31</ele>
        <time>2015-09-12T14:34:19Z</time>
      </trkpt>
      <trkpt lat="42.02651" lon="9.16002">
        <ele>1413.28</ele>
        <time>2015-09-12T14:34:41Z</time>
      </trkpt>
      <trkpt lat="42.02646" lon="9.16021">
        <ele>1412.31</ele>
        <time>2015-09-12T14:35:02Z</time>
      </trkpt>
      <trkpt lat="42.02657" lon="9.16037">
        <ele>1410.39</ele>
        <time>2015-09-12T14:35:26Z</time>
      </trkpt>
      <trkpt lat="42.02666" lon="9.16044">
        <ele>1407.51</ele>
        <time>2015-09-12T14:35:44Z</time>
      </trkpt>
      <trkpt lat="42.02673" lon="9.16057">
        <ele>1405.1</ele>
        <time>2015-09-12T14:36:09Z</time>
      </trkpt>
      <trkpt lat="42.02681" lon="9.16071">
        <ele>1403.18</ele>
        <time>2015-09-12T14:36:33Z</time>
      </trkpt>
      <trkpt lat="42.02686" lon="9.1609">
        <ele>1402.7</ele>
        <time>2015-09-12T14:36:54Z</time>
      </trkpt>
      <trkpt lat="42.0269" lon="9.16097">
        <ele>1401.74</ele>
        <time>2015-09-12T14:37:15Z</time>
      </trkpt>
      <trkpt lat="42.02693" lon="9.161">
        <ele>1402.7</ele>
        <time>2015-09-12T14:37:20Z</time>
      </trkpt>
      <trkpt lat="42.02709" lon="9.16121">
        <ele>1404.62</ele>
        <time>2015-09-12T14:37:41Z</time>
      </trkpt>
      <trkpt lat="42.02721" lon="9.16136">
        <ele>1403.66</ele>
        <time>2015-09-12T14:38:02Z</time>
      </trkpt>
      <trkpt lat="42.02724" lon="9.16147">
        <ele>1400.78</ele>
        <time>2015-09-12T14:38:17Z</time>
      </trkpt>
      <trkpt lat="42.02729" lon="9.16162">
        <ele>1398.37</ele>
        <time>2015-09-12T14:38:38Z</time>
      </trkpt>
      <trkpt lat="42.02733" lon="9.16184">
        <ele>1395.49</ele>
        <time>2015-09-12T14:39:01Z</time>
      </trkpt>
      <trkpt lat="42.02741" lon="9.16204">
        <ele>1392.61</ele>
        <time>2015-09-12T14:39:23Z</time>
      </trkpt>
      <trkpt lat="42.02749" lon="9.16239">
        <ele>1392.13</ele>
        <time>2015-09-12T14:39:44Z</time>
      </trkpt>
      <trkpt lat="42.02748" lon="9.16245">
        <ele>1392.13</ele>
        <time>2015-09-12T14:39:48Z</time>
      </trkpt>
      <trkpt lat="42.02746" lon="9.16272">
        <ele>1390.68</ele>
        <time>2015-09-12T14:40:07Z</time>
      </trkpt>
      <trkpt lat="42.02749" lon="9.16306">
        <ele>1390.2</ele>
        <time>2015-09-12T14:40:31Z</time>
      </trkpt>
      <trkpt lat="42.02746" lon="9.16327">
        <ele>1391.17</ele>
        <time>2015-09-12T14:40:49Z</time>
      </trkpt>
      <trkpt lat="42.02739" lon="9.16359">
        <ele>1392.61</ele>
        <time>2015-09-12T14:41:13Z</time>
      </trkpt>
      <trkpt lat="42.02724" lon="9.16379">
        <ele>1394.05</ele>
        <time>2015-09-12T14:41:37Z</time>
      </trkpt>
      <trkpt lat="42.02717" lon="9.16391">
        <ele>1394.53</ele>
        <time>2015-09-12T14:42:02Z</time>
      </trkpt>
      <trkpt lat="42.02721" lon="9.16398">
        <ele>1395.01</ele>
        <time>2015-09-12T14:42:13Z</time>
      </trkpt>
      <trkpt lat="42.02729" lon="9.16434">
        <ele>1396.45</ele>
        <time>2015-09-12T14:42:38Z</time>
      </trkpt>
      <trkpt lat="42.02723" lon="9.1645">
        <ele>1399.82</ele>
        <time>2015-09-12T14:42:58Z</time>
      </trkpt>
      <trkpt lat="42.02719" lon="9.1647">
        <ele>1403.18</ele>
        <time>2015-09-12T14:43:23Z</time>
      </trkpt>
      <trkpt lat="42.02714" lon="9.16487">
        <ele>1405.1</ele>
        <time>2015-09-12T14:43:45Z</time>
      </trkpt>
      <trkpt lat="42.02719" lon="9.16508">
        <ele>1405.1</ele>
        <time>2015-09-12T14:44:03Z</time>
      </trkpt>
      <trkpt lat="42.02715" lon="9.16529">
        <ele>1406.55</ele>
        <time>2015-09-12T14:44:26Z</time>
      </trkpt>
      <trkpt lat="42.0272" lon="9.16544">
        <ele>1407.03</ele>
        <time>2015-09-12T14:44:46Z</time>
      </trkpt>
      <trkpt lat="42.02725" lon="9.16564">
        <ele>1407.51</ele>
        <time>2015-09-12T14:45:04Z</time>
      </trkpt>
      <trkpt lat="42.02723" lon="9.16587">
        <ele>1407.99</ele>
        <time>2015-09-12T14:45:27Z</time>
      </trkpt>
      <trkpt lat="42.0273" lon="9.16608">
        <ele>1408.47</ele>
        <time>2015-09-12T14:45:48Z</time>
      </trkpt>
      <trkpt lat="42.0273" lon="9.16627">
        <ele>1409.43</ele>
        <time>2015-09-12T14:46:13Z</time>
      </trkpt>
      <trkpt lat="42.02729" lon="9.1665">
        <ele>1411.83</ele>
        <time>2015-09-12T14:46:35Z</time>
      </trkpt>
      <trkpt lat="42.02728" lon="9.1667">
        <ele>1413.76</ele>
        <time>2015-09-12T14:46:59Z</time>
      </trkpt>
      <trkpt lat="42.02729" lon="9.16693">
        <ele>1416.64</ele>
        <time>2015-09-12T14:47:22Z</time>
      </trkpt>
      <trkpt lat="42.02728" lon="9.16714">
        <ele>1418.08</ele>
        <time>2015-09-12T14:47:44Z</time>
      </trkpt>
      <trkpt lat="42.02726" lon="9.16737">
        <ele>1419.04</ele>
        <time>2015-09-12T14:48:05Z</time>
      </trkpt>
      <trkpt lat="42.02726" lon="9.16754">
        <ele>1420.49</ele>
        <time>2015-09-12T14:48:22Z</time>
      </trkpt>
      <trkpt lat="42.02725" lon="9.16772">
        <ele>1423.37</ele>
        <time>2015-09-12T14:48:45Z</time>
      </trkpt>
      <trkpt lat="42.02713" lon="9.16784">
        <ele>1424.33</ele>
        <time>2015-09-12T14:49:05Z</time>
      </trkpt>
      <trkpt lat="42.02707" lon="9.16805">
        <ele>1425.29</ele>
        <time>2015-09-12T14:49:28Z</time>
      </trkpt>
      <trkpt lat="42.02716" lon="9.16822">
        <ele>1426.73</ele>
        <time>2015-09-12T14:49:48Z</time>
      </trkpt>
      <trkpt lat="42.02718" lon="9.1684">
        <ele>1427.7</ele>
        <time>2015-09-12T14:50:07Z</time>
      </trkpt>
      <trkpt lat="42.02717" lon="9.16857">
        <ele>1428.66</ele>
        <time>2015-09-12T14:50:24Z</time>
      </trkpt>
      <trkpt lat="42.02723" lon="9.16877">
        <ele>1429.14</ele>
        <time>2015-09-12T14:50:42Z</time>
      </trkpt>
      <trkpt lat="42.02722" lon="9.16899">
        <ele>1429.14</ele>
        <time>2015-09-12T14:51:03Z</time>
      </trkpt>
      <trkpt lat="42.02717" lon="9.16926">
        <ele>1430.1</ele>
        <time>2015-09-12T14:51:25Z</time>
      </trkpt>
      <trkpt lat="42.02717" lon="9.16953">
        <ele>1430.58</ele>
        <time>2015-09-12T14:51:48Z</time>
      </trkpt>
      <trkpt lat="42.02722" lon="9.16976">
        <ele>1430.58</ele>
        <time>2015-09-12T14:52:08Z</time>
      </trkpt>
      <trkpt lat="42.02728" lon="9.16998">
        <ele>1431.54</ele>
        <time>2015-09-12T14:52:28Z</time>
      </trkpt>
      <trkpt lat="42.02733" lon="9.17024">
        <ele>1432.5</ele>
        <time>2015-09-12T14:52:47Z</time>
      </trkpt>
      <trkpt lat="42.02734" lon="9.17049">
        <ele>1433.46</ele>
        <time>2015-09-12T14:53:06Z</time>
      </trkpt>
      <trkpt lat="42.02731" lon="9.17064">
        <ele>1433.94</ele>
        <time>2015-09-12T14:53:19Z</time>
      </trkpt>
      <trkpt lat="42.02722" lon="9.17081">
        <ele>1434.42</ele>
        <time>2015-09-12T14:53:34Z</time>
      </trkpt>
      <trkpt lat="42.02712" lon="9.17099">
        <ele>1434.91</ele>
        <time>2015-09-12T14:53:53Z</time>
      </trkpt>
      <trkpt lat="42.02713" lon="9.17124">
        <ele>1433.46</ele>
        <time>2015-09-12T14:54:12Z</time>
      </trkpt>
      <trkpt lat="42.02719" lon="9.17141">
        <ele>1432.5</ele>
        <time>2015-09-12T14:54:21Z</time>
      </trkpt>
      <trkpt lat="42.02725" lon="9.1715">
        <ele>1431.54</ele>
        <time>2015-09-12T14:54:27Z</time>
      </trkpt>
      <trkpt lat="42.02731" lon="9.17176">
        <ele>1430.58</ele>
        <time>2015-09-12T14:54:45Z</time>
      </trkpt>
      <trkpt lat="42.02731" lon="9.17203">
        <ele>1428.18</ele>
        <time>2015-09-12T14:55:04Z</time>
      </trkpt>
      <trkpt lat="42.02739" lon="9.1723">
        <ele>1427.21</ele>
        <time>2015-09-12T14:55:24Z</time>
      </trkpt>
      <trkpt lat="42.02742" lon="9.17274">
        <ele>1426.25</ele>
        <time>2015-09-12T14:55:42Z</time>
      </trkpt>
      <trkpt lat="42.02746" lon="9.173">
        <ele>1424.33</ele>
        <time>2015-09-12T14:56:03Z</time>
      </trkpt>
      <trkpt lat="42.02751" lon="9.17325">
        <ele>1421.93</ele>
        <time>2015-09-12T14:56:25Z</time>
      </trkpt>
      <trkpt lat="42.02752" lon="9.17333">
        <ele>1420</ele>
        <time>2015-09-12T14:56:32Z</time>
      </trkpt>
      <trkpt lat="42.02762" lon="9.17363">
        <ele>1419.04</ele>
        <time>2015-09-12T14:56:56Z</time>
      </trkpt>
      <trkpt lat="42.02767" lon="9.17386">
        <ele>1417.6</ele>
        <time>2015-09-12T14:57:20Z</time>
      </trkpt>
      <trkpt lat="42.02766" lon="9.1741">
        <ele>1414.24</ele>
        <time>2015-09-12T14:57:40Z</time>
      </trkpt>
      <trkpt lat="42.02766" lon="9.17433">
        <ele>1412.79</ele>
        <time>2015-09-12T14:57:59Z</time>
      </trkpt>
      <trkpt lat="42.02764" lon="9.1746">
        <ele>1410.87</ele>
        <time>2015-09-12T14:58:22Z</time>
      </trkpt>
      <trkpt lat="42.02762" lon="9.17483">
        <ele>1408.95</ele>
        <time>2015-09-12T14:58:43Z</time>
      </trkpt>
      <trkpt lat="42.02758" lon="9.17506">
        <ele>1405.58</ele>
        <time>2015-09-12T14:59:00Z</time>
      </trkpt>
      <trkpt lat="42.0275" lon="9.1753">
        <ele>1402.7</ele>
        <time>2015-09-12T14:59:22Z</time>
      </trkpt>
      <trkpt lat="42.02745" lon="9.17551">
        <ele>1399.34</ele>
        <time>2015-09-12T14:59:39Z</time>
      </trkpt>
      <trkpt lat="42.02745" lon="9.17574">
        <ele>1396.45</ele>
        <time>2015-09-12T15:00:00Z</time>
      </trkpt>
      <trkpt lat="42.02743" lon="9.17597">
        <ele>1394.53</ele>
        <time>2015-09-12T15:00:23Z</time>
      </trkpt>
      <trkpt lat="42.02744" lon="9.17619">
        <ele>1393.09</ele>
        <time>2015-09-12T15:00:41Z</time>
      </trkpt>
      <trkpt lat="42.02739" lon="9.17636">
        <ele>1391.65</ele>
        <time>2015-09-12T15:00:59Z</time>
      </trkpt>
      <trkpt lat="42.02734" lon="9.17669">
        <ele>1389.72</ele>
        <time>2015-09-12T15:01:19Z</time>
      </trkpt>
      <trkpt lat="42.02733" lon="9.17686">
        <ele>1386.84</ele>
        <time>2015-09-12T15:01:44Z</time>
      </trkpt>
      <trkpt lat="42.02729" lon="9.17713">
        <ele>1384.44</ele>
        <time>2015-09-12T15:02:06Z</time>
      </trkpt>
      <trkpt lat="42.02726" lon="9.17743">
        <ele>1384.44</ele>
        <time>2015-09-12T15:02:27Z</time>
      </trkpt>
      <trkpt lat="42.02722" lon="9.17773">
        <ele>1383.47</ele>
        <time>2015-09-12T15:02:49Z</time>
      </trkpt>
      <trkpt lat="42.0272" lon="9.17798">
        <ele>1380.11</ele>
        <time>2015-09-12T15:03:08Z</time>
      </trkpt>
      <trkpt lat="42.02716" lon="9.17821">
        <ele>1376.75</ele>
        <time>2015-09-12T15:03:25Z</time>
      </trkpt>
      <trkpt lat="42.02718" lon="9.17852">
        <ele>1375.3</ele>
        <time>2015-09-12T15:03:45Z</time>
      </trkpt>
      <trkpt lat="42.02723" lon="9.17877">
        <ele>1373.38</ele>
        <time>2015-09-12T15:04:09Z</time>
      </trkpt>
      <trkpt lat="42.02729" lon="9.17914">
        <ele>1371.46</ele>
        <time>2015-09-12T15:04:30Z</time>
      </trkpt>
      <trkpt lat="42.02739" lon="9.17939">
        <ele>1373.38</ele>
        <time>2015-09-12T15:04:52Z</time>
      </trkpt>
      <trkpt lat="42.02747" lon="9.17959">
        <ele>1374.34</ele>
        <time>2015-09-12T15:05:13Z</time>
      </trkpt>
      <trkpt lat="42.02748" lon="9.17979">
        <ele>1374.82</ele>
        <time>2015-09-12T15:05:32Z</time>
      </trkpt>
      <trkpt lat="42.02747" lon="9.17994">
        <ele>1372.42</ele>
        <time>2015-09-12T15:05:56Z</time>
      </trkpt>
      <trkpt lat="42.02737" lon="9.1802">
        <ele>1369.54</ele>
        <time>2015-09-12T15:06:18Z</time>
      </trkpt>
      <trkpt lat="42.0273" lon="9.18039">
        <ele>1366.17</ele>
        <time>2015-09-12T15:06:37Z</time>
      </trkpt>
      <trkpt lat="42.0273" lon="9.1805">
        <ele>1362.81</ele>
        <time>2015-09-12T15:06:57Z</time>
      </trkpt>
      <trkpt lat="42.02722" lon="9.18068">
        <ele>1359.92</ele>
        <time>2015-09-12T15:07:14Z</time>
      </trkpt>
      <trkpt lat="42.0272" lon="9.18084">
        <ele>1358.48</ele>
        <time>2015-09-12T15:07:35Z</time>
      </trkpt>
      <trkpt lat="42.02728" lon="9.18092">
        <ele>1356.56</ele>
        <time>2015-09-12T15:07:53Z</time>
      </trkpt>
      <trkpt lat="42.0274" lon="9.18124">
        <ele>1355.6</ele>
        <time>2015-09-12T15:08:17Z</time>
      </trkpt>
      <trkpt lat="42.02736" lon="9.18135">
        <ele>1356.08</ele>
        <time>2015-09-12T15:08:48Z</time>
      </trkpt>
      <trkpt lat="42.02735" lon="9.18143">
        <ele>1355.6</ele>
        <time>2015-09-12T15:09:21Z</time>
      </trkpt>
      <trkpt lat="42.02739" lon="9.18167">
        <ele>1355.12</ele>
        <time>2015-09-12T15:09:45Z</time>
      </trkpt>
      <trkpt lat="42.02736" lon="9.18186">
        <ele>1352.23</ele>
        <time>2015-09-12T15:10:07Z</time>
      </trkpt>
      <trkpt lat="42.02731" lon="9.18208">
        <ele>1348.87</ele>
        <time>2015-09-12T15:10:30Z</time>
      </trkpt>
      <trkpt lat="42.02722" lon="9.1823">
        <ele>1345.5</ele>
        <time>2015-09-12T15:10:54Z</time>
      </trkpt>
      <trkpt lat="42.02721" lon="9.18243">
        <ele>1342.14</ele>
        <time>2015-09-12T15:11:11Z</time>
      </trkpt>
      <trkpt lat="42.0272" lon="9.18263">
        <ele>1339.25</ele>
        <time>2015-09-12T15:11:35Z</time>
      </trkpt>
      <trkpt lat="42.02717" lon="9.18299">
        <ele>1336.85</ele>
        <time>2015-09-12T15:11:59Z</time>
      </trkpt>
      <trkpt lat="42.02711" lon="9.18324">
        <ele>1333.97</ele>
        <time>2015-09-12T15:12:20Z</time>
      </trkpt>
      <trkpt lat="42.02704" lon="9.18353">
        <ele>1330.6</ele>
        <time>2015-09-12T15:12:42Z</time>
      </trkpt>
      <trkpt lat="42.02706" lon="9.18371">
        <ele>1328.68</ele>
        <time>2015-09-12T15:12:57Z</time>
      </trkpt>
      <trkpt lat="42.02705" lon="9.18382">
        <ele>1328.2</ele>
        <time>2015-09-12T15:13:06Z</time>
      </trkpt>
      <trkpt lat="42.02702" lon="9.18401">
        <ele>1325.8</ele>
        <time>2015-09-12T15:13:21Z</time>
      </trkpt>
      <trkpt lat="42.02707" lon="9.18419">
        <ele>1323.87</ele>
        <time>2015-09-12T15:13:40Z</time>
      </trkpt>
      <trkpt lat="42.02715" lon="9.18453">
        <ele>1321.95</ele>
        <time>2015-09-12T15:14:02Z</time>
      </trkpt>
      <trkpt lat="42.02719" lon="9.18475">
        <ele>1320.03</ele>
        <time>2015-09-12T15:14:19Z</time>
      </trkpt>
      <trkpt lat="42.02722" lon="9.18499">
        <ele>1317.62</ele>
        <time>2015-09-12T15:14:38Z</time>
      </trkpt>
      <trkpt lat="42.02727" lon="9.18521">
        <ele>1315.7</ele>
        <time>2015-09-12T15:14:57Z</time>
      </trkpt>
      <trkpt lat="42.0273" lon="9.1853">
        <ele>1315.22</ele>
        <time>2015-09-12T15:15:04Z</time>
      </trkpt>
      <trkpt lat="42.02739" lon="9.18549">
        <ele>1313.78</ele>
        <time>2015-09-12T15:15:19Z</time>
      </trkpt>
      <trkpt lat="42.02739" lon="9.18552">
        <ele>1313.3</ele>
        <time>2015-09-12T15:15:21Z</time>
      </trkpt>
      <trkpt lat="42.02744" lon="9.18577">
        <ele>1310.9</ele>
        <time>2015-09-12T15:15:41Z</time>
      </trkpt>
      <trkpt lat="42.02749" lon="9.18581">
        <ele>1310.41</ele>
        <time>2015-09-12T15:15:46Z</time>
      </trkpt>
      <trkpt lat="42.02758" lon="9.18597">
        <ele>1308.01</ele>
        <time>2015-09-12T15:16:03Z</time>
      </trkpt>
      <trkpt lat="42.02756" lon="9.18608">
        <ele>1306.57</ele>
        <time>2015-09-12T15:16:17Z</time>
      </trkpt>
      <trkpt lat="42.02756" lon="9.18616">
        <ele>1305.61</ele>
        <time>2015-09-12T15:16:41Z</time>
      </trkpt>
      <trkpt lat="42.02762" lon="9.18628">
        <ele>1304.65</ele>
        <time>2015-09-12T15:17:00Z</time>
      </trkpt>
      <trkpt lat="42.0277" lon="9.18637">
        <ele>1302.24</ele>
        <time>2015-09-12T15:17:20Z</time>
      </trkpt>
      <trkpt lat="42.02777" lon="9.18659">
        <ele>1299.84</ele>
        <time>2015-09-12T15:17:40Z</time>
      </trkpt>
      <trkpt lat="42.0279" lon="9.18682">
        <ele>1297.44</ele>
        <time>2015-09-12T15:18:00Z</time>
      </trkpt>
      <trkpt lat="42.02793" lon="9.18691">
        <ele>1296.48</ele>
        <time>2015-09-12T15:18:09Z</time>
      </trkpt>
      <trkpt lat="42.02794" lon="9.18696">
        <ele>1296.48</ele>
        <time>2015-09-12T15:18:13Z</time>
      </trkpt>
      <trkpt lat="42.02797" lon="9.18703">
        <ele>1296.48</ele>
        <time>2015-09-12T15:18:18Z</time>
      </trkpt>
      <trkpt lat="42.02801" lon="9.18714">
        <ele>1295.51</ele>
        <time>2015-09-12T15:18:27Z</time>
      </trkpt>
      <trkpt lat="42.02808" lon="9.18728">
        <ele>1294.07</ele>
        <time>2015-09-12T15:18:48Z</time>
      </trkpt>
      <trkpt lat="42.02812" lon="9.18748">
        <ele>1292.63</ele>
        <time>2015-09-12T15:19:08Z</time>
      </trkpt>
      <trkpt lat="42.02818" lon="9.18768">
        <ele>1291.19</ele>
        <time>2015-09-12T15:19:26Z</time>
      </trkpt>
      <trkpt lat="42.02821" lon="9.18791">
        <ele>1288.3</ele>
        <time>2015-09-12T15:19:46Z</time>
      </trkpt>
      <trkpt lat="42.02833" lon="9.1882">
        <ele>1285.9</ele>
        <time>2015-09-12T15:20:11Z</time>
      </trkpt>
      <trkpt lat="42.02846" lon="9.18855">
        <ele>1283.5</ele>
        <time>2015-09-12T15:20:33Z</time>
      </trkpt>
      <trkpt lat="42.0285" lon="9.18889">
        <ele>1282.06</ele>
        <time>2015-09-12T15:20:54Z</time>
      </trkpt>
      <trkpt lat="42.02857" lon="9.18919">
        <ele>1280.13</ele>
        <time>2015-09-12T15:21:17Z</time>
      </trkpt>
      <trkpt lat="42.02869" lon="9.18943">
        <ele>1279.65</ele>
        <time>2015-09-12T15:21:35Z</time>
      </trkpt>
      <trkpt lat="42.0288" lon="9.18968">
        <ele>1278.21</ele>
        <time>2015-09-12T15:21:58Z</time>
      </trkpt>
      <trkpt lat="42.02886" lon="9.19007">
        <ele>1277.73</ele>
        <time>2015-09-12T15:22:23Z</time>
      </trkpt>
      <trkpt lat="42.0289" lon="9.19022">
        <ele>1277.25</ele>
        <time>2015-09-12T15:22:34Z</time>
      </trkpt>
      <trkpt lat="42.02901" lon="9.19052">
        <ele>1277.25</ele>
        <time>2015-09-12T15:22:56Z</time>
      </trkpt>
      <trkpt lat="42.02901" lon="9.19053">
        <ele>1277.25</ele>
        <time>2015-09-12T15:22:57Z</time>
      </trkpt>
      <trkpt lat="42.02912" lon="9.19072">
        <ele>1278.21</ele>
        <time>2015-09-12T15:23:15Z</time>
      </trkpt>
      <trkpt lat="42.02922" lon="9.19085">
        <ele>1279.17</ele>
        <time>2015-09-12T15:23:35Z</time>
      </trkpt>
      <trkpt lat="42.02917" lon="9.19112">
        <ele>1279.65</ele>
        <time>2015-09-12T15:24:00Z</time>
      </trkpt>
      <trkpt lat="42.02909" lon="9.19145">
        <ele>1280.61</ele>
        <time>2015-09-12T15:24:28Z</time>
      </trkpt>
      <trkpt lat="42.0291" lon="9.1918">
        <ele>1281.57</ele>
        <time>2015-09-12T15:24:47Z</time>
      </trkpt>
      <trkpt lat="42.02907" lon="9.19199">
        <ele>1281.57</ele>
        <time>2015-09-12T15:25:07Z</time>
      </trkpt>
      <trkpt lat="42.02899" lon="9.19225">
        <ele>1282.54</ele>
        <time>2015-09-12T15:25:29Z</time>
      </trkpt>
      <trkpt lat="42.02886" lon="9.19254">
        <ele>1283.5</ele>
        <time>2015-09-12T15:25:53Z</time>
      </trkpt>
      <trkpt lat="42.02883" lon="9.1926">
        <ele>1283.5</ele>
        <time>2015-09-12T15:25:56Z</time>
      </trkpt>
      <trkpt lat="42.02874" lon="9.19289">
        <ele>1283.98</ele>
        <time>2015-09-12T15:26:17Z</time>
      </trkpt>
      <trkpt lat="42.02863" lon="9.19315">
        <ele>1285.42</ele>
        <time>2015-09-12T15:26:41Z</time>
      </trkpt>
      <trkpt lat="42.02846" lon="9.19333">
        <ele>1286.86</ele>
        <time>2015-09-12T15:27:02Z</time>
      </trkpt>
      <trkpt lat="42.02831" lon="9.19356">
        <ele>1288.78</ele>
        <time>2015-09-12T15:27:28Z</time>
      </trkpt>
      <trkpt lat="42.02821" lon="9.19379">
        <ele>1290.23</ele>
        <time>2015-09-12T15:27:50Z</time>
      </trkpt>
      <trkpt lat="42.02812" lon="9.19404">
        <ele>1290.71</ele>
        <time>2015-09-12T15:28:08Z</time>
      </trkpt>
      <trkpt lat="42.02805" lon="9.19414">
        <ele>1289.75</ele>
        <time>2015-09-12T15:28:24Z</time>
      </trkpt>
      <trkpt lat="42.02797" lon="9.19412">
        <ele>1288.78</ele>
        <time>2015-09-12T15:28:55Z</time>
      </trkpt>
      <trkpt lat="42.02794" lon="9.19415">
        <ele>1288.3</ele>
        <time>2015-09-12T15:29:20Z</time>
      </trkpt>
      <trkpt lat="42.02793" lon="9.19403">
        <ele>1287.82</ele>
        <time>2015-09-12T15:29:46Z</time>
      </trkpt>
      <trkpt lat="42.02794" lon="9.1939">
        <ele>1285.9</ele>
        <time>2015-09-12T15:30:11Z</time>
      </trkpt>
      <trkpt lat="42.02784" lon="9.19391">
        <ele>1282.54</ele>
        <time>2015-09-12T15:30:30Z</time>
      </trkpt>
      <trkpt lat="42.02772" lon="9.19396">
        <ele>1279.17</ele>
        <time>2015-09-12T15:30:51Z</time>
      </trkpt>
      <trkpt lat="42.02772" lon="9.19405">
        <ele>1279.17</ele>
        <time>2015-09-12T15:31:13Z</time>
      </trkpt>
      <trkpt lat="42.02765" lon="9.19426">
        <ele>1277.73</ele>
        <time>2015-09-12T15:31:35Z</time>
      </trkpt>
      <trkpt lat="42.02752" lon="9.19436">
        <ele>1275.81</ele>
        <time>2015-09-12T15:31:58Z</time>
      </trkpt>
      <trkpt lat="42.02745" lon="9.19424">
        <ele>1272.44</ele>
        <time>2015-09-12T15:32:19Z</time>
      </trkpt>
      <trkpt lat="42.02749" lon="9.19412">
        <ele>1271.48</ele>
        <time>2015-09-12T15:32:41Z</time>
      </trkpt>
      <trkpt lat="42.02753" lon="9.1941">
        <ele>1271</ele>
        <time>2015-09-12T15:33:02Z</time>
      </trkpt>
      <trkpt lat="42.02752" lon="9.19418">
        <ele>1270.52</ele>
        <time>2015-09-12T15:33:31Z</time>
      </trkpt>
      <trkpt lat="42.02746" lon="9.19415">
        <ele>1270.52</ele>
        <time>2015-09-12T15:34:01Z</time>
      </trkpt>
      <trkpt lat="42.02743" lon="9.19416">
        <ele>1270.04</ele>
        <time>2015-09-12T15:34:27Z</time>
      </trkpt>
      <trkpt lat="42.0274" lon="9.19414">
        <ele>1269.56</ele>
        <time>2015-09-12T15:35:05Z</time>
      </trkpt>
      <trkpt lat="42.02739" lon="9.19411">
        <ele>1269.56</ele>
        <time>2015-09-12T15:35:37Z</time>
      </trkpt>
      <trkpt lat="42.02742" lon="9.19408">
        <ele>1270.04</ele>
        <time>2015-09-12T15:36:07Z</time>
      </trkpt>
      <trkpt lat="42.02744" lon="9.19423">
        <ele>1271</ele>
        <time>2015-09-12T15:36:31Z</time>
      </trkpt>
    </trkseg>
  </trk>
</gpx>